     2              OBSERVATION DATA    G (GPS)             RINEX VERSION / TYPE
ASRINEXO V2.4.4 UX USGS 20-AUG-96 14:42                     PGM / RUN BY / DATE
Crustal Strain Project                                      COMMENT
U.S. Geological Survey, Menlo Park, California 94025        COMMENT
345 Middlefield Road, MS/977                                COMMENT
Contact: kwendt@isdmnl.wr.usgs.gov (Ph: 415-329-4866)       COMMENT
HI's are vertical to base of antenna                        COMMENT
flrn                                                        MARKER NAME
JMS USGS                                                    OBSERVER / AGENCY
707 ASHTECH Z-XII3 1F00                                     REC # / TYPE / VERS
11404 ASH700718B NONE                                       ANT # / TYPE
 -2389821.0000 -4275607.0000  4074408.0000                  APPROX POSITION XYZ
        1.2702        0.0000        0.0000                  ANTENNA: DELTA H/E/N
     1     1                                                WAVELENGTH FACT L1/2
     5    C1    L1    L2    P1    P2                        # / TYPES OF OBSERV
    30                                                      INTERVAL
  1996     7    13     0     0   30.000000                  TIME OF FIRST OBS
                                                            END OF HEADER
 96  7 13  0  0 29.9940000  0  9 17  3 26 23 21 28  1  9 31
  19804595.558   -29792086.70549 -22933008.82849  19804596.0854   19804601.0434
  19763332.561   -26051454.59149 -19690355.13549  19763333.4694   19763338.1074
  22912340.285    -9101703.22349  -6838896.47849  22912342.3634   22912346.9264
  19381397.041   -29151047.10249 -22129379.02549  19381396.6544   19381400.8494
  19309685.934   -30542686.45449 -23771397.50149  19309686.1784   19309691.0194
  19340005.046   -30569463.106 9 -23800212.013 9  19340004.628    19340008.370
  21003542.901   -14796886.61049 -11224982.53249  21003542.8774   21003548.8714
  22579322.805    -9098474.47049  -6879888.03649  22579325.0244   22579329.0604
  21833595.195   -11213536.69349  -8718296.44149  21833595.1254   21833600.3094
 96  7 13  0  0 59.9940000  0  9 17  3 26 23 21 28  1  9 31
  19813926.069   -29743055.74949 -22894802.90549  19813926.2994   19813930.9304
  19756724.106   -26086182.70149 -19717416.00049  19756724.5214   19756729.5894
  22929430.206    -9011895.77249  -6768916.69549  22929430.4344   22929436.8754
  19386382.908   -29124844.96549 -22108961.77749  19386382.5884   19386386.7454
  19301469.920   -30585861.46649 -23805040.32449  19301470.4054   19301474.9614
  19347596.387   -30529568.969 9 -23769125.691 9  19347596.227    19347600.166
  20982581.415   -14907038.52449 -11310815.12149  20982581.2324   20982587.5414
  22568032.937    -9157807.82049  -6926121.78849  22568032.7234   22568036.9074
  21816302.032   -11304408.50049  -8789105.60349  21816302.1834   21816306.6244
 96  7 13  0  1 29.9940000  0  9 17  3 26 23 21 28  1  9 31
  19823316.441   -29693710.26649 -22856351.90049  19823316.5304   19823320.9284
  19750228.299   -26120318.80149 -19744015.56349  19750228.9474   19750233.5544
  22946559.951    -8921881.84049  -6698776.01549  22946560.5004   22946565.1094
  19391416.851   -29098388.76649 -22088346.56049  19391417.1184   19391420.9874
  19293311.677   -30628735.19049 -23838448.40249  19293311.6594   19293316.5164
  19355295.476   -30489110.524 9 -23737599.650 9  19355295.254    19355299.176
  20961672.278   -15016919.37949 -11396436.50049  20961671.8664   20961677.6624
  22556813.744    -9216762.79249  -6972060.68949  22556813.4274   22556819.6394
  21799085.741   -11394879.94749  -8859602.80249  21799085.4054   21799091.5484
 96  7 13  0  1 59.9940000  0  9 17  3 26 23 21 28  1  9 31
  19832768.951   -29644036.39249 -22817645.00149  19832769.4464   19832773.9244
  19743844.262   -26153866.56849 -19770156.68749  19743844.8354   19743849.4514
  22963723.350    -8831681.65249  -6628490.17849  22963724.9364   22963729.7424
  19396500.221   -29071676.13549 -22067531.52149  19396500.5414   19396504.3244
  19285211.046   -30671303.42849 -23871618.44449  19285211.1894   19285216.2164
  19363101.443   -30448087.810 9 -23705633.920 9  19363101.545    19363105.647
  20940815.066   -15126525.48949 -11481843.78749  20940814.1594   20940819.4224
  22545667.221    -9275339.28549  -7017704.69749  22545666.6144   22545672.5914
  21781949.632   -11484933.83749  -8929774.62649  21781948.7134   21781954.4894
 96  7 13  0  2 29.9940000  0  9 17  3 26 23 21 28  1  9 31
  19842288.668   -29594007.97049 -22778661.83949  19842289.1234   19842294.0244
  19737577.198   -26186799.99049 -19795819.09849  19737577.9394   19737582.6904
  22980921.989    -8741303.62349  -6558065.77549  22980923.3514   22980928.2694
  19401631.345   -29044712.23749 -22046520.69049  19401631.5984   19401635.6034
  19277171.292   -30713553.17349 -23904540.30649  19277171.4964   19277176.0274
  19371017.225   -30406492.061 9 -23673221.672 9  19371017.039    19371021.074
  20920009.530   -15235857.61349 -11567037.58849  20920010.0194   20920014.8304
  22534597.480    -9333512.80349  -7063034.67849  22534597.0864   22534601.7644
  21764894.764   -11574555.78149  -8999609.86149  21764895.2904   21764900.6384
 96  7 13  0  2 59.9940000  0  9 17  3 26 23 21 28  1  9 31
  19851878.031   -29543616.86349 -22739396.05649  19851878.3484   19851883.6054
  19731430.445   -26219101.68349 -19820989.24249  19731431.1444   19731435.8844
  22998154.741    -8650747.48449  -6487502.58049  22998154.6024   22998160.1144
  19406805.110   -29017527.36049 -22025337.67249  19406804.6194   19406808.7084
  19269190.271   -30755490.87049 -23937219.00749  19269190.7164   19269195.6094
  19379042.104   -30364321.503 9 -23640361.521 9  19379041.841    19379045.856
  20899255.827   -15344919.08549 -11652020.48549  20899255.7324   20899261.8194
  22523607.630    -9391261.79949  -7108033.86249  22523607.6334   22523613.3604
  21747924.310   -11663739.13449  -9069103.34349  21747923.5644   21747929.1744
 96  7 13  0  3 29.9940000  0  9 17  3 26 23 21 28  1  9 31
  19861536.383   -29492860.55749 -22699845.70849  19861536.9224   19861542.2774
  19725402.717   -26250779.22349 -19845673.03549  19725403.0804   19725407.5484
  23015421.106    -8560014.03649  -6416801.23149  23015421.4514   23015426.4014
  19412015.401   -28990145.01249 -22004000.78449  19412015.3254   19412019.5754
  19261266.048   -30797134.97549 -23969668.94049  19261265.9324   19261270.6594
  19387173.550   -30321590.127 9 -23607064.370 9  19387173.322    19387177.266
  20878555.024   -15453703.86249 -11736787.78149  20878554.6234   20878560.3894
  22512694.065    -9448613.09649  -7152723.16049  22512694.4484   22512698.4744
  21731033.072   -11752502.92249  -9138269.88849  21731033.4744   21731037.7984
 96  7 13  0  3 59.9940000  0  9 17  3 26 23 21 28  1  9 31
  19871264.736   -29441738.88749 -22660010.66149  19871264.9864   19871270.1984
  19719494.218   -26281827.44049 -19869866.44649  19719494.6144   19719499.5204
  23032720.841    -8469100.79549  -6345959.78149  23032721.7554   23032726.4244
  19417265.681   -28962556.28849 -21982503.08149  19417265.2344   19417269.3094
  19253395.276   -30838495.22349 -24001897.68249  19253395.4024   19253400.1674
  19395410.349   -30278306.004 9 -23573336.508 9  19395409.949    19395413.997
  20857906.534   -15562211.69649 -11821339.28149  20857906.4884   20857912.1664
  22501856.230    -9505570.25149  -7197105.32949  22501855.7764   22501859.7424
  21714219.995   -11840849.86449  -9207111.62849  21714221.5534   21714224.8844
 96  7 13  0  4 29.9940000  0  9 17  3 26 23 21 28  1  9 31
  19881062.604   -29390252.54149 -22619891.45349  19881062.9334   19881067.5194
  19713704.986   -26312250.90549 -19893573.03749  19713705.4404   19713709.8764
  23050058.351    -8377993.45349  -6274967.10749  23050058.7314   23050063.8634
  19422556.755   -28934749.73749 -21960835.64249  19422556.7084   19422560.8914
  19245578.460   -30879573.80149 -24033906.95749  19245578.7774   19245583.3004
  19403751.930   -30234469.788 9 -23539178.442 9  19403751.738    19403755.845
  20837308.444   -15670453.36449 -11905683.38249  20837308.1734   20837314.2014
  22491092.782    -9562132.40849  -7241179.72049  22491093.0434   22491097.8314
  21697488.776   -11928777.95349  -9275626.98649  21697488.6704   21697493.1364
 96  7 13  0  4 59.9940000  0  9 17  3 26 23 21 28  1  9 31
  19890926.206   -29338418.27249 -22579501.13349  19890926.2634   19890931.1974
  19708033.155   -26342054.23149 -19916796.39949  19708033.8744   19708038.3434
  23067435.719    -8286674.06049  -6203809.17949  23067436.6334   23067441.2474
  19427892.466   -28906710.14449 -21938986.61349  19427892.0994   19427896.6654
  19237812.941   -30920380.20549 -24065704.14649  19237812.9684   19237817.9934
  19412198.130   -30190084.506 9 -23504592.529 9  19412197.921    19412201.906
  20816763.578   -15778417.67549 -11989811.34949  20816763.0494   20816769.4614
  22480402.915    -9618301.17549  -7284947.55949  22480403.3884   22480409.0864
  21680835.870   -12016290.26949  -9343818.35949  21680835.1694   21680840.6264
 96  7 13  0  5 29.9940000  0  9 17  3 26 23 21 28  1  9 31
  19900853.368   -29286250.85249 -22538851.21049  19900853.4534   19900858.3834
  19702479.043   -26371243.61449 -19939541.36549  19702479.3154   19702484.6254
  23084856.773    -8195133.04249  -6132478.56249  23084855.7744   23084860.5204
  19433276.714   -28878417.46849 -21916940.37449  19433276.2684   19433280.8874
  19230100.685   -30960909.78249 -24097285.62549  19230100.6504   19230105.5954
  19420748.889   -30145152.269 9 -23469580.416 9  19420748.344    19420752.304
  20796273.146   -15886094.09449 -12073714.98749  20796273.6434   20796279.2394
  22469790.149    -9674075.74149  -7328408.23149  22469790.8324   22469795.2964
  21664262.446   -12103375.53549  -9411676.96849  21664263.8684   21664268.3574
 96  7 13  0  5 59.9940000  0  9 17  3 26 23 21 28  1  9 31
  19910838.692   -29233777.86449 -22497963.19249  19910839.1074   19910844.0184
  19697040.151   -26399826.75749 -19961813.94049  19697040.3074   19697045.2944
  23102312.128    -8103396.00349  -6060995.19949  23102313.6104   23102316.9694
  19438706.595   -28849881.74949 -21894704.75349  19438706.6524   19438710.9144
  19222438.762   -31001172.30149 -24128659.00549  19222438.7874   19222443.7804
  19429399.893   -30099688.497 9 -23434154.119 9  19429399.719    19429403.934
  20775834.521   -15993500.86449 -12157408.48549  20775834.3884   20775840.0654
  22459252.583    -9729455.46349  -7371561.23049  22459251.3944   22459257.7484
  21647773.558   -12190034.21549  -9479203.18349  21647772.5814   21647778.4854
 96  7 13  0  6 29.9940000  0  9 17  3 26 23 21 28  1  9 31
  19920879.488   -29181012.41849 -22456847.27849  19920880.0194   19920884.6174
  19691718.591   -26427790.11149 -19983603.56549  19691719.0044   19691723.5204
  23119806.104    -8011463.82549  -5989359.77049  23119807.5364   23119812.0814
  19444182.863   -28821105.45349 -21872281.67249  19444182.6954   19444186.9924
  19214832.830   -31041142.47349 -24159804.58149  19214832.8154   19214837.9844
  19438153.672   -30053687.240 9 -23398309.010 9  19438153.464    19438157.735
  20755450.787   -16100618.19249 -12240876.46749  20755450.6354   20755456.6394
  22448789.895    -9784431.75349  -7414399.85449  22448790.3014   22448795.5664
  21631364.316   -12276269.05349  -9546399.13349  21631362.2944   21631367.4244
 96  7 13  0  6 59.9940000  0  9 17  3 26 23 21 28  1  9 31
  19930974.781   -29127964.12849 -22415510.96649  19930974.3064   19930979.2964
  19686513.819   -26455140.63849 -20004915.66449  19686514.3794   19686519.3114
  23137336.096    -7919347.80949  -5917581.08849  23137336.8034   23137340.7544
  19449700.833   -28792107.84149 -21849686.13549  19449700.6654   19449705.0534
  19207282.532   -31080819.98749 -24190722.10249  19207282.4264   19207287.1464
  19447008.138   -30007158.419 9 -23362052.816 9  19447007.672    19447012.070
  20735123.252   -16207439.55349 -12324113.82149  20735123.3924   20735129.0634
  22438404.510    -9839006.76649  -7456925.79149  22438405.2384   22438410.8864
  21615032.311   -12362092.14649  -9613274.23649  21615030.9814   21615036.5044
 96  7 13  0  7 29.9940000  0  9 17  3 26 23 21 28  1  9 31
  19941127.583   -29074609.93949 -22373936.29049  19941127.6724   19941132.2944
  19681427.738   -26481867.41149 -20025741.72049  19681428.5434   19681433.3764
  23154899.052    -7827054.74149  -5845664.45249  23154898.8934   23154904.7904
  19455261.365   -28762886.26949 -21826916.08549  19455261.2994   19455265.7504
  19199791.666   -31120184.79849 -24221395.95949  19199791.4654   19199796.4884
  19455963.968   -29960092.983 9 -23325378.479 9  19455963.893    19455968.171
  20714852.173   -16313964.45849 -12407120.17249  20714852.3804   20714857.5684
  22428098.060    -9893168.67349  -7499129.83449  22428098.4684   22428102.5164
  21598783.356   -12447481.75349  -9679811.55849  21598782.0424   21598786.9204
 96  7 13  0  7 59.9940000  0  9 17  3 26 23 21 28  1  9 31
  19951338.186   -29020953.50349 -22332126.10249  19951338.0264   19951342.9394
  19676460.567   -26507974.29049 -20046084.74449  19676460.6574   19676465.2154
  23172490.517    -7734608.74349  -5773628.66549  23172491.0304   23172495.7534
  19460860.669   -28733462.20749 -21803988.24949  19460860.4964   19460864.8754
  19192357.742   -31159249.96649 -24251836.32649  19192357.5374   19192362.9314
  19465020.506   -29912501.546 9 -23288294.266 9  19465020.256    19465024.499
  20694635.455   -16420203.17449 -12489903.52849  20694635.6344   20694640.8344
  22417867.226    -9946931.13349  -7541022.61649  22417867.4934   22417872.8634
  21582612.172   -12532453.94149  -9746023.63349  21582613.3734   21582616.7924
 96  7 13  0  8 29.9940000  0  9 17  3 26 23 21 28  1  9 31
  19961605.547   -28966994.02249 -22290079.77149  19961606.0954   19961610.9844
  19671608.905   -26533465.67749 -20065948.16849  19671609.7924   19671614.2744
  23190109.660    -7642015.34049  -5701478.00949  23190110.5444   23190116.4084
  19466496.901   -28703843.56749 -21780908.79549  19466496.6314   19466500.8274
  19184979.180   -31198024.37049 -24282050.13749  19184979.1604   19184984.3414
  19474175.340   -29864392.862 9 -23250806.998 9  19474174.982    19474179.238
  20674471.518   -16526166.64749 -12572472.40649  20674471.2864   20674476.1104
  22407711.243   -10000299.80649  -7582608.55549  22407711.4164   22407716.9244
  21566519.446   -12617026.66949  -9811924.44549  21566519.7314   21566523.2164
 96  7 13  0  8 59.9940000  0  9 17  3 26 23 21 28  1  9 31
  19971938.071   -28912696.88049 -22247770.33149  19971938.3094   19971943.8194
  19666877.102   -26558334.61149 -20085326.56649  19666877.4784   19666881.9344
  23207759.379    -7549268.01249  -5629207.41249  23207759.9254   23207765.0974
  19472174.287   -28674009.22949 -21757661.26249  19472173.9364   19472178.3354
  19177655.568   -31236511.65749 -24312040.22349  19177655.5824   19177660.5814
  19483431.234   -29815753.661 9 -23212906.337 9  19483430.770    19483434.931
  20654360.686   -16631848.68449 -12654821.98649  20654360.6604   20654365.9734
  22397636.504   -10053248.66549  -7623867.37949  22397636.6904   22397641.2874
  21550506.921   -12701168.24549  -9877489.28549  21550507.3534   21550511.7974
 96  7 13  0  9 29.9940000  0  9 17  3 26 23 21 28  1  9 31
  19982333.660   -28858068.61849 -22205202.87049  19982334.1714   19982338.9704
  19662261.490   -26582588.84149 -20104225.97249  19662262.0464   19662266.6074
  23225433.333    -7456387.35949  -5556832.92349  23225434.0894   23225439.0394
  19477890.278   -28643970.65349 -21734254.58549  19477890.3244   19477894.3084
  19170382.925   -31274729.64649 -24341820.45949  19170382.8144   19170387.7524
  19492784.613   -29766600.666 9 -23174605.321 9  19492784.309    19492788.500
  20634301.354   -16737262.89749 -12736962.84649  20634300.2544   20634306.2624
  22387636.465   -10105798.23549  -7664815.05349  22387636.0434   22387640.7684
  21534577.947   -12784884.84949  -9942722.98549  21534576.1944   21534580.3714
 96  7 13  0  9 59.9940000  0  9 17  3 26 23 21 28  1  9 31
  19992794.151   -28803099.21649 -22162369.59549  19992794.5594   19992798.9424
  19657763.912   -26606226.13149 -20122644.65049  19657763.7824   19657768.5684
  23243134.186    -7363371.96449  -5484353.48149  23243135.2174   23243140.6124
  19483647.707   -28613715.63949 -21710679.25149  19483647.3904   19483651.5624
  19163161.392   -31312678.50449 -24371390.98249  19163161.4024   19163166.3334
  19502236.335   -29716931.347 9 -23135901.981 9  19502236.078    19502240.253
  20614294.956   -16842396.35749 -12818884.94949  20614294.2624   20614300.0774
  22377712.898   -10157946.35649  -7705449.90849  22377713.3254   22377718.0264
  21518727.727   -12868170.74149 -10007621.07449  21518727.1674   21518732.0774
 96  7 13  0 10 29.9940000  0  8 17  3 23 21 28  1  9 31
  20003325.591   -28747756.69849 -22119245.57349  20003325.6524   20003330.7634
  19653385.386   -26629233.94349 -20140572.82349  19653385.8304   19653390.4904
  19489452.094   -28583214.44949 -21686912.09549  19489451.6434   19489455.8194
  19155995.646   -31350335.74849 -24400734.27349  19155995.1144   19156000.2764
  19511788.830   -29666731.008 9 -23096784.857 9  19511788.841    19511793.178
  20594345.206   -16947232.66349 -12900575.50849  20594344.9864   20594350.4904
  22367870.634   -10209667.58549  -7745752.13149  22367870.5164   22367875.0884
  21502965.541   -12951005.74249 -10072167.80749  21502964.8454   21502968.6084
 96  7 13  0 10 59.9940000  0  8 17  3 23 21 28  1  9 31
  20013922.613   -28692069.32749 -22075852.83949  20013922.5994   20013928.1024
  19649121.245   -26651641.64149 -20158033.37249  19649121.4704   19649126.2414
  19495296.242   -28552501.29549 -21662979.77149  19495296.3054   19495300.4584
  19148878.374   -31387735.67249 -24429877.05249  19148878.1814   19148882.9734
  19521438.360   -29616024.999 9 -23057273.699 9  19521437.924    19521441.919
  20574449.748   -17051783.21549 -12982043.39949  20574449.5904   20574454.9824
  22358105.240   -10260984.40249  -7785739.22649  22358104.8734   22358110.0234
  21487284.672   -13033405.70349 -10136375.55549  21487285.3734   21487289.1384
 96  7 13  0 11 29.9940000  0  8 17  3 23 21 28  1  9 31
  20024579.796   -28636065.20849 -22032213.28849  20024579.7484   20024585.0744
  19644969.416   -26673461.38049 -20175035.77149  19644969.3304   19644974.4194
  19501175.641   -28521604.95549 -21638904.70549  19501175.5404   19501179.5094
  19141808.803   -31424888.10949 -24458826.99049  19141808.3574   19141813.0734
  19531181.650   -29564823.465 9 -23017376.416 9  19531181.238    19531185.179
  20554610.063   -17156043.05549 -13063284.75849  20554609.9014   20554614.8114
  22348413.652   -10311912.11049  -7825423.12449  22348413.9034   22348419.4894
  21471684.432   -13115388.21049 -10200258.01349  21471683.7614   21471687.5464
 96  7 13  0 11 59.9940000  0  8 17  3 23 21 28  1  9 31
  20035297.273   -28579742.36549 -21988325.38549  20035297.9754   20035302.8324
  19640930.814   -26694681.31949 -20191570.79749  19640931.5434   19640936.1474
  19507092.131   -28490512.83549 -21614677.08049  19507092.3404   19507095.9864
  19134787.849   -31461781.59849 -24487575.15149  19134787.7884   19134792.3284
  19541022.712   -29513107.918 9 -22977078.610 9  19541022.375    19541026.437
  20534832.079   -17259974.41449 -13144270.16349  20534831.7624   20534837.2434
  22338802.442   -10362422.36549  -7864781.72649  22338801.3314   22338807.4364
  21456165.182   -13196937.42349 -10263802.82949  21456165.5894   21456170.3254
 96  7 13  0 12 29.9940000  0  8 17  3 23 21 28  1  9 31
  20046070.272   -28523131.08249 -21944212.72049  20046070.2914   20046075.7284
  19637005.032   -26715308.85749 -20207644.20949  19637006.1824   19637010.9624
  19513041.406   -28459250.06549 -21590316.48849  19513040.8714   19513045.0904
  19127814.757   -31498425.00149 -24516128.42749  19127814.8714   19127819.3664
  19550959.077   -29460891.453 9 -22936390.481 9  19550958.793    19550963.148
  20515115.773   -17363583.23449 -13225004.23549  20515115.5754   20515120.9484
  22329267.817   -10412517.92949  -7903817.20049  22329268.7024   22329274.9594
  21440725.967   -13278076.17249 -10327027.79349  21440725.7004   21440730.0784
 96  7 13  0 12 59.9940000  0  8 17  3 23 21 28  1  9 31
  20056898.804   -28466228.01049 -21899872.69649  20056899.0514   20056903.9424
  19633195.974   -26735329.94149 -20223245.06249  19633196.2664   19633201.0734
  19519024.103   -28427810.94449 -21565818.47549  19519024.0214   19519028.2414
  19120890.895   -31534808.15349 -24544478.92249  19120891.2354   19120896.3814
  19560994.253   -29408156.360 9 -22895298.225 9  19560994.120    19560998.082
  20495467.527   -17466835.90949 -13305460.80249  20495467.2624   20495472.7854
  22319819.887   -10462175.25349  -7942511.18249  22319820.2844   22319824.0344
  21425367.707   -13358778.67749 -10389912.85649  21425368.7234   21425372.9904
 96  7 13  0 13 29.9940000  0  8 17  3 23 21 28  1  9 31
  20067783.614   -28409027.47049 -21855300.87049  20067783.8404   20067788.8094
  19629500.652   -26754747.37849 -20238375.54049  19629501.3784   19629505.9894
  19525042.980   -28396182.89049 -21541173.24249  19525042.6014   19525046.5914
  19114018.601   -31570925.36649 -24572622.19149  19114018.4924   19114023.0264
  19571127.061   -29354910.454 9 -22853807.938 9  19571126.427    19571130.617
  20475884.999   -17569743.23949 -13385648.26349  20475884.7664   20475890.2034
  22310453.296   -10511397.60549  -7980866.23049  22310453.1344   22310457.7454
  21410096.344   -13439038.63849 -10452453.05549  21410096.1794   21410100.0244
 96  7 13  0 13 59.9940000  0  8 17  3 23 21 28  1  9 31
  20078726.174   -28351525.20249 -21810493.93349  20078726.0154   20078731.2564
  19625921.836   -26773556.13949 -20253031.72749  19625922.3304   19625926.8104
  19531098.227   -28364360.53149 -21516376.60049  19531098.1504   19531102.0614
  19107195.763   -31606777.26549 -24600558.72349  19107195.7804   19107200.5964
  19581353.755   -29301167.464 9 -22811930.315 9  19581353.422    19581357.655
  20456363.640   -17672329.17549 -13465585.30149  20456363.2824   20456368.6074
  22301169.221   -10560184.43449  -8018881.90449  22301169.5164   22301174.3394
  21394903.793   -13518865.21249 -10514655.56149  21394905.5074   21394909.7024
 96  7 13  0 14 29.9940000  0  8 17  3 23 21 28  1  9 31
  20089725.543   -28293721.85349 -21765452.38749  20089725.8294   20089730.8854
  19622458.933   -26791750.11849 -20267208.86349  19622459.7804   19622464.6094
  19537190.031   -28332349.36849 -21491432.84249  19537189.5224   19537193.7064
  19100424.466   -31642363.16649 -24628287.97649  19100424.2874   19100428.8424
  19591673.567   -29246936.441 9 -22769672.396 9  19591673.379    19591677.539
  20436898.117   -17774620.19449 -13545292.52549  20436898.0974   20436902.9714
  22291967.575   -10608540.58249  -8056561.99149  22291967.0194   22291972.0814
  21379797.632   -13598254.49949 -10576517.32049  21379797.4264   21379802.2584
 96  7 13  0 14 59.9940000  0  8 17  3 23 21 28  1  9 31
  20100786.860   -28235595.63249 -21720159.25649  20100786.7164   20100791.7434
  19619116.533   -26809318.41349 -20280898.45149  19619116.4784   19619121.1724
  19543321.410   -28300126.32149 -21466323.98149  19543321.4144   19543325.5324
  19093706.551   -31677666.11049 -24655796.74649  19093706.3114   19093710.9074
  19602087.921   -29192208.578 9 -22727027.326 9  19602087.676    19602091.920
  20417490.816   -17876605.58949 -13624761.61749  20417490.6204   20417496.2434
  22282850.954   -10656448.86649  -8093893.08849  22282850.6534   22282855.5484
  21364779.299   -13677175.63949 -10638014.29649  21364778.9034   21364783.9074
 96  7 13  0 15 29.9940000  0  8 17  3 23 21 28  1  9 31
  20111910.651   -28177140.24249 -21674609.63149  20111910.5244   20111915.5454
  19615896.086   -26826240.25949 -20294084.30849  19615896.5284   19615901.2134
  19549495.156   -28267685.40749 -21441045.35149  19549494.8074   19549499.0044
  19087042.423   -31712684.19949 -24683083.56149  19087042.7354   19087047.2654
  19612596.324   -29136988.437 9 -22683998.665 9  19612595.775    19612599.914
  20398141.134   -17978289.65849 -13703995.90349  20398141.1864   20398146.4594
  22273818.639   -10703908.71649  -8130874.75949  22273819.7014   22273824.6114
  21349848.841   -13755634.21249 -10699150.82249  21349847.8214   21349854.5534
 96  7 13  0 15 59.9940000  0  8 17  3 23 21 28  1  9 31
  20123098.050   -28118350.43849 -21628799.41749  20123097.8714   20123103.4674
  19612803.649   -26842492.81049 -20306748.63749  19612803.8074   19612808.3174
  19555713.257   -28235008.81349 -21415583.06949  19555712.8604   19555717.2354
  19080436.165   -31747400.40649 -24710135.12849  19080436.2474   19080440.7304
  19623201.103   -29081259.362 9 -22640573.422 9  19623200.694    19623204.769
  20378854.809   -18079638.76549 -13782969.17849  20378854.8834   20378859.7034
  22264876.758   -10750900.34049  -8167491.57049  22264877.4034   22264882.5154
  21335009.304   -13833619.39549 -10759918.48449  21335009.5454   21335014.3104
 96  7 13  0 16 29.9940000  0  8 17  3 23 21 28  1  9 31
  20134347.683   -28059231.42949 -21582732.69049  20134347.8704   20134353.0914
  19609834.355   -26858096.39649 -20318907.27749  19609834.5914   19609839.1754
  19561975.105   -28202102.50349 -21389941.79549  19561974.7634   19561979.1374
  19073884.977   -31781827.78449 -24736961.65449  19073884.8344   19073889.0894
  19633900.778   -29025031.302 9 -22596759.369 9  19633900.489    19633904.819
  20359632.783   -18180649.86649 -13861679.07249  20359632.9034   20359637.7084
  22256022.123   -10797433.13749  -8203750.85449  22256022.1144   22256026.7104
  21320257.995   -13911132.51249 -10820318.29549  21320258.6684   21320263.1524
 96  7 13  0 16 59.9940000  0  8 17  3 23 21 28  1  9 31
  20145662.675   -27999769.48649 -21536398.73449  20145662.9354   20145668.0504
  19606989.407   -26873045.64849 -20330556.04949  19606990.1394   19606994.6444
  19568282.428   -28168956.75849 -21364113.94649  19568282.0434   19568286.5584
  19067388.479   -31815965.28549 -24763562.29349  19067388.7834   19067393.2844
  19644696.704   -28968298.807 9 -22552552.251 9  19644696.344    19644700.691
  20340480.730   -18281297.28549 -13940105.57249  20340480.7954   20340485.8804
  22247255.557   -10843502.48549  -8239649.01949  22247255.4304   22247259.7284
  21305597.952   -13988173.81049 -10880350.46649  21305598.6434   21305603.2034
 96  7 13  0 17 29.9940000  0  8 17  3 23 21 28  1  9 31
  20157042.972   -27939968.90649 -21489800.91349  20157042.9624   20157048.0494
  19604268.457   -26887345.41349 -20341698.73149  19604268.5384   19604273.3504
  19574633.276   -28135583.49249 -21338108.81449  19574633.0534   19574637.1764
  19060946.229   -31849820.62249 -24789943.06549  19060946.1304   19060950.8064
  19655587.257   -28911067.809 9 -22507956.690 9  19655587.103    19655591.329
  20321396.523   -18381584.68849 -14018251.53849  20321396.4024   20321401.1944
  22238574.378   -10889122.68549  -8275197.18949  22238574.8164   22238578.7364
  21291026.125   -14064751.24949 -10940021.19349  21291025.9224   21291030.6514
 96  7 13  0 17 59.9940000  0  8 17  3 23 21 28  1  9 31
  20168483.647   -27879846.41449 -21442952.24749  20168483.8044   20168488.7434
  19601665.703   -26901020.95749 -20352355.00549  19601666.3734   19601670.8204
  19581023.151   -28102004.82349 -21311943.62649  19581022.9464   19581026.8154
  19054557.597   -31883393.71549 -24816103.90249  19054557.4184   19054561.9704
  19666570.770   -28853348.885 9 -22462980.922 9  19666570.533    19666574.850
  20302376.240   -18481536.26849 -14096135.83049  20302375.8834   20302381.6114
  22229975.337   -10934306.40749  -8310405.25149  22229975.2794   22229980.5794
  21276541.814   -14140870.72349 -10999335.05049  21276541.7334   21276545.8144
 96  7 13  0 18 29.9940000  0  8 17  3 23 21 28  1  9 31
  20179985.647   -27819403.31449 -21395853.75949  20179985.7154   20179991.2234
  19599179.704   -26914086.20749 -20362535.72749  19599180.0104   19599184.7494
  19587444.881   -28068257.37149 -21285646.92049  19587444.8224   19587448.9964
  19048220.212   -31916697.02749 -24842054.53049  19048220.2224   19048224.9934
  19677644.072   -28795158.394 9 -22417637.706 9  19677643.906    19677648.260
  20283413.686   -18581182.61149 -14173782.27649  20283413.9434   20283419.4094
  22221457.493   -10979068.28849  -8345284.61549  22221457.0604   22221462.8424
  21262139.959   -14216545.90049 -11058302.72349  21262139.7914   21262145.3584
 96  7 13  0 18 59.9940000  0  8 17  3 23 21 28  1  9 31
  20191549.546   -27758633.25149 -21348500.49749  20191549.6904   20191555.0314
  19596813.637   -26926520.65149 -20372224.91349  19596813.8144   19596818.7204
  19593901.915   -28034326.87449 -21259207.58349  19593901.6504   19593905.9634
  19041936.383   -31949718.58149 -24867785.60449  19041936.4344   19041941.1984
  19688810.753   -28736477.641 9 -22371912.460 9  19688810.550    19688814.789
  20264513.819   -18680503.44549 -14251175.07849  20264513.5244   20264519.2514
  22213022.804   -11023393.48549  -8379823.69949  22213022.2414   22213028.2474
  21247829.856   -14291745.41049 -11116899.72849  21247830.0024   21247835.3534
 96  7 13  0 19 29.9940000  0  8 17  3 23 21 28  1  9 31
  20203171.914   -27697557.21149 -21300908.79949  20203172.5414   20203177.2244
  19594562.723   -26938349.42849 -20381442.14849  19594562.7364   19594567.4774
  19600390.369   -28000230.39449 -21232638.90549  19600389.8494   19600394.1054
  19035703.609   -31982471.75349 -24893307.54549  19035703.6934   19035708.4374
  19700067.763   -28677323.309 9 -22325818.198 9  19700067.253    19700071.569
  20245670.159   -18779525.64549 -14328335.18149  20245670.2784   20245676.1004
  22204670.451   -11067286.23149  -8414025.80049  22204669.9634   22204675.4834
  21233610.591   -14366471.56249 -11175127.88849  21233610.3924   21233614.1324
 96  7 13  0 19 59.9940000  0  8 17  3 23 21 28  1  9 31
  20214855.316   -27636163.40449 -21253069.49749  20214855.4014   20214860.5854
  19592427.384   -26949568.01449 -20390183.91049  19592428.0164   19592433.0534
  19606912.680   -27965954.34749 -21205930.31049  19606912.3244   19606916.4824
  19029524.676   -32014943.55149 -24918610.22949  19029524.5724   19029528.8674
  19711416.114   -28617687.005 9 -22279348.369 9  19711415.775    19711420.102
  20226887.561   -18878230.44249 -14405247.95649  20226887.2224   20226892.7844
  22196404.580   -11110721.84849  -8447871.70149  22196404.9124   22196410.0134
  21219484.180   -14440709.93349 -11232975.95049  21219483.6554   21219487.2534
 96  7 13  0 20 29.9940000  0  8 17  3 23 21 28  1  9 31
  20226594.488   -27574470.44949 -21204997.08749  20226594.7754   20226600.0854
  19590405.133   -26960199.58949 -20398468.25849  19590405.2504   19590409.5774
  19613469.874   -27931496.74949 -21179080.24349  19613469.6094   19613473.7104
  19023396.218   -32047147.92549 -24943704.53549  19023396.0964   19023400.7574
  19722853.292   -28557583.931 9 -22232514.835 9  19722852.935    19722857.387
  20208168.141   -18976601.61549 -14481900.76549  20208167.9034   20208173.5244
  22188225.021   -11153706.47449  -8481366.16849  22188225.4664   22188229.9524
  21205449.491   -14514459.08349 -11290442.81249  21205449.6884   21205453.5634
 96  7 13  0 20 59.9940000  0  8 17  3 23 21 28  1  9 31
  20238386.440   -27512503.07349 -21156710.84149  20238386.6204   20238392.0664
  19588488.624   -26970267.14149 -20406313.11749  19588489.2234   19588493.8574
  19620062.653   -27896851.91549 -21152084.27749  19620062.1144   19620066.4034
  19017317.606   -32079090.70349 -24968595.00849  19017317.6484   19017322.0424
  19734377.180   -28497025.652 9 -22185326.597 9  19734376.853    19734381.341
  20189513.252   -19074633.52049 -14558289.20649  20189512.9724   20189518.2024
  22180132.303   -11196233.46949  -8514504.05649  22180132.5634   22180137.1694
  21191509.604   -14587713.83149 -11347524.41849  21191509.6864   21191513.2084
 96  7 13  0 21 29.9940000  0  8 17  3 23 21 28  1  9 31
  20250235.025   -27450240.88649 -21108194.87449  20250235.2624   20250240.4364
  19586681.688   -26979765.20949 -20413714.21349  19586681.9464   19586686.5524
  19626691.080   -27862019.01649 -21124941.77149  19626690.6054   19626694.9604
  19011292.163   -32110752.37649 -24993266.44349  19011292.5574   19011297.3334
  19745987.404   -28436013.031 9 -22137784.334 9  19745987.213    19745991.585
  20170923.258   -19172323.89849 -14634411.52649  20170923.0504   20170928.5014
  22172129.797   -11238283.94849  -8547270.63049  22172129.9424   22172135.9514
  21177662.121   -14660480.45949 -11404225.68249  21177663.1414   21177666.8554
 96  7 13  0 21 59.9940000  0  8 17  3 23 21 28  1  9 31
  20262144.050   -27387658.26249 -21059429.21949  20262144.4484   20262149.5824
  19584988.636   -26988659.79149 -20420645.06749  19584989.3984   19584994.2294
  19633361.864   -27826963.74849 -21097625.98849  19633361.7214   19633365.3834
  19005325.034   -32142110.70549 -25017701.49549  19005325.2924   19005329.9374
  19757688.620   -28374523.317 9 -22089870.318 9  19757688.350    19757692.764
  20152405.904   -19269634.08749 -14710237.60049  20152405.2924   20152410.8814
  22164223.431   -11279832.21349  -8579645.87549  22164224.2534   22164228.8384
  21163912.975   -14732734.51549 -11460527.52649  21163912.9854   21163916.9734
 96  7 13  0 22 29.9940000  0  8 17  3 23 21 28  1  9 31
  20274112.408   -27324765.84249 -21010422.17449  20274112.0204   20274117.8304
  19583411.990   -26996948.12949 -20427103.52349  19583412.1574   19583416.8534
  19640070.250   -27791709.19449 -21070154.91649  19640070.2714   19640074.3054
  18999408.914   -32173201.39949 -25041927.99949  18999408.7114   18999413.2014
  19769476.717   -28312576.387 9 -22041600.014 9  19769476.508    19769480.962
  20133955.644   -19366587.83249 -14785785.92049  20133955.6684   20133961.1024
  22156407.733   -11320903.69549  -8611649.59449  22156408.6324   22156413.9544
  21150256.443   -14804498.42549 -11516447.44149  21150256.5404   21150261.1064
 96  7 13  0 22 59.9940000  0  8 17  3 23 21 28  1  9 31
  20286140.371   -27261559.16849 -20961170.24949  20286140.2344   20286146.2564
  19581952.672   -27004613.74549 -20433076.73849  19581953.2204   19581958.3894
  19646813.465   -27756273.68349 -21042542.83949  19646813.1024   19646817.5334
  18993538.492   -32204050.17749 -25065965.99549  18993538.5594   18993543.1244
  19781349.917   -28250182.547 9 -21992981.470 9  19781349.771    19781354.121
  20115570.369   -19463204.44149 -14861071.53749  20115570.1704   20115575.3784
  22148682.987   -11361499.68249  -8643282.80849  22148683.0464   22148687.3104
  21136690.191   -14875792.67549 -11572001.39449  21136690.0204   21136694.5154
 96  7 13  0 23 29.9940000  0  8 17  3 23 21 28  1  9 31
  20298227.826   -27198038.11449 -20911673.34849  20298228.3484   20298233.2274
  19580617.247   -27011632.27149 -20438545.72849  19580617.8084   19580622.7164
  19653589.185   -27720667.97649 -21014798.14449  19653588.7584   19653593.0974
  18987712.910   -32234664.37049 -25089821.20049  18987712.8294   18987717.7284
  19793307.664   -28187344.865 9 -21944017.069 9  19793307.360    19793311.714
  20097250.302   -19559477.48149 -14936089.44049  20097250.0074   20097255.1174
  22141046.852   -11401629.04849  -8674552.40949  22141046.4404   22141051.7644
  21123210.931   -14946623.52349 -11627194.23749  21123211.1584   21123215.5054
 96  7 13  0 23 59.9940000  0  8 17  3 23 21 28  1  9 31
  20310378.496   -27134184.15349 -20861917.04949  20310379.0454   20310384.4254
  19579414.400   -27017953.64649 -20443471.48849  19579415.0254   19579419.5944
  19660402.781   -27684861.64849 -20986897.11549  19660402.5844   19660406.9394
  18981936.446   -32265019.36349 -25113474.43549  18981936.2164   18981941.0034
  19805356.497   -28124029.164 9 -21894680.194 9  19805355.918    19805360.211
  20079004.877   -19655359.49049 -15010802.64349  20079003.9874   20079009.2824
  22133504.603   -11441262.24549  -8705435.39149  22133504.7154   22133509.3144
  21109828.609   -15016951.78749 -11681995.46549  21109828.2784   21109833.0054
 96  7 13  0 24 29.9940000  0  8 17  3 23 21 28  1  9 31
  20322587.865   -27070026.55549 -20811924.14849  20322587.9794   20322592.9954
  19578339.227   -27023605.55249 -20447875.57449  19578339.3624   19578343.9034
  19667246.627   -27648898.65649 -20958874.01249  19667246.0164   19667250.5844
  18976207.260   -32295124.88749 -25136933.27949  18976207.5544   18976212.0624
  19817490.652   -28060262.888 9 -21844992.224 9  19817490.264    19817494.524
  20060829.994   -19750866.38349 -15085223.55149  20060829.9104   20060835.0774
  22126054.228   -11480415.83649  -8735944.65349  22126053.6064   22126058.3084
  21096537.199   -15086799.41849 -11736422.17049  21096536.3394   21096541.5384
 96  7 13  0 24 59.9940000  0  8 17  3 23 21 28  1  9 31
  20334853.702   -27005567.33349 -20761696.21449  20334854.1174   20334859.4374
  19577389.256   -27028596.78549 -20451764.85949  19577389.4494   19577394.1944
  19674120.781   -27612773.01449 -20930724.17049  19674120.6664   19674124.9414
  18970531.525   -32324952.60449 -25160175.64849  18970531.3204   18970536.0134
  19829711.476   -27996041.878 9 -21794949.913 9  19829711.129    19829715.575
  20042732.134   -19845972.07849 -15159331.83749  20042731.8134   20042737.1864
  22118697.584   -11519073.22349  -8766067.27649  22118698.2674   22118702.6724
  21083340.086   -15156149.33949 -11790461.05849  21083339.2794   21083344.2354
 96  7 13  0 25 29.9940000  0  8 17  3 23 21 28  1  9 31
  20347176.986   -26940809.70949 -20711235.74949  20347177.3404   20347182.5414
  19576562.138   -27032942.53249 -20455151.17149  19576562.5824   19576567.4184
  19681026.529   -27576483.21249 -20902446.40849  19681026.3534   19681030.7674
  18964910.870   -32354488.22849 -25183190.41349  18964911.0294   18964915.8994
  19842018.517   -27931368.367 9 -21744555.001 9  19842018.138    19842022.518
  20024710.902   -19940674.74149 -15233126.06849  20024710.5684   20024715.5794
  22111433.744   -11557243.23449  -8795810.11549  22111434.2514   22111439.6404
  21070238.029   -15224996.43849 -11844108.12349  21070237.9434   21070242.8354
 96  7 13  0 25 59.9940000  0  8 17  3 23 21 28  1  9 31
  20359560.796   -26875731.49749 -20660525.50549  20359560.3164   20359566.3564
  19575853.903   -27036664.90649 -20458051.73449  19575854.4814   19575859.0004
  19687967.651   -27540008.01549 -20874024.18349  19687967.5304   19687971.3174
  18959347.071   -32383727.81349 -25205974.50349  18959347.0544   18959351.6814
  19854412.197   -27866239.173 9 -21693805.015 9  19854411.796    19854416.295
  20006766.625   -20034972.42749 -15306604.72749  20006766.0674   20006771.6234
  22104265.067   -11594917.19549  -8825166.42749  22104264.8354   22104269.7924
  21057234.717   -15293333.33149 -11897357.62449  21057234.6864   21057239.0794
 96  7 13  0 26 29.9940000  0  8 17  3 23 21 28  1  9 31
  20372004.028   -26810339.23149 -20609570.53349  20372004.9884   20372009.7564
  19575255.496   -27039810.98349 -20460503.23849  19575255.7414   19575260.6944
  19694943.685   -27503348.86749 -20845458.62249  19694943.3514   19694947.5724
  18953837.189   -32412682.30149 -25228536.43749  18953837.2124   18953841.9834
  19866888.195   -27800675.352 9 -21642716.355 9  19866888.093    19866892.695
  19988892.937   -20128898.21449 -15379793.60049  19988892.6794   19988898.3254
  22097186.324   -11632114.48749  -8854151.30349  22097186.4704   22097190.7574
  21044324.184   -15361175.41149 -11950221.57049  21044324.3804   21044329.5914
 96  7 13  0 26 59.9940000  0  8 17  3 23 21 28  1  9 31
  20384508.842   -26744628.64949 -20558367.51849  20384509.6784   20384513.5154
  19574766.534   -27042379.85749 -20462504.97149  19574766.7854   19574771.7284
  19701958.704   -27466486.05249 -20816734.35349  19701958.2254   19701962.3904
  18948379.258   -32441363.33749 -25250885.28249  18948379.2444   18948383.9214
  19879447.221   -27734677.362 9 -21591289.380 9  19879447.213    19879451.591
  19971086.910   -20222468.21149 -15452705.23649  19971086.9124   19971092.2744
  22090198.110   -11668841.12649  -8882769.43949  22090197.9454   22090202.6934
  21031510.265   -15428516.79149 -12002695.35949  21031509.8854   21031514.3464
 96  7 13  0 27 29.9940000  0  8 17  3 23 21 28  1  9 31
  20397074.819   -26678593.87849 -20506911.89649  20397075.0524   20397080.2354
  19574390.744   -27044351.88449 -20464041.63049  19574391.6504   19574396.1884
  19709019.236   -27429381.73149 -20787821.89749  19709018.6134   19709023.3404
  18942976.280   -32469755.39949 -25273008.94549  18942976.4344   18942981.0934
  19892092.548   -27668226.392 9 -21539509.429 9  19892092.358    19892096.909
  19953349.758   -20315677.87249 -15525336.09249  19953349.3594   19953354.9714
  22083302.258   -11705076.42349  -8911004.70549  22083302.4624   22083306.5424
  21018794.720   -15495336.74349 -12054762.84549  21018794.1184   21018799.5424
 96  7 13  0 27 59.9940000  0  8 17  3 23 21 28  1  9 31
  20409695.395   -26612273.04949 -20455233.36749  20409695.4904   20409700.6614
  19574124.793   -27045751.35249 -20465132.13549  19574125.4544   19574129.9634
  19716122.656   -27392052.90949 -20758734.50849  19716122.0584   19716126.3274
  18937624.687   -32497879.66249 -25294923.95149  18937624.2634   18937629.0484
  19904819.565   -27601345.651 9 -21487394.591 9  19904819.359    19904823.752
  19935677.866   -20408544.85149 -15597699.92749  19935677.7754   19935682.9804
  22076498.292   -11740835.76949  -8938869.10349  22076497.4744   22076502.1934
  21006175.494   -15561648.45649 -12106434.29049  21006175.9594   21006180.1644
 96  7 13  0 28 29.9940000  0  8 17  3 23 21 28  1  9 31
  20422366.815   -26545685.80049 -20403347.24049  20422366.8454   20422372.0014
  19573973.540   -27046545.80749 -20465751.20249  19573974.2234   19573979.1514
  19723265.786   -27354515.39949 -20729484.50849  19723265.4524   19723269.2094
  18932323.994   -32525734.59949 -25316629.09249  18932323.9584   18932328.3504
  19917628.973   -27534031.899 9 -21434942.356 9  19917628.787    19917633.154
  19918073.252   -20501057.77549 -15669787.86749  19918072.7154   19918078.1854
  22069783.055   -11776122.79649  -8966365.45449  22069783.1584   22069788.1564
  20993655.518   -15627439.72649 -12157700.19949  20993655.3264   20993660.9074
 96  7 13  0 28 59.9940000  0  8 17  3 23 21 28  1  9 31
  20435088.219   -26478833.43349 -20351254.52449  20435088.4424   20435093.8514
  19573944.213   -27046698.94049 -20465870.53649  19573944.9354   19573949.5594
  19730446.027   -27316782.23049 -20700082.04349  19730445.8124   19730450.0964
  18927076.811   -32553311.11149 -25338117.27649  18927076.4214   18927081.0324
  19930522.367   -27466276.208 9 -21382145.749 9  19930522.275    19930526.629
  19900542.800   -20593179.01149 -15741570.59849  19900542.7774   19900547.9804
  22063159.659   -11810928.12649  -8993486.46249  22063159.3854   22063164.2534
  20981237.995   -15692696.75349 -12208549.81849  20981237.5964   20981243.3634
 96  7 13  0 29 29.9940000  0  8 17  3 23 21 28  1  9 31
  20447861.141   -26411712.20749 -20298952.30049  20447861.3374   20447866.3074
  19574037.381   -27046210.10249 -20465489.63249  19574038.0524   19574042.7044
  19737660.522   -27278869.21449 -20670539.44249  19737660.2414   19737664.5264
  18921881.336   -32580609.28349 -25359388.57049  18921881.6164   18921886.4004
  19943499.939   -27398081.786 9 -21329007.275 9  19943499.374    19943503.603
  19883091.213   -20684888.94249 -15813032.83549  19883091.2344   19883096.0544
  22056628.993   -11845249.72149  -9020230.52749  22056628.8084   22056633.8114
  20968921.007   -15757423.54649 -12258986.27249  20968920.1614   20968926.1704
 96  7 13  0 29 59.9940000  0  8 17  3 23 21 28  1  9 31
  20460688.404   -26344301.15149 -20246424.23149  20460689.4474   20460693.9004
  19574253.971   -27045073.57349 -20464604.03649  19574254.3514   19574258.8994
  19744902.627   -27240810.96249 -20640883.66849  19744902.6834   19744906.7094
  18916738.563   -32607635.86849 -25380448.24549  18916738.6614   18916743.3684
  19956558.814   -27329456.563 9 -21275533.108 9  19956558.415    19956562.369
  19865719.140   -20776179.75949 -15884168.48949  19865718.8524   19865723.9364
  22050189.048   -11879087.69849  -9046597.75549  22050189.6254   22050193.4194
  20956705.821   -15821615.18049 -12309005.72149  20956706.1744   20956710.1334
 96  7 13  0 30 29.9940000  0  8 17  3 23 21 28  1  9 31
  20473574.783   -26276583.83449 -20193657.53049  20473575.2394   20473580.7784
  19574594.482   -27043282.66649 -20463208.53249  19574595.0984   19574599.8904
  19752170.057   -27202621.94549 -20611126.00149  19752169.9274   19752173.7654
  18911646.076   -32634398.09749 -25401301.93149  18911645.9294   18911650.6834
  19969696.967   -27260413.510 9 -21221733.353 9  19969696.801    19969700.791
  19848425.656   -20867057.46249 -15954982.23849  19848425.6344   19848430.7074
  22043841.393   -11912447.42849  -9072592.32349  22043841.3264   22043845.4704
  20944591.170   -15885277.13849 -12358612.42749  20944590.9704   20944595.2544
 96  7 13  0 30 59.9940000  0  8 17  3 23 21 28  1  9 31
  20486527.533   -26208518.77649 -20140619.84449  20486527.9304   20486533.1734
  19575058.375   -27040844.62749 -20461308.76449  19575058.9844   19575063.6904
  19759466.774   -27164277.32049 -20581247.07649  19759466.5844   19759470.7724
  18906607.407   -32660873.66949 -25421932.24549  18906607.6794   18906612.4004
  19982917.188   -27190940.012 9 -21167598.183 9  19982917.000    19982921.161
  19831211.495   -20957517.56349 -16025470.58449  19831211.5374   19831216.3684
  22037590.801   -11945291.06749  -9098184.76249  22037590.3044   22037596.6404
  20932578.431   -15948401.49649 -12407800.23049  20932579.1994   20932583.5064
 96  7 13  0 31 29.9940000  0  8 17  3 23 21 28  1  9 31
  20499544.338   -26140117.57349 -20087320.24249  20499544.0684   20499549.2434
  19575638.782   -27037794.24249 -20458931.85049  19575639.1874   19575644.0994
  19766792.479   -27125778.95049 -20551248.34849  19766792.2624   19766796.6274
  18901619.263   -32687088.27649 -25442359.20949  18901619.1494   18901623.5994
  19996215.858   -27121055.348 9 -21113142.631 9  19996215.679    19996219.810
  19814069.413   -21047601.14149 -16095665.53349  19814068.8864   19814074.3954
  22031440.369   -11977614.90949  -9123372.13549  22031439.9434   22031444.8104
  20920666.948   -16011000.64949 -12456578.78549  20920667.2904   20920671.3214
 96  7 13  0 31 59.9940000  0  8 17  3 23 21 28  1  9 31
  20512632.340   -26071337.49949 -20033725.41149  20512632.3254   20512637.7164
  19576344.989   -27034083.29049 -20456040.21049  19576345.4854   19576350.3984
  19774156.564   -27087080.83549 -20521093.98249  19774156.5544   19774160.7144
  18896687.385   -32713006.27349 -25462555.04749  18896687.0234   18896691.9424
  20009600.431   -27050718.939 9 -21058335.071 9  20009600.258    20009604.305
  19797004.729   -21137274.13649 -16165540.55449  19797004.6544   19797009.7914
  22025397.286   -12009368.13049  -9148114.89649  22025396.7994   22025402.7404
  20908862.760   -16073030.01449 -12504913.34849  20908863.0524   20908867.4174
 96  7 13  0 32 29.9940000  0  8 17  3 23 21 28  1  9 31
  20525784.497   -26002221.61449 -19979868.90749  20525784.8434   20525789.9864
  19577168.861   -27029754.26049 -20452666.95149  19577169.5574   19577174.4154
  19781555.003   -27048200.58649 -20490797.69649  19781555.0874   19781559.3414
  18891805.290   -32738660.81449 -25482545.59049  18891805.2244   18891809.9934
  20023065.138   -26979961.913 9 -21003199.760 9  20023064.716    20023069.163
  19780012.463   -21226569.84949 -16235121.58849  19780012.3994   19780017.4234
  22019456.730   -12040585.57849  -9172440.15549  22019457.0184   22019461.4954
  20897157.459   -16134541.04649 -12552844.01449  20897158.0824   20897162.8024
 96  7 13  0 32 59.9940000  0  8 17  3 23 21 28  1  9 31
  20538991.017   -25932819.95949 -19925789.72549  20538991.6964   20538996.8584
  19578103.206   -27024843.92149 -20448840.72149  19578104.0364   19578108.4014
  19788983.553   -27009166.00449 -20460381.15049  19788983.4764   19788987.3964
  18886969.159   -32764075.11349 -25502348.93349  18886968.8734   18886973.9644
  20036604.322   -26908810.339 9 -20947757.012 9  20036604.322    20036608.826
  19763087.826   -21315509.40549 -16304425.10149  19763087.4764   19763092.5374
  22013613.900   -12071288.84049  -9196364.75949  22013614.2484   22013620.3144
  20885546.293   -16195559.81049 -12600391.09049  20885546.1824   20885550.8464
 96  7 13  0 33 29.9940000  0  8 17  3 23 21 28  1  9 31
  20552250.613   -25863141.45849 -19871494.82049  20552250.8074   20552256.0564
  19579154.097   -27019321.44649 -20444537.49549  19579154.6204   19579159.7744
  19796442.296   -26969970.50349 -20429839.21249  19796442.1584   19796445.9444
  18882181.218   -32789235.53349 -25521954.45249  18882181.3604   18882186.1684
  20050221.267   -26837255.681 9 -20892000.170 9  20050220.840    20050225.298
  19746237.184   -21404060.86249 -16373426.20249  19746236.7964   19746242.0244
  22007869.264   -12101481.23949  -9219891.27949  22007869.6834   22007873.7724
  20874034.561   -16256055.23949 -12647530.37649  20874034.7364   20874039.0084
 96  7 13  0 33 59.9940000  0  8 17  3 23 21 28  1  9 31
  20565562.499   -25793185.14849 -19816983.44149  20565562.8514   20565568.7504
  19580323.638   -27013177.22349 -20439749.79349  19580324.0504   19580328.4024
  19803930.335   -26930619.94849 -20399176.44549  19803930.3334   19803934.4324
  18877444.789   -32814128.93449 -25541351.89849  18877444.4644   18877448.9114
  20063913.719   -26765301.260 9 -20835931.826 9  20063913.482    20063917.904
  19729464.692   -21492200.73149 -16442106.57649  19729464.2674   19729469.5884
  22002219.168   -12131169.67349  -9243025.11049  22002219.7514   22002223.7324
  20862622.303   -16316027.55849 -12694262.04749  20862622.0524   20862627.7664
 96  7 13  0 34 29.9940000  0  8 17  3 23 21 28  1  9 31
  20578929.799   -25722939.28749 -19762246.44649  20578930.5834   20578935.5074
  19581614.191   -27006395.97549 -20434465.71649  19581614.1614   19581618.8094
  19811454.095   -26891081.91149 -20368367.59349  19811453.8794   19811457.9314
  18872764.995   -32838719.08449 -25560513.04549  18872764.9314   18872769.5414
  20077685.334   -26692930.888 9 -20779539.368 9  20077685.093    20077689.489
  19712775.744   -21579902.08249 -16510445.24849  19712775.2594   19712780.5314
  21996669.060   -12160337.20949  -9265753.03249  21996668.1844   21996673.6544
  20851315.105   -16375448.89049 -12740564.37549  20851314.3254   20851318.9394
 96  7 13  0 34 59.9940000  0  8 17  3 23 21 28  1  9 31
  20592352.907   -25652405.57449 -19707285.15749  20592353.0234   20592357.9004
  19583024.384   -26998982.13749 -20428688.71249  19583025.1354   19583029.7074
  19819013.707   -26851354.80449 -20337411.40949  19819013.3954   19819017.8294
  18868142.675   -32863009.54649 -25579440.66949  18868142.5894   18868147.0304
  20091534.016   -26620155.089 9 -20722830.997 9  20091533.763    20091538.375
  19696169.841   -21667164.48449 -16578441.88649  19696170.0384   19696174.9214
  21991217.813   -12188983.90349  -9288075.12049  21991217.7174   21991221.0974
  20840115.770   -16434301.82549 -12786423.79049  20840114.2124   20840119.6234
 96  7 13  0 35 29.9940000  0  8 17  3 23 21 28  1  9 31
  20605832.162   -25581570.62949 -19652089.14449  20605832.4254   20605837.9024
  19584553.348   -26990949.57249 -20422429.58649  19584553.6734   19584558.7584
  19826609.568   -26811440.82949 -20306309.62449  19826609.2244   19826613.3464
  18863574.381   -32887014.68049 -25598145.96749  18863574.3774   18863579.1104
  20105457.532   -26546984.890 9 -20665815.304 9  20105457.642    20105462.273
  19679645.784   -21754000.17949 -16646106.03249  19679645.7154   19679650.3974
  21985865.653   -12217111.14749  -9309992.42949  21985865.0264   21985869.5774
  20829020.451   -16492608.00149 -12831857.16849  20829019.9574   20829024.6554
 96  7 13  0 35 59.9940000  0  8 17  3 23 21 28  1  9 31
  20619369.968   -25510428.26049 -19596653.57649  20619370.7564   20619375.7764
  19586196.222   -26982315.48249 -20415701.74349  19586196.8224   19586201.3594
  19834242.384   -26771329.39149 -20275053.96349  19834242.1344   19834246.3834
  18859060.328   -32910736.73649 -25616630.68549  18859060.6154   18859065.2454
  20119455.929   -26473422.554 9 -20608494.049 9  20119455.987    20119460.661
  19663200.964   -21840417.72949 -16713444.34249  19663200.9224   19663205.8484
  21980610.932   -12244718.34849  -9331504.51749  21980612.5254   21980616.2574
  20818023.444   -16550393.21449 -12876884.60249  20818023.2574   20818028.4954
 96  7 13  0 36 29.9940000  0  8 17  3 23 21 28  1  9 31
  20632967.995   -25438970.84649 -19540972.51749  20632968.1844   20632973.4474
  19587953.575   -26973081.11549 -20408506.14649  19587954.0974   19587958.8294
  19841914.966   -26731008.50149 -20243635.09849  19841915.2434   19841919.1354
  18854600.446   -32934172.96149 -25634892.67649  18854600.5794   18854605.2664
  20133531.394   -26399458.518 9 -20550859.769 9  20133531.028    20133535.749
  19646835.183   -21926418.86349 -16780458.16549  19646835.2674   19646840.6524
  21975456.549   -12271807.91849  -9352613.23849  21975456.6194   21975461.9284
  20807129.105   -16607643.49249 -12921495.19149  20807128.6514   20807133.6504
 96  7 13  0 36 59.9940000  0  8 17  3 23 21 28  1  9 31
  20646627.701   -25367188.25549 -19485038.06949  20646627.9234   20646633.2034
  19589823.783   -26963252.52849 -20400847.52249  19589824.6824   19589828.9794
  19849625.523   -26690490.53849 -20212062.67449  19849624.9804   19849629.7054
  18850194.514   -32957327.58349 -25652935.23349  18850194.3534   18850198.9324
  20147682.928   -26325092.096 9 -20492911.938 9  20147682.671    20147687.424
  19630549.237   -22012001.32249 -16847145.75649  19630549.7264   19630554.2884
  21970400.681   -12298377.06649  -9373316.44949  21970400.2924   21970405.6874
  20796337.490   -16664357.74949 -12965688.11249  20796336.5624   20796341.3154
 96  7 13  0 37 29.9940000  0  8 17  3 23 21 28  1  9 31
  20660345.126   -25295102.43649 -19428867.33749  20660345.0754   20660350.2524
  19591805.160   -26952841.31749 -20392734.90949  19591805.7434   19591810.1534
  19857368.004   -26649803.53049 -20180358.52549  19857367.5664   19857371.9544
  18845838.577   -32980216.81949 -25670770.99249  18845838.7484   18845843.5294
  20161907.281   -26250341.540 9 -20434664.779 9  20161907.277    20161911.898
  19614340.445   -22097179.36549 -16913518.21449  19614340.7124   19614345.3684
  21965440.608   -12324443.34149  -9393627.80649  21965440.6314   21965444.0084
  20785644.671   -16720548.84049 -13009473.36949  20785643.9334   20785648.7094
 96  7 13  0 37 59.9940000  0  8 17  3 23 21 28  1  9 31
  20674119.590   -25222713.53049 -19372460.44949  20674120.9404   20674125.9874
  19593899.203   -26941837.53049 -20384160.54349  19593899.5484   19593904.1924
  19865143.890   -26608942.78449 -20148518.98649  19865143.1124   19865147.3994
  18841534.411   -33002834.93349 -25688395.48749  18841534.3444   18841539.3194
  20176205.674   -26175204.769 9 -20376116.679 9  20176205.485    20176210.179
  19598212.379   -22181933.11049 -16979560.05649  19598212.4034   19598216.9474
  21960575.697   -12350004.45549  -9413545.52149  21960577.0594   21960581.7224
  20775056.805   -16776182.65049 -13052824.37249  20775056.7984   20775062.1404
 96  7 13  0 38 29.9940000  0  8 17  3 23 21 28  1  9 31
  20687957.167   -25150000.24549 -19315800.80049  20687957.4334   20687962.5384
  19596109.222   -26930222.29049 -20375109.72549  19596109.7864   19596114.8204
  19872952.009   -26567908.95949 -20116544.59249  19872951.6914   19872955.7504
  18837283.765   -33025172.16849 -25705801.12049  18837284.0324   18837288.4254
  20190579.294   -26099672.179 9 -20317260.153 9  20190578.750    20190583.639
  19582167.880   -22266247.28049 -17045259.37849  19582167.9354   19582172.7794
  21955816.412   -12375029.70049  -9433045.69349  21955814.0614   21955819.5834
  20764584.039   -16831216.78949 -13095708.12149  20764584.1664   20764589.1574
 96  7 13  0 38 59.9940000  0  8 17  3 23 21 28  1  9 31
  20701850.093   -25076993.22049 -19258912.25349  20701850.3914   20701855.7444
  19598431.228   -26918017.90349 -20365599.83249  19598432.1264   19598437.0414
  19880786.144   -26526739.04749 -20084464.15149  19880786.4454   19880790.0724
  18833081.388   -33047256.73449 -25723009.87249  18833081.2394   18833086.3404
  20205020.979   -26023778.486 9 -20258122.249 9  20205020.823    20205025.787
  19566203.154   -22350142.37549 -17110632.14149  19566203.0694   19566208.1224
  21951150.188   -12399534.55849  -9452140.35849  21951151.2614   21951157.0354
  20754220.304   -16885682.77249 -13138149.12949  20754219.8074   20754224.8674
 96  7 13  0 39 29.9940000  0  8 17  3 23 21 28  1  9 31
  20715799.575   -25003686.85849 -19201790.46049  20715799.9444   20715805.4754
  19600870.603   -26905201.13749 -20355612.75649  19600870.9474   19600876.0534
  19888647.893   -26485425.60949 -20052271.87449  19888647.8024   19888651.8384
  18828927.260   -33069085.87249 -25740019.59249  18828927.1454   18828932.2764
  20219533.128   -25947516.918 9 -20198697.695 9  20219533.104    20219537.809
  19550318.254   -22433616.34149 -17175676.75149  19550318.5884   19550323.3444
  21946588.872   -12423505.88949  -9470819.30749  21946589.3084   21946594.2474
  20743964.348   -16939572.08949 -13180140.79549  20743964.9224   20743970.0164
 96  7 13  0 39 59.9940000  0  8 17  3 23 21 28  1  9 31
  20729811.919   -24930053.92049 -19144414.20349  20729812.1534   20729817.2994
  19603430.155   -26891749.56549 -20345131.02149  19603430.8554   19603435.1874
  19896540.892   -26443947.07149 -20019950.93949  19896540.9844   19896545.2994
  18824827.280   -33090632.46749 -25756809.13849  18824827.2634   18824832.3194
  20234119.901   -25870863.495 9 -20138967.796 9  20234119.768    20234124.565
  19534517.851   -22516648.94249 -17240377.44149  19534517.8644   19534522.9024
  21942134.774   -12446916.27349  -9489061.13449  21942134.0784   21942139.2214
  20733822.560   -16992871.87649 -13221673.09749  20733823.0574   20733827.4844
 96  7 13  0 40 29.9940000  0  8 17  3 23 21 28  1  9 31
  20743873.574   -24856157.13649 -19086832.34549  20743874.3074   20743878.7904
  19606103.040   -26877703.89449 -20334186.35649  19606103.8544   19606108.5294
  19904455.423   -26402356.71049 -19987542.88249  19904455.4154   19904459.4724
  18820772.777   -33111938.06549 -25773410.89349  18820772.9874   18820777.7564
  20248772.586   -25793862.396 9 -20078966.983 9  20248772.458    20248777.224
  19518791.154   -22599293.09849 -17304775.44449  19518791.0074   19518796.1624
  21937776.870   -12469815.04449  -9506904.30849  21937776.4684   21937782.2294
  20723778.992   -17045649.80449 -13262798.74749  20723780.0684   20723784.2594
 96  7 13  0 40 59.9940000  0  8 17  3 23 21 28  1  9 31
  20757985.066   -24781999.69049 -19029047.37049  20757986.1394   20757990.9154
  19608893.929   -26863036.33949 -20322757.10649  19608894.9984   19608899.2394
  19912395.660   -26360630.44149 -19955028.91949  19912395.7324   19912400.2484
  18816768.959   -33132977.73749 -25789805.43849  18816769.1524   18816774.0764
  20263494.774   -25716498.312 9 -20018683.321 9  20263494.477    20263499.194
  19503141.719   -22681529.93549 -17368856.05649  19503141.9884   19503146.6794
  21933518.925   -12492185.91849  -9524336.13749  21933519.6984   21933524.6314
  20713834.938   -17097909.27849 -13303520.40849  20713834.5544   20713839.5164
 96  7 13  0 41 29.9940000  0  8 17  3 23 21 28  1  9 31
  20772148.555   -24707570.04449 -18971050.29949  20772148.6374   20772154.6444
  19611805.945   -26847735.93749 -20310834.72949  19611806.3964   19611811.1734
  19920365.012   -26318750.89349 -19922395.51249  19920364.7744   19920369.0094
  18812818.548   -33153736.08049 -25805980.75849  18812818.9974   18812823.9514
  20278287.093   -25638761.401 9 -19958109.143 9  20278287.232    20278291.805
  19487573.501   -22763342.06049 -17432605.72749  19487573.8914   19487578.3854
  21929366.069   -12514014.81449  -9541345.65049  21929365.4744   21929370.8494
  20703991.406   -17149637.41049 -13343828.04649  20703990.3884   20703995.7754
 96  7 13  0 41 59.9940000  0  8 17  3 23 21 28  1  9 31
  20786361.562   -24632879.73949 -18912850.10649  20786361.8964   20786367.5104
  19614834.750   -26831818.52049 -20298431.56249  19614835.3554   19614840.1534
  19928365.811   -26276706.68249 -19889633.80149  19928365.7664   19928370.3104
  18808923.090   -33174209.46549 -25821934.02649  18808923.4674   18808927.7244
  20293149.964   -25560657.760 9 -19897249.201 9  20293150.013    20293154.381
  19472089.609   -22844710.53649 -17496009.69849  19472089.7894   19472094.4334
  21925313.665   -12535307.99949  -9557937.72749  21925313.7814   21925318.7194
  20694246.840   -17200841.43249 -13383727.27449  20694247.7724   20694252.2484
 96  7 13  0 42 29.9940000  0  8 17  3 23 21 28  1  9 31
  20800627.179   -24557915.48849 -18854436.45349  20800627.4944   20800633.0354
  19617983.359   -26815273.40349 -20285539.28049  19617983.5184   19617988.4544
  19936403.321   -26234468.53049 -19856720.97549  19936403.3714   19936407.4114
  18805083.021   -33194387.58549 -25837657.22549  18805083.3434   18805087.8784
  20308083.712   -25482181.953 9 -19836099.257 9  20308083.432    20308087.911
  19456693.984   -22925616.39649 -17559053.18749  19456693.6624   19456698.3804
  21921366.608   -12556049.15749  -9574099.67349  21921367.8024   21921372.0144
  20684607.953   -17251496.30049 -13423198.59249  20684607.7604   20684612.8054
 96  7 13  0 42 59.9940000  0  8 17  3 23 21 28  1  9 31
  20814947.406   -24482662.99549 -18795798.19249  20814948.2774   20814953.7054
  19621248.627   -26798111.80549 -20272166.62449  19621249.6264   19621254.0174
  19944478.984   -26192029.01349 -19823651.22949  19944479.4804   19944483.5544
  18801297.246   -33214280.74749 -25853158.38449  18801297.6804   18801302.3064
  20323085.319   -25403346.495 9 -19774669.071 9  20323085.357    20323089.942
  19441385.254   -23006062.33649 -17621738.30049  19441385.4794   19441389.9394
  21917525.165   -12576239.09049  -9589832.09849  21917524.6914   21917529.5224
  20675077.029   -17301577.08749 -13462222.57749  20675078.1784   20675083.0004
 96  7 13  0 43 29.9940000  0  8 17  3 23 21 28  1  9 31
  20829327.506   -24407095.78249 -18736914.69449  20829328.2294   20829333.3664
  19624631.444   -26780336.47749 -20258315.74149  19624631.9944   19624636.7394
  19952596.892   -26149371.14049 -19790411.33949  19952596.4724   19952601.0774
  18797567.529   -33233880.72449 -25868431.10049  18797568.0824   18797572.6584
  20338158.454   -25324136.883 9 -19712947.337 9  20338158.428    20338162.782
  19426168.078   -23086029.24249 -17684050.13949  19426168.1994   19426173.0274
  21913788.485   -12595879.55049  -9605136.35749  21913788.2934   21913792.7804
  20665663.524   -17351050.54849 -13500773.32049  20665663.4184   20665668.9124
 96  7 13  0 43 59.9940000  0  8 17  3 23 21 28  1  9 31
  20843762.360   -24331237.86549 -18677804.68549  20843762.9544   20843768.8044
  19628125.817   -26761975.08949 -20244008.18649  19628126.3754   19628131.0544
  19960752.903   -26106511.60049 -19757014.30849  19960752.6484   19960757.2064
  18793889.602   -33253208.03849 -25883491.35449  18793890.0004   18793894.6204
  20353298.749   -25244573.001 9 -19650949.539 9  20353298.966    20353303.617
  19411038.680   -23165534.52249 -17746002.26649  19411038.9344   19411043.7744
  21910150.565   -12614986.74849  -9620025.07249  21910152.5604   21910156.1314
  20656364.486   -17399921.37849 -13538854.48149  20656363.5204   20656369.2024
 96  7 13  0 44 29.9940000  0  8 17  3 23 21 28  1  9 31
  20858251.270   -24255098.97849 -18618475.73249  20858251.6434   20858257.5664
  19631729.474   -26743035.77149 -20229250.29749  19631730.3184   19631735.0094
  19968940.757   -26063483.36049 -19723485.82449  19968940.9464   19968945.3244
  18790260.716   -33272277.47949 -25898350.66149  18790261.0684   18790265.7634
  20368503.393   -25164674.066 9 -19588690.670 9  20368503.406    20368507.917
  19395991.645   -23244608.02549 -17807617.95049  19395991.4994   19395996.4534
  21906614.722   -12633573.92749  -9634508.56249  21906614.6404   21906618.8224
  20647179.096   -17448185.40449 -13576462.81349  20647179.5744   20647184.4664
 96  7 13  0 44 59.9940000  0  8 17  3 23 21 28  1  9 31
  20872795.955   -24178666.30249 -18558917.86049  20872796.3084   20872801.6654
  19635446.842   -26723499.09849 -20214026.92949  19635448.1134   19635452.4224
  19977162.954   -26020273.00049 -19689815.42849  19977163.2124   19977167.8274
  18786684.739   -33291068.32249 -25912992.87449  18786685.1694   18786690.1254
  20383775.293   -25084417.230 9 -19526152.914 9  20383775.612    20383780.104
  19381030.570   -23323227.46249 -17868879.81249  19381031.0344   19381035.2554
  21903179.340   -12651624.83949  -9648574.18749  21903179.8564   21903184.5664
  20638112.126   -17495832.49549 -13613590.41349  20638112.4414   20638117.4834
 96  7 13  0 45 29.9940000  0  8 17  3 23 21 28  1  9 31
  20887397.932   -24101931.64849 -18499124.68349  20887398.7494   20887404.1204
  19639280.646   -26703354.66649 -20198329.98149  19639281.3634   19639285.7324
  19985420.199   -25976881.79949 -19656004.10849  19985420.3244   19985425.2214
  18783167.205   -33309554.89749 -25927397.99149  18783167.3624   18783171.9394
  20399118.167   -25003792.260 9 -19463328.304 9  20399118.083    20399122.713
  19366160.330   -23401371.50149 -17929771.23249  19366160.5624   19366165.2004
  21899848.998   -12669122.98549  -9662209.11349  21899849.8054   21899854.1194
  20629161.209   -17542872.71549 -13650245.12949  20629161.2824   20629165.9224
 96  7 13  0 45 59.9940000  0  8 17  3 23 21 28  1  9 31
  20902054.164   -24024913.22549 -18439110.38749  20902054.3024   20902061.1044
  19643227.347   -26682614.92749 -20182169.15949  19643228.0764   19643233.0444
  19993707.734   -25933333.46449 -19622070.35349  19993707.4294   19993712.3454
  18779703.281   -33327756.84349 -25941581.31949  18779703.8874   18779708.5044
  20414524.942   -24922826.935 9 -19400238.484 9  20414525.203    20414529.926
  19351376.367   -23479064.02749 -17990310.82649  19351376.2144   19351380.7234
  21896624.824   -12686069.63349  -9675414.27549  21896626.4144   21896630.1964
  20620318.950   -17589336.78749 -13686450.89449  20620319.1204   20620323.7924
 96  7 13  0 46 29.9940000  0  8 17  3 23 21 28  1  9 31
  20916770.064   -23947582.49049 -18378852.73849  20916770.9344   20916776.4514
  19647294.088   -26661242.41749 -20165515.27149  19647295.0224   19647299.9054
  20002028.246   -25889607.04349 -19587997.83249  20002028.2394   20002032.4424
  18776295.373   -33345667.69949 -25955537.83049  18776295.5924   18776299.9014
  20430000.604   -24841503.465 9 -19336869.587 9  20430000.527    20430005.303
  19336679.041   -23556295.53249 -18050491.18549  19336679.5204   19336684.0824
  21893508.827   -12702446.47949  -9688175.45649  21893507.9184   21893512.9804
  20611587.166   -17635222.59449 -13722206.07149  20611587.4654   20611592.7244
 96  7 13  0 46 59.9940000  0  8 17  3 23 21 28  1  9 31
  20931543.603   -23869944.49849 -18318355.65849  20931544.2604   20931550.4794
  19651477.495   -26639257.20049 -20148383.95349  19651478.9304   19651483.5104
  20010380.388   -25845714.84849 -19553796.14149  20010380.8334   20010385.0524
  18772939.886   -33363299.82249 -25969277.14949  18772940.2764   18772944.6014
  20445541.105   -24759836.739 9 -19273233.214 9  20445541.263    20445546.066
  19322068.168   -23633076.30949 -18110320.33449  19322068.7584   19322073.1384
  21890499.211   -12718258.39649  -9700496.42049  21890499.2184   21890504.9144
  20602960.752   -17680553.13249 -13757528.56049  20602961.2114   20602965.7234
 96  7 13  0 47 29.9940000  0  8 17  3 23 21 28  1  9 31
  20946379.266   -23791983.71049 -18257607.05549  20946379.9524   20946385.9264
  19655779.605   -26616652.68649 -20130770.06749  19655780.1614   19655785.0414
  20018764.994   -25801653.25749 -19519462.44849  20018765.0034   20018769.8124
  18769639.318   -33380644.80149 -25982792.70949  18769639.4774   18769643.9854
  20461148.886   -24677819.322 9 -19209323.575 9  20461148.730    20461153.614
  19307545.223   -23709393.98049 -18169788.62149  19307545.6344   19307550.0014
  21887600.562   -12733487.12949  -9712362.97349  21887601.5864   21887606.3474
  20594445.095   -17725304.39549 -13792399.67049  20594444.6744   20594450.1804
 96  7 13  0 47 59.9940000  0  8 17  3 23 21 28  1  9 31
  20961274.065   -23713711.52749 -18196615.81549  20961274.8874   20961280.2504
  19660200.088   -26593423.02049 -20112669.05249  19660200.8394   19660205.7414
  20027182.730   -25757417.79349 -19484993.27349  20027183.4364   20027187.4274
  18766391.310   -33397712.32249 -25996092.07349  18766391.8244   18766396.4634
  20476823.727   -24595446.426 9 -19145136.931 9  20476823.930    20476828.722
  19293111.079   -23785248.91149 -18228896.32649  19293110.7544   19293115.6114
  21884814.863   -12748130.05449  -9723773.02349  21884814.8404   21884819.9424
  20586041.162   -17769468.39149 -13826813.16749  20586041.3444   20586046.0704
 96  7 13  0 48 29.9940000  0  8 17  3 23 21 28  1  9 31
  20976220.571   -23635168.53449 -18135413.53249  20976221.2454   20976227.5394
  19664730.882   -26569612.03149 -20094115.05649  19664731.8714   19664736.6544
  20035624.906   -25713055.85249 -19450425.54249  20035625.4184   20035629.0994
  18763191.282   -33414528.83649 -26009195.84849  18763191.9564   18763196.1134
  20492559.679   -24512753.186 9 -19080700.671 9  20492559.952    20492564.729
  19278760.787   -23860657.68749 -18287656.38349  19278761.0914   19278765.8044
  21882130.984   -12762230.25349  -9734760.18549  21882131.4964   21882136.1524
  20577742.030   -17813076.57049 -13860793.55849  20577742.7984   20577747.5924
 96  7 13  0 48 59.9940000  0  8 17  3 23 21 28  1  9 31
  20991221.960   -23556336.24649 -18073985.83349  20991222.5144   20991228.3944
  19669373.867   -26545212.78349 -20075102.67649  19669374.9954   19669379.3914
  20044094.559   -25668545.83749 -19415742.43849  20044094.9874   20044099.3334
  18760048.924   -33431042.30749 -26022063.49049  18760049.1724   18760053.9764
  20508361.029   -24429717.618 9 -19015997.675 9  20508361.070    20508365.811
  19264505.621   -23935568.78249 -18346028.63649  19264505.9964   19264510.5164
  21879557.524   -12775755.12349  -9745299.04149  21879558.0904   21879562.0964
  20569557.349   -17856090.32449 -13894310.76349  20569557.9974   20569561.7354
 96  7 13  0 49 29.9940000  0  8 17  3 23 21 28  1  9 31
  21006274.294   -23477238.22149 -18012351.08049  21006274.0704   21006279.6914
  19674127.034   -26520235.48549 -20055639.87049  19674127.9614   19674132.5574
  20052591.982   -25623892.63549 -19380947.74949  20052592.1894   20052596.3224
  18756959.735   -33447276.40049 -26034713.42949  18756960.0274   18756964.4864
  20524223.631   -24346357.938 9 -18951042.124 9  20524223.810    20524228.990
  19250346.457   -24009976.05849 -18404008.29549  19250346.7834   19250351.4314
  21877090.203   -12788722.32249  -9755403.32949  21877090.8484   21877094.8644
  20561482.900   -17898525.02949 -13927376.75849  20561483.0164   20561486.9684
 96  7 13  0 49 59.9940000  0  8 17  3 23 21 28  1  9 31
  21021377.535   -23397865.17949 -17950502.01549  21021378.9404   21021384.5234
  19678992.599   -26494664.82349 -20035714.70549  19678993.8624   19678998.6684
  20061117.793   -25579088.67849 -19346035.59749  20061118.1474   20061122.7254
  18753925.210   -33463221.27049 -26047137.99849  18753925.9054   18753930.5554
  20540148.536   -24262674.387 9 -18885834.212 9  20540148.373    20540153.277
  19236285.899   -24083864.39149 -18461583.59649  19236285.9854   19236290.7444
  21874728.693   -12801129.65349  -9765071.36749  21874729.0444   21874734.3964
  20553517.105   -17940376.55849 -13959988.32849  20553518.6744   20553523.3154
 96  7 13  0 50 29.9940000  0  8 17  3 23 21 28  1  9 31
  21036538.209   -23318196.56349 -17888422.63149  21036539.5564   21036545.1434
  19683971.260   -26468504.79649 -20015330.29749  19683972.0804   19683976.4184
  20069673.747   -25534127.07149 -19311000.59549  20069674.2634   20069678.2164
  18750946.575   -33478874.19349 -26059335.07849  18750947.2144   18750952.0554
  20556133.236   -24178671.630 9 -18820377.565 9  20556133.588    20556138.426
  19222323.676   -24157236.78949 -18518756.86349  19222323.9194   19222328.6984
  21872474.788   -12812974.29149  -9774300.94649  21872475.8714   21872480.8314
  20545668.175   -17981626.18549 -13992130.88549  20545668.9754   20545673.9134
 96  7 13  0 50 59.9940000  0  8 17  3 23 21 28  1  9 31
  21051757.422   -23238220.81949 -17826103.92949  21051757.8494   21051764.2914
  19689063.683   -26441744.45749 -19994478.11449  19689064.5034   19689069.3064
  20078264.615   -25488981.52449 -19275822.26449  20078265.2434   20078269.3794
  18748023.650   -33494234.57149 -26071304.20549  18748024.3294   18748028.9694
  20572181.256   -24094339.624 9 -18754664.370 9  20572181.422    20572186.559
  19208457.421   -24230105.02149 -18575537.27749  19208457.8144   19208462.4884
  21870331.425   -12824240.68749  -9783079.94849  21870332.2134   21870337.0644
  20537938.571   -18022251.20049 -14023786.72849  20537938.2524   20537943.0364
 96  7 13  0 51 29.9940000  0  8 17  3 23 21 28  1  9 31
  21067031.932   -23157951.50749 -17763556.48449  21067032.3224   21067039.3544
  19694267.424   -26414396.33249 -19973167.91249  19694268.5014   19694273.1634
  20086887.030   -25443670.81149 -19240515.23449  20086887.1004   20086891.8894
  18745149.865   -33509336.06149 -26083071.60049  18745150.5334   18745155.0304
  20588288.447   -24009693.191 9 -18688706.169 9  20588289.062    20588294.249
  19194679.440   -24302506.54049 -18631954.01449  19194680.1384   19194684.3854
  21868294.669   -12834944.85049  -9791420.84549  21868295.5844   21868298.7424
  20530322.945   -18062268.81949 -14054969.27349  20530323.2584   20530327.5004
 96  7 13  0 51 59.9940000  0  8 17  3 23 21 28  1  9 31
  21082363.510   -23077380.14749 -17700773.66649  21082365.2714   21082371.0674
  19699582.056   -26386471.15249 -19951408.05649  19699582.4494   19699587.2194
  20095539.951   -25398199.00649 -19205082.67549  20095540.7604   20095544.7144
  18742329.090   -33524160.82449 -26094623.36149  18742329.3754   18742333.9704
  20604457.370   -23924725.685 9 -18622497.783 9  20604458.002    20604463.061
  19180989.573   -24374448.94849 -18688013.00649  19180989.8364   19180994.3824
  21866366.762   -12845076.52649  -9799315.65049  21866367.9074   21866370.6954
  20522825.469   -18101666.97649 -14085669.13349  20522825.9394   20522830.5474
 96  7 13  0 52 29.9940000  0  8 17  3 23 21 28  1  9 31
  21097749.889   -22996529.22849 -17637773.01649  21097750.1694   21097756.0054
  19704999.710   -26357999.96849 -19929222.74649  19705000.5294   19705005.3154
  20104220.811   -25352584.10049 -19169538.61449  20104220.5174   20104224.9744
  18739557.544   -33538722.82649 -26105970.37349  18739558.1734   18739563.0474
  20620684.612   -23839453.628 9 -18556052.079 9  20620684.687    20620689.600
  19167380.623   -24445964.06049 -18743739.04549  19167380.9714   19167385.3554
  21864545.109   -12854643.26449  -9806770.24049  21864546.4164   21864550.9954
  20515443.484   -18140461.96649 -14115898.99049  20515443.8184   20515448.5444
 96  7 13  0 52 59.9940000  0  8 17  3 23 21 28  1  9 31
  21113182.597   -22915421.56849 -17574572.29949  21113184.5414   21113190.8494
  19710518.316   -26328996.29949 -19906622.51349  19710519.5204   19710524.2844
  20112926.915   -25306834.04949 -19133889.23949  20112926.3804   20112930.9494
  18736835.407   -33553027.29949 -26117116.71049  18736836.3634   18736840.9894
  20636966.960   -23753888.420 9 -18489377.942 9  20636967.211    20636972.268
  19153854.489   -24517043.20249 -18799125.36349  19153854.9084   19153859.5614
  21862833.271   -12863654.60049  -9813792.05249  21862831.7334   21862835.6744
  20508170.978   -18178677.59649 -14145677.40249  20508170.7944   20508175.7914
 96  7 13  0 53 29.9940000  0  8 17  3 23 21 28  1  9 31
  21128666.894   -22834058.43849 -17511172.52149  21128667.8294   21128674.1084
  19716142.832   -26299441.13049 -19883592.54349  19716143.8734   19716149.0284
  20121659.236   -25260943.85149 -19098130.66649  20121659.5104   20121663.3664
  18734164.337   -33567065.68349 -26128055.70749  18734164.7194   18734169.5714
  20653305.456   -23668030.553 9 -18422475.760 9  20653305.473    20653310.625
  19140415.901   -24587664.89349 -18854155.22749  19140416.2404   19140420.6734
  21861221.632   -12872106.86549  -9820378.21349  21861223.1964   21861227.3284
  20501009.900   -18216310.58249 -14175001.80349  20501010.1374   20501014.8634
 96  7 13  0 53 59.9940000  0  8 17  3 23 21 28  1  9 31
  21144198.596   -22752437.53049 -17447571.87949  21144199.2634   21144205.7464
  19721875.712   -26269312.54649 -19860115.75349  19721877.1854   19721882.2544
  20130421.661   -25214897.27149 -19062250.23449  20130421.6354   20130425.6214
  18731549.298   -33580809.07849 -26138764.84749  18731549.7974   18731554.3944
  20669699.637   -23581876.608 9 -18355342.865 9  20669700.005    20669705.179
  19127067.810   -24657808.01049 -18908812.17949  19127068.2004   19127073.0284
  21859721.371   -12879995.69349  -9826525.35349  21859721.3734   21859726.5234
  20493961.818   -18253348.27849 -14203862.34549  20493961.7384   20493967.1224
 96  7 13  0 54 29.9940000  0  8 17  3 23 21 28  1  9 31
  21159778.361   -22670569.78849 -17383778.90149  21159778.7634   21159784.8934
  19727720.745   -26238598.53249 -19836182.78249  19727722.0224   19727727.1274
  20139216.083   -25168681.65149 -19026238.08149  20139216.0744   20139220.2804
  18728987.348   -33594270.67749 -26149254.40649  18728987.7464   18728992.5754
  20686148.787   -23495437.846 9 -18287988.032 9  20686148.791    20686153.870
  19113810.905   -24727473.74249 -18963097.13949  19113811.1854   19113815.9504
  21858325.872   -12887328.41149  -9832239.14749  21858326.1534   21858331.1544
  20487026.742   -18289788.26649 -14232257.13749  20487027.4084   20487031.8934
 96  7 13  0 54 59.9940000  0  8 17  3 23 21 28  1  9 31
  21175406.053   -22588442.70249 -17319783.83349  21175406.6154   21175413.1684
  19733681.610   -26207273.34049 -19811773.57149  19733682.6504   19733687.6704
  20148047.514   -25122272.51849 -18990075.14349  20148047.2394   20148051.8004
  18726481.810   -33607437.88749 -26159514.56949  18726482.2604   18726486.5014
  20702653.466   -23408705.704 9 -18220404.591 9  20702653.462    20702658.382
  19100650.104   -24796633.75549 -19016988.02749  19100650.5754   19100655.1144
  21857035.406   -12894105.98349  -9837520.37449  21857036.4264   21857040.9444
  20480208.487   -18325620.42049 -14260178.29749  20480208.9454   20480213.5164
 96  7 13  0 55 29.9940000  0  8 17  3 23 21 28  1  9 31
  21191086.677   -22506039.74149 -17255573.80649  21191087.3674   21191093.9314
  19739760.924   -26175328.34849 -19786881.39449  19739761.4444   19739766.5804
  20156916.126   -25075666.64449 -18953758.91149  20156916.4654   20156920.6974
  18724034.889   -33620295.77449 -26169533.70549  18724035.4414   18724040.2654
  20719215.063   -23321674.980 9 -18152588.487 9  20719214.760    20719219.718
  19087585.674   -24865289.26149 -19070485.79549  19087585.8944   19087590.6274
  21855853.619   -12900320.17849  -9842362.59649  21855853.7544   21855859.8174
  20473506.648   -18360835.59749 -14287618.70049  20473507.6034   20473512.1994
 96  7 13  0 55 59.9940000  0  8 17  3 23 21 28  1  9 31
  21206819.195   -22423364.29449 -17191151.42449  21206820.2224   21206826.1474
  19745952.104   -26142794.49949 -19761530.36749  19745952.6294   19745957.8404
  20165820.471   -25028876.18049 -18917298.82849  20165820.3514   20165824.9234
  18721645.278   -33632854.35849 -26179319.61349  18721645.6774   18721650.2214
  20735830.995   -23234353.354 9 -18084545.707 9  20735831.511    20735836.730
  19074616.534   -24933441.60349 -19123591.48749  19074616.9344   19074621.8434
  21854777.158   -12905980.06549  -9846772.88649  21854777.0084   21854781.5064
  20466922.560   -18395435.11849 -14314579.37349  20466923.5844   20466928.3454
 96  7 13  0 56 29.9930000  0  8 17  3 23 21 28  1  9 31
  21222604.037   -22340418.96049 -17126518.76549  21222604.2184   21222611.0244
  19752250.482   -26109694.14649 -19735737.90749  19752251.5384   19752256.5844
  20174758.880   -24981903.80349 -18880696.99949  20174759.1084   20174763.6364
  18719307.650   -33645135.85849 -26188889.60949  18719308.4194   18719313.0444
  20752502.120   -23146746.291 9 -18016280.505 9  20752502.646    20752507.881
  19061743.213   -25001091.62449 -19176305.76249  19061743.6404   19061748.1064
  21853806.094   -12911082.54549  -9850748.83149  21853806.0264   21853811.6864
  20460457.281   -18429423.92049 -14341064.15849  20460455.8154   20460460.6804
 96  7 13  0 56 59.9930000  0  8 17  3 23 21 28  1  9 31
  21238441.026   -22257195.90049 -17061669.69449  21238441.7054   21238447.3114
  19758656.299   -26076031.49949 -19709507.29949  19758657.2754   19758662.3464
  20183728.233   -24934768.78449 -18843968.43149  20183728.3374   20183733.0304
  18717023.751   -33657138.89149 -26198242.61949  18717024.2644   18717028.9834
  20769227.527   -23058852.763 9 -17947792.094 9  20769228.272    20769233.305
  19048964.383   -25068243.67649 -19228632.00849  19048964.8954   19048969.6074
  21852941.294   -12915624.11149  -9854287.71749  21852941.3764   21852946.6734
  20454100.333   -18462820.84749 -14367087.73949  20454100.2174   20454105.5204
 96  7 13  0 57 29.9930000  0  8 17  3 23 21 28  1  9 31
  21254326.476   -22173717.12849 -16996621.37049  21254327.6524   21254333.3504
  19765164.247   -26041832.19149 -19682858.50549  19765165.2504   19765170.2064
  20192722.629   -24887502.76849 -18807137.78549  20192722.5594   20192727.4804
  18714788.893   -33668885.23649 -26207395.61449  18714789.4864   18714793.9074
  20786004.698   -22970691.668 9 -17879095.196 9  20786004.749    20786009.987
  19036278.080   -25134909.71649 -19280579.54949  19036278.6574   19036283.3034
  21852182.643   -12919608.14449  -9857392.14549  21852184.2804   21852188.7914
  20447857.103   -18495625.77749 -14392650.03249  20447857.4174   20447862.3684
 96  7 13  0 57 59.9930000  0  8 17  3 23 21 28  1  9 31
  21270258.165   -22089993.32649 -16931382.11149  21270259.2634   21270264.8374
  19771774.279   -26007095.42049 -19655790.91249  19771775.4704   19771780.3634
  20201741.557   -24840106.85849 -18770205.92749  20201741.8764   20201746.6454
  18712598.421   -33680396.02349 -26216365.06249  18712598.8064   18712603.1334
  20802830.519   -22882269.260 9 -17810194.686 9  20802831.054    20802836.412
  19023681.938   -25201102.38749 -19332158.22749  19023682.7204   19023687.6114
  21851531.331   -12923035.46149  -9860062.77449  21851531.5454   21851536.5544
  20441729.984   -18527831.38349 -14417745.30849  20441729.1144   20441734.6154
 96  7 13  0 58 29.9930000  0  8 17  3 23 21 28  1  9 31
  21286237.554   -22006022.06249 -16865950.03149  21286238.1044   21286243.9344
  19778489.263   -25971809.51949 -19628295.42649  19778489.9984   19778495.0644
  20210782.301   -24792596.43549 -18733184.83749  20210782.5484   20210787.6074
  18710451.322   -33691677.10849 -26225155.51649  18710451.9214   18710456.6584
  20819704.301   -22793597.832 9 -17741100.141 9  20819704.565    20819709.989
  19011173.460   -25266837.66349 -19383380.49449  19011173.6774   19011178.3314
  21850984.047   -12925908.73149  -9862301.66649  21850984.8724   21850989.8444
  20435709.832   -18559460.77449 -14442391.58649  20435710.7294   20435715.8114
 96  7 13  0 58 59.9930000  0  8 17  3 23 21 28  1  9 31
  21302271.557   -21921764.83949 -16800295.11149  21302272.2384   21302278.5094
  19785313.966   -25935943.87349 -19600348.19849  19785315.3014   19785320.2164
  20219847.258   -24744959.71349 -18696065.34149  20219847.6544   20219852.0624
  18708355.591   -33702693.28949 -26233739.54949  18708355.9494   18708360.3734
  20836629.600   -22704653.440 9 -17671792.890 9  20836630.320    20836635.574
  18998757.663   -25332080.58049 -19434219.10849  18998758.1854   18998762.9174
  21850547.525   -12928201.66349  -9864088.36849  21850548.0984   21850553.4574
  20429807.856   -18590480.18149 -14466562.56149  20429807.7834   20429812.5254
 96  7 13  0 59 29.9930000  0  8 17  3 23 21 28  1  9 31
  21318357.421   -21837231.15049 -16734424.76349  21318357.3554   21318364.2544
  19792244.299   -25899526.88249 -19571971.34549  19792245.1184   19792250.2714
  20228937.955   -24697189.06249 -18658841.47249  20228938.3304   20228942.8204
  18706306.508   -33713460.59549 -26242129.65949  18706306.9274   18706311.2974
  20853604.635   -22615452.439 9 -17602285.696 9  20853605.076    20853609.982
  18986433.233   -25396846.72949 -19484686.20949  18986433.7744   18986438.3104
  21850218.920   -12929931.03349  -9865435.91949  21850219.2974   21850224.3384
  20424021.526   -18620893.67349 -14490261.39249  20424020.4244   20424025.0444
 96  7 13  0 59 59.9930000  0  8 17  3 23 21 28  1  9 31
  21334497.184   -21752417.27649 -16668336.10449  21334498.1384   21334503.0484
  19799278.862   -25862560.75049 -19543166.59249  19799279.4374   19799284.2974
  20238053.600   -24649285.25549 -18621513.85249  20238054.1444   20238058.9894
  18704304.948   -33723979.08249 -26250325.88149  18704305.3544   18704309.8684
  20870627.212   -22525999.972 9 -17532582.540 9  20870627.296    20870632.490
  18974198.916   -25461139.87349 -19534784.73949  18974198.8754   18974203.6374
  21849997.546   -12931095.04649  -9866342.92749  21849997.8404   21850002.4544
  20418344.499   -18650721.52149 -14513503.87849  20418344.1134   20418349.1124
 96  7 13  1  0 29.9930000  0  8 17  3 23 21 28  1  9 31
  21350689.123   -21667327.00349 -16602032.06649  21350689.6794   21350696.8414
  19806416.137   -25825053.92749 -19513940.51249  19806416.7544   19806421.8684
  20247195.984   -24601243.47249 -18584078.71549  20247196.1124   20247200.9234
  18702352.897   -33734235.71749 -26258318.07249  18702353.5974   18702357.8914
  20887697.011   -22436294.813 9 -17462682.479 9  20887697.432    20887702.892
  18962057.837   -25524939.28649 -19584498.54349  18962058.3434   18962063.1244
  21849885.000   -12931685.32349  -9866802.89049  21849885.4474   21849890.3084
  20412777.123   -18679975.10649 -14536298.88549  20412777.5284   20412782.6574
 96  7 13  1  0 59.9930000  0  8 17  3 23 21 28  1  9 31
  21366932.776   -21581969.94049 -16535520.14149  21366932.4434   21366939.4554
  19813653.251   -25787019.98849 -19484303.69849  19813654.5214   19813659.6724
  20256368.803   -24553039.78749 -18546517.42949  20256369.2924   20256373.7444
  18700452.146   -33744225.20549 -26266102.09449  18700452.5144   18700457.1734
  20904816.031   -22346335.954 9 -17392584.716 9  20904816.337    20904821.286
  18950011.551   -25588241.97349 -19633825.29349  18950012.1324   18950017.0194
  21849881.898   -12931700.34049  -9866814.57849  21849883.0394   21849888.4524
  20407323.283   -18708636.32849 -14558632.31449  20407323.1234   20407328.5724
 96  7 13  1  1 29.9930000  0  8 17  3 23 21 28  1  9 31
  21383222.947   -21496361.05749 -16468811.98949  21383223.9714   21383230.0764
  19820993.758   -25748443.71849 -19454244.28649  19820995.0094   19821000.4814
  20265576.349   -24504655.04949 -18508815.04949  20265576.7744   20265580.9474
  18698602.978   -33753940.82449 -26273672.70949  18698603.6324   18698608.1764
  20921983.383   -22256121.283 9 -17322287.629 9  20921983.478    20921988.665
  18938059.273   -25651052.50849 -19682768.54149  18938059.5994   18938064.3504
  21849988.120   -12931140.17849  -9866378.09349  21849989.0384   21849993.5434
  20401982.790   -18736690.22349 -14580492.50549  20401984.8494   20401989.8414
 96  7 13  1  1 59.9930000  0  8 17  3 23 21 28  1  9 31
  21399559.922   -21410512.19049 -16401916.83049  21399560.5924   21399566.0534
  19828439.060   -25709319.92749 -19423758.23149  19828440.3024   19828445.5714
  20274813.847   -24456109.74749 -18470987.55649  20274814.1094   20274818.7554
  18696808.270   -33763373.10049 -26281022.53649  18696808.9744   18696813.3364
  20939198.611   -22165654.473 9 -17251794.079 9  20939198.890    20939203.960
  18926200.985   -25713368.37949 -19731326.33949  18926201.6184   18926206.1114
  21850203.494   -12930013.36249  -9865500.05249  21850203.8394   21850208.2414
  20396762.510   -18764131.14949 -14601875.05449  20396762.9894   20396768.2214
 96  7 13  1  2 29.9930000  0  8 17  3 23 21 28  1  9 31
  21415943.466   -21324417.70149 -16334830.29549  21415943.6344   21415949.5434
  19835989.860   -25669642.04049 -19392840.42049  19835990.7184   19835996.0484
  20284085.674   -24407386.45149 -18433021.37149  20284086.0894   20284090.7274
  18695070.654   -33772505.70949 -26288138.85849  18695071.0444   18695075.1454
  20956462.349   -22074931.622 9 -17181101.010 9  20956462.931    20956468.280
  18914439.115   -25775175.59549 -19779487.78249  18914439.9484   18914444.5394
  21850525.389   -12928320.09049  -9864180.60649  21850525.5474   21850530.1354
  20391662.800   -18790933.73649 -14622760.20149  20391662.7504   20391667.8924
 96  7 13  1  2 59.9930000  0  8 17  3 23 21 28  1  9 31
  21432371.418   -21238085.16749 -16267558.26149  21432372.4464   21432378.2434
  19843644.079   -25629419.78449 -19361498.42749  19843644.6624   19843650.0894
  20293385.551   -24358515.39349 -18394940.04649  20293386.1014   20293390.5194
  18693386.702   -33781353.36049 -26295033.13049  18693387.2054   18693391.5484
  20973770.896   -21983976.891 9 -17110227.264 9  20973771.126    20973776.227
  18902770.471   -25836495.92749 -19827269.83549  18902770.8244   18902775.6424
  21850950.273   -12926085.10449  -9862439.04649  21850951.1394   21850955.5214
  20386683.639   -18817098.94249 -14643148.68949  20386683.8854   20386688.4334
 96  7 13  1  3 29.9930000  0  8 17  3 23 21 28  1  9 31
  21448847.821   -21151502.29749 -16200091.16149  21448848.5544   21448854.5324
  19851405.987   -25588630.24949 -19329714.40649  19851407.0234   19851412.2994
  20302712.617   -24309501.34149 -18356747.30149  20302713.2294   20302717.7324
  18691760.234   -33789900.13449 -26301692.95649  18691760.9794   18691765.4904
  20991125.419   -21892777.464 9 -17039162.840 9  20991125.723    20991131.342
  18891200.579   -25897294.30649 -19874645.17049  18891201.1044   18891206.0944
  21851483.593   -12923286.41349  -9860258.24849  21851483.6194   21851489.0474
  20381827.285   -18842616.39649 -14663032.43149  20381828.0124   20381832.8414
 96  7 13  1  3 59.9930000  0  8 17  3 23 21 28  1  9 31
  21465374.555   -21064653.52449 -16132416.86249  21465375.6754   21465381.5164
  19859272.886   -25547288.51849 -19297500.10449  19859273.7184   19859279.1244
  20312064.700   -24260355.98849 -18318452.23449  20312065.1404   20312069.6034
  18690190.576   -33798148.64149 -26308120.36349  18690191.3384   18690195.6694
  21008526.454   -21801336.486 9 -16967910.201 9  21008526.468    21008531.750
  18879733.081   -25957557.80449 -19921603.72249  18879733.5984   18879738.2074
  21852127.560   -12919899.17049  -9857618.82349  21852127.1774   21852132.4634
  20377092.466   -18867504.74049 -14682425.95849  20377091.5994   20377096.6924
 96  7 13  1  4 29.9930000  0  8 17  3 23 21 28  1  9 31
  21481954.626   -20977526.99749 -16064526.13649  21481955.1534   21481961.6944
  19867247.022   -25505382.11649 -19264845.79449  19867248.7024   19867253.6074
  20321442.820   -24211074.00649 -18280050.70949  20321443.4964   20321447.8354
  18688676.379   -33806106.23349 -26314321.08449  18688676.8334   18688681.3724
  21025974.194   -21709648.939 9 -16896465.428 9  21025974.187    21025979.521
  18868367.886   -26017281.40749 -19968141.57349  18868368.2934   18868373.0714
  21852887.418   -12915905.19349  -9854506.63449  21852888.2864   21852892.8454
  20372474.024   -18891768.89349 -14701333.10049  20372474.1934   20372479.0964
 96  7 13  1  4 59.9930000  0  8 17  3 23 21 28  1  9 31
  21498583.313   -20890140.72949 -15996433.01849  21498584.4284   21498590.7604
  19875325.499   -25462930.78049 -19231766.85849  19875326.6714   19875331.8674
  20330841.698   -24161680.94649 -18241562.62549  20330842.1614   20330847.1194
  18687214.927   -33813788.85849 -26320307.54549  18687215.1034   18687219.3034
  21043465.664   -21617730.723 9 -16824840.903 9  21043465.547    21043470.886
  18857101.629   -26076487.41949 -20014276.11149  18857101.9934   18857106.4514
  21853762.906   -12911307.24949  -9850923.82049  21853763.2974   21853767.4194
  20367970.505   -18915438.67249 -14719777.09549  20367970.1404   20367974.4564
 96  7 13  1  5 29.9930000  0  8 17  3 23 21 28  1  9 31
  21515264.572   -20802482.23449 -15928127.78449  21515265.9514   21515271.2834
  19883506.192   -25419943.43949 -19198270.25549  19883506.9384   19883512.1084
  20340266.478   -24112153.74749 -18202970.01749  20340267.1044   20340271.7534
  18685806.277   -33821188.73849 -26326073.68649  18685806.9794   18685811.1064
  21061003.061   -21525569.989 9 -16753027.409 9  21061003.258    21061008.874
  18845935.368   -26135167.21449 -20060000.61049  18845935.6364   18845940.2944
  21854755.918   -12906087.16749  -9846856.21049  21854757.1624   21854761.3334
  20363578.760   -18938514.03349 -14737757.91249  20363579.1954   20363583.6764
 96  7 13  1  5 59.9930000  0  8 17  3 23 21 28  1  9 31
  21531994.209   -20714564.04249 -15859620.19349  21531995.1374   21532001.8604
  19891783.697   -25376442.38349 -19164373.35949  19891784.8174   19891790.0374
  20349715.684   -24062497.45149 -18164276.81449  20349716.0444   20349720.8724
  18684448.671   -33828322.16149 -26331632.20149  18684449.3744   18684454.0354
  21078583.320   -21433183.663 9 -16681038.125 9  21078583.809    21078589.296
  18834862.254   -26193355.50149 -20105342.11249  18834862.8414   18834867.3764
  21855863.431   -12900267.19249  -9842321.15149  21855864.7824   21855869.3924
  20359296.948   -18961016.31049 -14755292.15949  20359296.9824   20359302.0084
 96  7 13  1  6 29.9930000  0  8 17  3 23 21 28  1  9 31
  21548768.060   -20626419.13349 -15790935.91449  21548768.8024   21548775.9564
  19900156.661   -25332442.50749 -19130087.77149  19900158.0874   19900163.2164
  20359189.368   -24012716.48249 -18125486.46849  20359189.4604   20359193.6294
  18683139.567   -33835201.68249 -26336992.86749  18683140.1594   18683144.9114
  21096202.943   -21340593.110 9 -16608889.711 9  21096203.173    21096208.815
  18823879.120   -26251073.31549 -20150317.01649  18823879.5624   18823884.0434
  21857076.347   -12893892.58649  -9837353.92049  21857077.0844   21857081.9694
  20355123.738   -18982945.99549 -14772380.23449  20355123.8114   20355128.5424
 96  7 13  1  6 59.9930000  0  8 17  3 23 21 28  1  9 31
  21565590.709   -20538017.50049 -15722051.61249  21565592.7784   21565597.9594
  19908628.055   -25287928.09049 -19095401.24749  19908628.7134   19908634.0384
  20368695.894   -23962757.20049 -18086557.17249  20368696.3264   20368700.5804
  18681886.269   -33841788.38049 -26342125.36249  18681886.7444   18681891.5624
  21113865.604   -21247770.909 9 -16536560.789 9  21113866.875    21113872.074
  18812993.743   -26308276.51849 -20194890.92049  18812993.8854   18812998.5764
  21858400.019   -12886935.77949  -9831933.02849  21858401.3164   21858406.0874
  20351067.922   -19004259.91649 -14788988.49049  20351068.3634   20351073.1724
 96  7 13  1  7 29.9930000  0  8 17  3 23 21 28  1  9 31
  21582459.201   -20449370.67049 -15652976.24749  21582459.6184   21582466.5894
  19917195.549   -25242902.85849 -19060316.68349  19917196.9114   19917201.6824
  20378237.858   -23912615.16349 -18047485.46849  20378237.9524   20378242.1384
  18680687.095   -33848089.54649 -26347035.36749  18680687.6644   18680692.6294
  21131571.470   -21154725.240 9 -16464057.743 9  21131572.818    21131578.136
  18802205.543   -26364965.83449 -20239064.39149  18802206.1924   18802210.7144
  21859831.277   -12879418.23549  -9826075.19349  21859831.6434   21859835.8514
  20347130.072   -19024947.79049 -14805108.90949  20347131.3054   20347136.1404
 96  7 13  1  7 59.9930000  0  8 17  3 23 21 28  1  9 31
  21599369.664   -20360506.58449 -15583731.58649  21599369.8324   21599377.5004
  19925863.126   -25197356.82849 -19024826.30249  19925864.0384   19925868.7374
  20387811.929   -23862303.14349 -18008281.30849  20387812.1654   20387816.4484
  18679541.133   -33854112.53849 -26351728.60849  18679541.5494   18679546.2364
  21149318.401   -21061471.494 9 -16391392.550 9  21149318.576    21149323.696
  18791515.077   -26421146.27349 -20282841.33249  18791515.5454   18791520.0964
  21861365.807   -12871356.17749  -9819793.06049  21861364.8614   21861370.0274
  20343314.305   -19045010.56749 -14820742.24749  20343313.8114   20343318.2044
 96  7 13  1  8 29.9930000  0  8 17  3 23 21 28  1  9 31
  21616326.344   -20271400.71649 -15514298.53049  21616327.0784   21616333.5384
  19934631.820   -25151275.41549 -18988918.74749  19934633.0084   19934637.9694
  20397423.791   -23811791.62249 -17968921.70149  20397424.4324   20397428.8524
  18678452.840   -33859832.61849 -26356185.81949  18678453.1174   18678457.7644
  21167106.738   -20967991.295 9 -16318550.909 9  21167107.131    21167112.540
  18780927.247   -26476785.36349 -20326196.44849  18780927.7504   18780932.5444
  21863007.465   -12862727.19549  -9813069.17149  21863006.7254   21863012.9754
  20339620.154   -19064413.71349 -14835861.58349  20339621.4224   20339625.6324
 96  7 13  1  8 59.9930000  0  8 17  3 23 21 28  1  9 31
  21633328.555   -20182049.76449 -15444674.50749  21633329.6904   21633335.8664
  19943502.271   -25104663.69149 -18952597.95949  19943502.9364   19943507.9954
  20407072.034   -23761090.76849 -17929414.56249  20407072.0764   20407076.9234
  18677419.660   -33865260.63549 -26360415.44449  18677420.3374   18677424.7824
  21184937.678   -20874288.421 9 -16245535.755 9  21184938.268    21184943.650
  18770441.700   -26531886.79549 -20369132.61149  18770442.1194   18770446.8424
  21864757.552   -12853530.75949  -9805903.11149  21864758.0294   21864761.9974
  20336052.052   -19083172.16149 -14850478.55649  20336051.5944   20336056.7714
 96  7 13  1  9 29.9930000  0  8 17  3 23 21 28  1  9 31
  21650373.818   -20092477.85049 -15374878.29949  21650375.2064   21650381.8884
  19952468.814   -25057543.23249 -18915880.74049  19952469.4224   19952474.3974
  20416746.466   -23710249.04149 -17889797.65449  20416747.2454   20416751.6694
  18676436.664   -33870426.37749 -26364440.69849  18676437.4944   18676441.7234
  21202806.436   -20780388.760 9 -16172367.256 9  21202806.875    21202812.161
  18760053.139   -26586478.99049 -20411671.96249  18760053.7904   18760057.9854
  21866610.085   -12843793.67749  -9798315.77049  21866610.9404   21866615.3424
  20332598.933   -19101315.15049 -14864615.94649  20332599.1874   20332604.2654
 96  7 13  1  9 59.9930000  0  8 17  3 23 21 28  1  9 31
  21667470.933   -20002636.88249 -15304872.44049  21667471.5714   21667477.3544
  19961537.389   -25009886.98049 -18878746.02549  19961538.3714   19961543.3414
  20426452.911   -23659241.97049 -17850051.90249  20426453.5464   20426457.4544
  18675508.715   -33875304.33949 -26368241.70549  18675508.9454   18675513.1834
  21220718.742   -20686264.236 9 -16099023.541 9  21220718.215    21220723.700
  18749769.271   -26640520.85849 -20453782.50049  18749769.8714   18749774.4244
  21868574.699   -12833469.84649  -9790271.22549  21868574.9964   21868579.4684
  20329267.921   -19118821.48449 -14878257.24949  20329267.5884   20329272.9464
 96  7 13  1 10 29.9930000  0  8 17  3 23 21 28  1  9 31
  21684618.611   -19912522.79649 -15234653.76449  21684619.0504   21684625.8544
  19970703.416   -24961718.80949 -18841212.41149  19970704.4704   19970709.1234
  20436185.683   -23608094.99249 -17810197.12649  20436185.9814   20436190.6554
  18674630.593   -33879917.47649 -26371836.36149  18674631.1764   18674635.4844
  21238668.649   -20591932.193 9 -16025518.132 9  21238669.163    21238674.421
  18739588.028   -26694023.25149 -20495472.66349  18739588.6624   18739593.0294
  21870648.005   -12822574.31749  -9781781.20249  21870647.5054   21870652.7104
  20326053.443   -19135711.15249 -14891418.03249  20326054.2954   20326058.6424
 96  7 13  1 10 59.9930000  0  8 17  3 23 21 28  1  9 31
  21701817.383   -19822145.59449 -15164230.04649  21701817.4894   21701824.8984
  19979968.215   -24913029.21149 -18803272.49049  19979969.7264   19979974.6044
  20445941.401   -23556829.98649 -17770250.38749  20445941.5474   20445946.1304
  18673802.729   -33884269.08449 -26375227.22449  18673803.0844   18673807.3314
  21256657.514   -20497399.136 9 -15951856.088 9  21256658.249    21256663.450
  18729508.150   -26746992.06749 -20536747.04549  18729508.9304   18729513.6904
  21872830.192   -12811101.65849  -9772841.46949  21872831.5794   21872835.8814
  20322955.640   -19151992.96249 -14904105.15749  20322955.9254   20322960.5944
 96  7 13  1 11 29.9930000  0  8 17  3 23 21 28  1  9 31
  21719067.201   -19731492.80149 -15093591.58949  21719068.1864   21719074.9584
  19989335.130   -24863807.95149 -18764918.29149  19989336.4174   19989341.1684
  20455722.162   -23505431.31749 -17730199.49449  20455722.2534   20455727.0034
  18673027.119   -33888342.67049 -26378401.44449  18673027.8534   18673032.5404
  21274686.144   -20402658.929 9 -15878032.632 9  21274686.791    21274692.039
  18719533.892   -26799407.89749 -20577590.52849  18719534.5674   18719539.1494
  21875129.221   -12799023.17149  -9763429.68549  21875130.7394   21875134.1344
  20319977.664   -19167646.90849 -14916303.04149  20319976.6834   20319981.4114
 96  7 13  1 11 59.9930000  0  8 17  3 23 21 28  1  9 31
  21736370.854   -19640564.78049 -15022738.67549  21736371.6664   21736377.9394
  19998805.249   -24814042.10349 -18726139.73849  19998806.6384   19998811.1834
  20465532.838   -23453876.72649 -17690027.10549  20465533.2854   20465538.0044
  18672307.694   -33892123.88449 -26381347.84949  18672308.3354   18672312.7314
  21292754.278   -20307711.469 9 -15804047.681 9  21292754.734    21292760.179
  18709664.384   -26851271.62249 -20618003.80149  18709665.3324   18709669.7524
  21877546.072   -12786326.12049  -9753535.88649  21877546.6024   21877550.9654
  20317117.555   -19182665.44749 -14928005.80549  20317118.6424   20317123.7534
 96  7 13  1 12 29.9930000  0  8 17  3 23 21 28  1  9 31
  21753720.816   -19549390.70949 -14951694.03849  21753721.4614   21753727.9284
  20008377.435   -24763736.39449 -18686940.50549  20008379.2334   20008384.2124
  20475372.090   -23402169.39949 -17649735.70349  20475372.6994   20475377.5674
  18671643.069   -33895615.89949 -26384068.90349  18671643.8634   18671648.0654
  21310859.108   -20212568.905 9 -15729910.705 9  21310859.954    21310865.125
  18699895.728   -26902608.80049 -20658006.77849  18699896.1544   18699900.4714
  21880076.641   -12773025.03849  -9743171.40649  21880077.6064   21880083.0594
  20314381.313   -19197052.86749 -14939216.78649  20314381.0304   20314385.3874
 96  7 13  1 12 59.9930000  0  8 17  3 23 21 28  1  9 31
  21771116.106   -19457977.71249 -14880463.22349  21771117.0594   21771123.7134
  20018053.815   -24712894.15249 -18647323.19949  20018053.6834   20018059.0544
  20485244.478   -23350291.46949 -17609311.36349  20485244.7274   20485249.4784
  18671037.652   -33898799.22549 -26386549.41649  18671038.1584   18671042.4904
  21329002.092   -20117224.629 9 -15655616.542 9  21329003.562    21329008.895
  18690227.435   -26953413.88149 -20697595.14049  18690228.1804   18690232.9094
  21882724.273   -12759108.69349  -9732327.49949  21882725.2414   21882730.2074
  20311763.551   -19210796.99049 -14949926.50449  20311765.1394   20311769.7584
 96  7 13  1 13 29.9930000  0  8 17  3 23 21 28  1  9 31
  21788556.828   -19366329.88849 -14809049.43449  21788556.9934   21788563.9124
  20027825.859   -24661538.30749 -18607305.68549  20027826.7494   20027831.5644
  20495148.635   -23298244.39749 -17568755.22649  20495149.1724   20495153.7444
  18670487.078   -33901690.93449 -26388802.70049  18670487.8574   18670492.2104
  21347182.056   -20021692.946 9 -15581176.349 9  21347182.357    21347187.844
  18680658.779   -27003695.90649 -20736775.92449  18680659.7324   18680664.3894
  21885485.751   -12744601.08049  -9721022.86949  21885485.8894   21885491.2334
  20309270.100   -19223909.57049 -14960144.11149  20309270.1874   20309275.0844
 96  7 13  1 13 59.9930000  0  8 17  3 23 21 28  1  9 31
  21806042.900   -19274437.35749 -14737444.95649  21806043.9124   21806049.9854
  20037695.368   -24609673.40949 -18566891.51049  20037696.2964   20037701.4534
  20505082.226   -23246042.27149 -17528078.26549  20505082.6274   20505087.5964
  18669996.063   -33904272.82949 -26390814.57249  18669996.8674   18670000.8244
  21365397.869   -19925967.958 9 -15506585.535 9  21365398.571    21365403.739
  18671188.477   -27053466.19049 -20775557.94849  18671188.8914   18671193.6554
  21888356.557   -12729513.77649  -9709266.52949  21888357.8254   21888361.8544
  20306894.614   -19236391.02749 -14969869.93549  20306894.7914   20306900.1834
 96  7 13  1 14 29.9930000  0  8 17  3 23 21 28  1  9 31
  21823575.384   -19182300.95049 -14665650.43849  21823576.9114   21823583.9704
  20047657.007   -24557323.35249 -18526099.28749  20047658.2984   20047663.5334
  20515043.066   -23193696.82249 -17487289.62149  20515043.4064   20515048.9794
  18669564.025   -33906543.01649 -26392583.55449  18669564.7804   18669568.9084
  21383650.761   -19830049.387 9 -15431843.872 9  21383651.112    21383656.812
  18661816.072   -27102717.07349 -20813935.24349  18661816.7304   18661821.5904
  21891334.692   -12713862.72549  -9697070.90949  21891335.5104   21891340.1914
  20304639.990   -19248237.80449 -14979101.20349  20304640.7174   20304645.5774
 96  7 13  1 14 59.9930000  0  8 17  3 23 21 28  1  9 31
  21841153.460   -19089927.16649 -14593670.96449  21841154.6524   21841161.6224
  20057705.943   -24504516.24349 -18484950.92149  20057707.5524   20057712.5814
  20525030.184   -23141215.41049 -17446395.03549  20525031.0764   20525035.4854
  18669191.035   -33908502.31849 -26394110.29049  18669191.5244   18669196.3814
  21401937.147   -19733952.055 9 -15356962.906 9  21401937.879    21401943.481
  18652543.910   -27151443.47149 -20851903.84949  18652544.2284   18652549.2734
  21894416.460   -12697668.53949  -9684452.07049  21894416.7214   21894422.2404
  20302505.608   -19259460.30749 -14987846.04249  20302504.8814   20302510.0794
 96  7 13  1 15 29.9930000  0  8 17  3 23 21 28  1  9 31
  21858779.792   -18997305.78849 -14521498.54949  21858779.1104   21858787.2484
  20067843.734   -24451243.32349 -18443439.58849  20067844.8634   20067850.1104
  20535043.250   -23088595.02449 -17405392.15949  20535043.6294   20535048.8904
  18668877.308   -33910152.50749 -26395396.15549  18668877.9194   18668882.3754
  21420258.809   -19637676.586 9 -15281943.139 9  21420258.654    21420264.284
  18643371.482   -27199644.11149 -20889462.77149  18643372.0984   18643376.8964
  21897601.789   -12680928.69149  -9671408.03549  21897602.6044   21897607.2664
  20300487.110   -19270059.01749 -14996104.78549  20300488.4144   20300493.6084
 96  7 13  1 15 59.9930000  0  8 17  3 23 21 28  1  9 31
  21876446.819   -18904460.22749 -14449151.46549  21876448.7294   21876455.1064
  20078066.421   -24397523.09449 -18401579.70149  20078067.6284   20078073.0344
  20545082.246   -23035841.75349 -17364285.73949  20545082.5364   20545087.0504
  18668620.363   -33911502.40249 -26396448.02649  18668621.0674   18668625.3354
  21438609.602   -19541236.257 9 -15206794.910 9  21438610.461    21438616.256
  18634297.755   -27247325.93149 -20926617.42449  18634298.4084   18634303.1904
  21900891.975   -12663641.16449  -9657937.23849  21900892.6874   21900897.7194
  20298589.309   -19280045.09849 -15003886.17249  20298587.9734   20298592.8714
 96  7 13  1 16 29.9930000  0  8 17  3 23 21 28  1  9 31
  21894154.394   -18811405.48149 -14376641.36849  21894156.1114   21894162.6194
  20088374.985   -24343351.80249 -18359368.32749  20088375.9474   20088381.2094
  20555151.748   -22982928.51349 -17323054.66049  20555151.3524   20555156.0324
  18668413.785   -33912587.23849 -26397293.35449  18668414.1804   18668418.7824
  21456993.059   -19444637.199 9 -15131522.996 9  21456992.715    21456998.548
  18625327.001   -27294469.51449 -20963352.67049  18625327.5244   18625332.1844
  21904286.103   -12645800.24049  -9644035.20649  21904287.4374   21904292.2594
  20296802.334   -19289419.24149 -15011190.72049  20296804.5394   20296809.2224
 96  7 13  1 16 59.9930000  0  8 17  3 23 21 28  1  9 31
  21911904.979   -18718124.90149 -14303955.30349  21911907.0004   21911913.2344
  20098775.175   -24288696.93349 -18316780.15149  20098776.4724   20098781.8174
  20565253.645   -22929840.79349 -17281687.62649  20565254.3944   20565258.6934
  18668256.897   -33913412.81149 -26397936.66349  18668257.4434   18668261.7934
  21475405.641   -19347874.314 9 -15056123.428 9  21475406.507    21475412.075
  18616458.718   -27341071.12149 -20999665.59349  18616459.3614   18616464.0614
  21907792.997   -12627370.15849  -9629674.11249  21907793.8994   21907798.8914
  20295136.664   -19298174.81949 -15018013.26149  20295137.7364   20295142.9224
 96  7 13  1 17 29.9930000  0  8 17  3 23 21 28  1  9 31
  21929698.522   -18624624.38049 -14231097.86149  21929698.3654   21929706.4654
  20109270.276   -24233544.18649 -18273804.02149  20109271.5274   20109277.3664
  20575386.315   -22876590.85049 -17240194.18649  20575387.1384   20575391.7504
  18668144.140   -33914004.26249 -26398397.53849  18668144.6904   18668149.0514
  21493849.705   -19250948.686 9 -14980597.048 9  21493850.595    21493856.777
  18607693.350   -27387134.45049 -21035559.08149  18607693.7584   18607698.5714
  21911417.340   -12608327.04549  -9614835.31749  21911418.5164   21911422.1414
  20293587.102   -19306320.95649 -15024360.92449  20293587.8154   20293592.6484
 96  7 13  1 17 59.9930000  0  8 17  3 23 21 28  1  9 31
  21947526.170   -18530939.24749 -14158096.56949  21947527.0714   21947534.7034
  20119856.850   -24177915.51049 -18230457.03449  20119857.2844   20119862.7614
  20585544.714   -22823209.60349 -17198598.43349  20585545.1924   20585549.8144
  18668070.604   -33914389.08049 -26398697.39649  18668071.3094   18668075.8404
  21512320.766   -19153885.431 9 -14904963.435 9  21512321.413    21512327.431
  18599027.599   -27432672.18849 -21071043.01749  18599028.2914   18599032.8844
  21915154.952   -12588683.62349  -9599528.76449  21915156.0834   21915161.2604
  20292149.161   -19313874.39549 -15030246.74149  20292150.3494   20292154.9264
 96  7 13  1 18 29.9930000  0  8 17  3 23 21 28  1  9 31
  21965390.163   -18437063.90749 -14084947.05949  21965390.9124   21965397.5864
  20130537.186   -24121786.67249 -18186720.32049  20130538.2604   20130544.0074
  20595728.626   -22769692.74849 -17156897.00849  20595729.2214   20595734.3454
  18668039.971   -33914550.47349 -26398823.16349  18668040.8884   18668045.1494
  21530818.637   -19056681.987 9 -14829220.586 9  21530818.467    21530824.694
  18590462.564   -27477682.90549 -21106116.29349  18590462.9694   18590467.7174
  21919008.141   -12568440.25649  -9583754.71649  21919008.9354   21919013.9414
  20290826.172   -19320828.36449 -15035665.43249  20290826.8554   20290831.9944
 96  7 13  1 18 59.9930000  0  8 17  3 23 21 28  1  9 31
  21983289.459   -18342999.70949 -14011650.40249  21983290.6034   21983297.9784
  20141312.231   -24065164.69349 -18142599.34349  20141313.5794   20141318.2624
  20605935.790   -22716053.83249 -17115100.47349  20605936.0154   20605940.9294
  18668058.718   -33914452.67449 -26398746.95449  18668059.3174   18668063.5534
  21549341.733   -18959339.324 9 -14753369.259 9  21549342.255    21549348.426
  18581997.600   -27522166.79149 -21140779.04949  18581998.0044   18582002.5934
  21922974.561   -12547593.11149  -9567510.17749  21922974.9614   21922980.2514
  20289616.289   -19327183.04149 -15040617.14649  20289617.9824   20289623.2544
 96  7 13  1 19 29.9930000  0  8 17  3 23 21 28  1  9 31
  22001225.030   -18248749.12549 -13938208.51149  22001226.2894   22001233.6194
  20152177.597   -24008065.47249 -18098106.48849  20152178.4174   20152183.9174
  20616167.049   -22662285.55849 -17073203.14649  20616167.9944   20616172.2584
  18668130.410   -33914075.99949 -26398453.44049  18668131.2614   18668135.5054
  21567892.076   -18861853.706 9 -14677406.542 9  21567893.084    21567899.482
  18573635.773   -27566105.17749 -21175016.73949  18573636.9504   18573641.2864
  21927054.400   -12526157.50849  -9550807.10949  21927054.6454   21927059.8254
  20288523.232   -19332934.23849 -15045098.61349  20288523.5164   20288528.5004
 96  7 13  1 19 59.9930000  0  8 17  3 23 21 28  1  9 31
  22019198.755   -18154294.90449 -13864607.90349  22019200.8184   22019206.7554
  20163131.689   -23950499.42249 -18053249.87249  20163133.2584   20163138.4494
  20626425.702   -22608378.57249 -17031197.72049  20626426.6054   20626431.1464
  18668260.776   -33913390.17149 -26397919.03149  18668261.5064   18668265.9764
  21586470.445   -18764227.383 9 -14601334.182 9  21586470.673    21586477.291
  18565378.840   -27609496.41649 -21208828.07649  18565379.7904   18565384.2064
  21931238.782   -12504166.10549  -9533670.95249  21931239.5254   21931244.5724
  20287547.731   -19338068.37849 -15049099.26249  20287546.5034   20287552.0474
 96  7 13  1 20 29.9930000  0  8 17  3 23 21 28  1  9 31
  22037215.956   -18059620.44349 -13790835.69149  22037216.1244   22037224.1044
  20174172.670   -23892479.99549 -18008039.97049  20174174.2414   20174179.6184
  20636710.681   -22554330.81749 -16989082.60649  20636711.3234   20636716.5284
  18668450.464   -33912392.92349 -26397141.95549  18668451.2984   18668455.7604
  21605072.553   -18666468.879 9 -14525158.831 9  21605073.681    21605080.051
  18557223.771   -27652352.51849 -21242222.42949  18557224.5854   18557228.8954
  21935524.226   -12481643.74949  -9516121.06849  21935524.9224   21935529.9954
  20286685.452   -19342599.60149 -15052630.10549  20286684.5204   20286689.0804
 96  7 13  1 20 59.9930000  0  8 17  3 23 21 28  1  9 31
  22055279.878   -17964691.77449 -13716865.41249  22055281.5564   22055287.4904
  20185300.709   -23834003.50149 -17962473.91349  20185302.1044   20185306.9364
  20647023.665   -22500136.01949 -16946852.92749  20647024.2324   20647028.8564
  18668700.610   -33911078.78149 -26396117.95349  18668701.4064   18668705.6604
  21623704.201   -18568563.008 9 -14448868.647 9  21623704.751    21623711.062
  18549173.641   -27694656.91149 -21275186.87449  18549174.3524   18549179.0214
  21939913.500   -12458581.11449  -9498150.18449  21939914.0764   21939918.3544
  20285938.955   -19346513.24249 -15055679.70549  20285939.7364   20285944.7474
 96  7 13  1 21 29.9930000  0  8 17  3 23 21 28  1  9 31
  22073394.772   -17869499.14949 -13642689.46149  22073396.0644   22073402.7744
  20196515.511   -23775070.09549 -17916551.81849  20196516.4714   20196521.9644
  20657361.938   -22445806.04349 -16904517.91549  20657362.5694   20657367.4994
  18669006.394   -33909471.86649 -26394865.81449  18669007.3104   18669011.8464
  21642360.650   -18470518.988 9 -14372470.810 9  21642362.049    21642368.367
  18541224.566   -27736428.11449 -21307735.84849  18541225.5164   18541230.1034
  21944402.221   -12434990.98149  -9479768.26149  21944403.6334   21944407.2614
  20285310.962   -19349815.26349 -15058252.72049  20285310.7914   20285316.4274
 96  7 13  1 21 59.9930000  0  8 17  3 23 21 28  1  9 31
  22091558.552   -17774043.45649 -13568308.52049  22091561.4154   22091567.3094
  20207818.719   -23715672.70549 -17870268.18349  20207819.5434   20207824.8014
  20667724.910   -22391351.18949 -16862085.58049  20667725.2734   20667730.2424
  18669364.628   -33907590.52049 -26393399.82849  18669364.9964   18669369.9314
  21661043.777   -18372340.487 9 -14295968.181 9  21661044.665    21661051.007
  18533373.775   -27777684.65749 -21339883.79149  18533374.6684   18533379.1734
  21948995.032   -12410857.61849  -9460963.03849  21948995.4114   21949000.2284
  20284799.689   -19352502.81149 -15060346.92249  20284799.9324   20284805.1004
 96  7 13  1 22 29.9930000  0  8 17  3 23 21 28  1  9 31
  22109772.325   -17678333.60149 -13493729.53649  22109774.0204   22109779.7614
  20219211.420   -23655800.35049 -17823614.44149  20219213.0094   20219218.1664
  20678112.250   -22336761.95449 -16819548.53649  20678113.4044   20678118.7564
  18669772.617   -33905444.10449 -26391727.29949  18669773.6354   18669778.0224
  21679753.809   -18274019.663 9 -14219354.646 9  21679754.567    21679761.209
  18525622.243   -27818419.67949 -21371625.35649  18525623.0584   18525627.4984
  21953695.427   -12386152.18549  -9441712.05449  21953696.8184   21953701.4524
  20284406.809   -19354565.53449 -15061954.24849  20284407.6094   20284412.1924
 96  7 13  1 22 59.9930000  0  8 17  3 23 21 28  1  9 31
  22128028.921   -17582394.12849 -13418971.64649  22128029.7384   22128036.9604
  20230693.108   -23595467.25349 -17776601.69449  20230694.0564   20230699.0184
  20688523.311   -22282051.49749 -16776917.03449  20688524.1094   20688529.9084
  18670230.503   -33903037.77349 -26389852.24049  18670231.5474   18670236.0274
  21698489.614   -18175564.762 9 -14142636.638 9  21698489.949    21698496.471
  18517968.903   -27858638.09749 -21402964.37049  18517969.6594   18517974.1734
  21958507.290   -12360865.74349  -9422008.34249  21958508.0114   21958514.3734
  20284134.485   -19355995.54749 -15063068.56149  20284135.2884   20284140.0694
 96  7 13  1 23 29.9930000  0  8 17  3 23 21 28  1  9 31
  22146325.217   -17486246.74449 -13344051.73549  22146326.1864   22146333.0224
  20242256.904   -23534695.80649 -17729247.36249  20242258.3544   20242263.4374
  20698957.527   -22227220.15349 -16734191.33449  20698958.3124   20698963.5794
  18670739.169   -33900366.08349 -26387770.41149  18670739.9854   18670744.4884
  21717248.778   -18076983.991 9 -14065820.556 9  21717249.359    21717256.099
  18510414.600   -27898335.56049 -21433897.44749  18510415.4734   18510420.1234
  21963432.185   -12334985.89749  -9401842.23149  21963432.6934   21963438.4394
  20283984.201   -19356789.07749 -15063686.91149  20283983.9194   20283989.2884
 96  7 13  1 23 59.9930000  0  8 17  3 23 21 28  1  9 31
  22164656.582   -17389915.27549 -13268988.37649  22164657.1894   22164665.2204
  20253903.661   -23473494.44049 -17681558.04149  20253904.5134   20253910.0144
  20709417.114   -22172254.72749 -16691361.16249  20709417.9524   20709422.6864
  18671299.994   -33897418.72849 -26385473.78049  18671300.7774   18671305.4904
  21736030.639   -17978285.720 9 -13988912.926 9  21736031.387    21736037.910
  18502961.293   -27937503.14349 -21464417.63249  18502962.2494   18502966.5524
  21968467.179   -12308527.91949  -9381225.63749  21968468.2644   21968473.1014
  20283953.294   -19356942.80749 -15063806.71649  20283954.9194   20283959.9794
 96  7 13  1 24 29.9930000  0  8 17  3 23 21 28  1  9 31
  22183025.714   -17293386.77749 -13193771.48949  22183026.8564   22183033.6394
  20265632.442   -23411859.24049 -17633530.66149  20265633.2594   20265638.5134
  20719907.270   -22117130.74049 -16648407.43249  20719908.0044   20719912.5794
  18671921.390   -33894152.39549 -26382928.58649  18671922.1644   18671926.9504
  21754836.280   -17879456.422 9 -13911903.186 9  21754837.926    21754844.650
  18495615.450   -27976104.94349 -21494496.94649  18495616.3434   18495620.9284
  21973611.621   -12281494.09849  -9360160.31649  21973612.8144   21973617.2734
  20284048.419   -19356449.43549 -15063422.27349  20284048.7384   20284053.5184
 96  7 13  1 24 59.9930000  0  8 17  3 23 21 28  1  9 31
  22201428.235   -17196681.78349 -13118417.07849  22201428.0644   22201435.5594
  20277438.908   -23349817.95849 -17585186.84949  20277439.5234   20277444.7974
  20730423.252   -22061867.80449 -16605345.41749  20730423.5594   20730428.8004
  18672601.133   -33890579.80849 -26380144.75549  18672602.1504   18672606.5194
  21773664.144   -17780521.700 9 -13834811.305 9  21773664.694    21773671.418
  18488375.575   -28014151.50649 -21524143.60649  18488376.4354   18488380.9324
  21978862.434   -12253898.99049  -9338657.62949  21978863.5274   21978868.1074
  20284256.112   -19355350.36949 -15062565.87449  20284258.0574   20284263.0474
 96  7 13  1 25 29.9930000  0  8 17  3 23 21 28  1  9 31
  22219862.940   -17099805.11849 -13042928.91349  22219864.1974   22219871.1184
  20289324.954   -23287356.96149 -17536515.98449  20289325.6964   20289330.6974
  20740970.018   -22006445.60949 -16562159.31649  20740970.5704   20740974.9634
  18673339.526   -33886701.72949 -26377122.87649  18673340.1714   18673344.7204
  21792510.390   -17681481.608 9 -13757637.316 9  21792511.655    21792517.986
  18481242.326   -28051636.20949 -21553352.45349  18481243.2664   18481247.8584
  21984218.186   -12225753.93549  -9316726.40649  21984219.7224   21984224.1954
  20284579.072   -19353657.75049 -15061246.96449  20284579.7994   20284584.8264
 96  7 13  1 25 59.9930000  0  8 17  3 23 21 28  1  9 31
  22238336.530   -17002727.43749 -12967284.08249  22238336.7214   22238344.8344
  20301298.230   -23224430.56249 -17487482.47449  20301300.3364   20301305.3664
  20751552.349   -21950833.70349 -16518825.39049  20751553.4814   20751558.2624
  18674138.086   -33882502.32649 -26373850.61649  18674139.2284   18674143.8774
  21811382.530   -17582308.829 9 -13680359.928 9  21811383.552    21811390.072
  18474221.110   -28088534.30449 -21582104.21149  18474221.8084   18474226.1734
  21989681.530   -12197046.90649  -9294357.28749  21989682.5094   21989687.7564
  20285016.835   -19351353.29349 -15059451.30349  20285018.3754   20285023.5154
 96  7 13  1 26 29.9930000  0  8 17  3 23 21 28  1  9 31
  22256847.498   -16905450.99949 -12891484.38449  22256849.5624   22256855.3694
  20313357.555   -23161062.61949 -17438104.88549  20313358.4274   20313363.9714
  20762167.481   -21895050.71549 -16475358.15549  20762167.9384   20762172.7574
  18674994.272   -33878005.59349 -26370346.66649  18674995.0404   18674999.4284
  21830278.155   -17483017.557 9 -13602990.209 9  21830277.903    21830284.271
  18467307.176   -28124866.32449 -21610414.86549  18467308.0594   18467312.4884
  21995250.572   -12167778.02549  -9271550.39449  21995251.6294   21995256.2144
  20285567.916   -19348461.56249 -15057198.02349  20285568.7004   20285573.8754
 96  7 13  1 26 59.9930000  0  8 17  3 23 21 28  1  9 31
  22275397.887   -16807964.83749 -12815521.28149  22275399.4454   22275407.3354
  20325502.543   -23097242.63749 -17388375.06749  20325503.1424   20325508.6084
  20772814.547   -21839099.36849 -16431759.72749  20772815.1844   20772820.5504
  18675904.537   -33873221.51649 -26366618.82149  18675905.2354   18675909.7204
  21849194.489   -17383610.293 9 -13525530.112 9  21849194.682    21849201.057
  18460499.720   -28160639.85349 -21638290.33549  18460500.5784   18460505.1804
  22000930.423   -12137932.02149  -9248293.76749  22000931.7054   22000936.8604
  20286233.347   -19344962.34849 -15054471.38049  20286234.4154   20286239.4894
 96  7 13  1 27 29.9930000  0  8 17  3 23 21 28  1  9 31
  22293989.934   -16710266.82349 -12739393.10649  22293991.9814   22293997.1524
  20337733.247   -23032971.93249 -17338294.04249  20337733.3904   20337739.3184
  20783493.552   -21782982.94249 -16388032.66249  20783494.0074   20783499.0694
  18676867.005   -33868162.73949 -26362676.91849  18676868.0514   18676872.8344
  21868131.369   -17284094.751 9 -13447985.634 9  21868132.006    21868138.515
  18453794.231   -28195875.70449 -21665746.82849  18453795.2234   18453800.1474
  22006716.218   -12107526.53249  -9224601.17349  22006717.6564   22006722.6694
  20287020.197   -19340837.22049 -15051257.01549  20287019.7084   20287024.6184
 96  7 13  1 27 59.9930000  0  8 17  3 23 21 28  1  9 31
  22312624.431   -16612341.32049 -12663087.67449  22312625.0904   22312632.8654
  20350046.033   -22968259.58349 -17287868.88049  20350047.7044   20350053.4314
  20794201.801   -21726710.45549 -16344183.99749  20794202.2724   20794207.3524
  18677882.864   -33862825.69049 -26358518.18349  18677883.8504   18677888.3114
  21887088.858   -17184470.827 9 -13370356.717 9  21887089.854    21887096.153
  18447192.544   -28230569.87949 -21692781.23649  18447193.2864   18447197.8154
  22012611.957   -12076545.71449  -9200460.28149  22012612.9054   22012617.9644
  20287926.241   -19336075.38949 -15047546.52349  20287925.7914   20287930.7004
 96  7 13  1 28 29.9930000  0  8 17  3 23 21 28  1  9 31
  22331305.794   -16514171.92649 -12586592.18649  22331306.6004   22331313.2554
  20362445.099   -22903103.68149 -17237098.08449  20362446.3704   20362452.3844
  20804942.618   -21670265.60649 -16300201.02049  20804943.1974   20804948.8564
  18678956.517   -33857184.41049 -26354122.39149  18678957.2794   18678961.4364
  21906068.585   -17084731.766 9 -13292638.064 9  21906069.724    21906075.971
  18440695.827   -28264709.78049 -21719383.74549  18440696.6834   18440701.3194
  22018621.839   -12044964.62649  -9175851.64749  22018622.7434   22018626.6174
  20288956.026   -19330658.29749 -15043325.43349  20288957.0914   20288961.5954
 96  7 13  1 28 59.9930000  0  8 17  3 23 21 28  1  9 31
  22350030.992   -16415768.68449 -12509914.50449  22350032.1524   22350039.3414
  20374928.626   -22837505.25449 -17185982.46649  20374929.7084   20374935.2834
  20815714.016   -21613663.73149 -16256095.68649  20815714.7944   20815719.7884
  18680086.931   -33851244.05449 -26349493.55249  18680087.8154   18680091.8524
  21925070.065   -16984884.421 9 -13214835.053 9  21925069.818    21925076.563
  18434305.529   -28298290.70649 -21745550.68149  18434306.3894   18434311.0854
  22024744.880   -12012788.00949  -9150778.97649  22024745.9364   22024750.8224
  20290110.619   -19324589.28049 -15038596.35549  20290111.8344   20290116.7714
 96  7 13  1 29 29.9930000  0  8 17  3 23 21 28  1  9 31
  22368798.982   -16317146.36149 -12433066.08249  22368800.7054   22368805.3704
  20387494.141   -22771474.72549 -17134530.14449  20387494.9864   20387500.6654
  20826515.201   -21556902.78249 -16211866.39849  20826515.3034   20826520.6644
  18681273.020   -33845010.72349 -26344636.41849  18681273.8914   18681277.9934
  21944089.860   -16884929.951 9 -13136948.575 9  21944090.687    21944097.227
  18428022.764   -28331306.90349 -21771277.57449  18428023.8994   18428027.9774
  22030977.597   -11980033.58449  -9125256.05249  22030978.1434   22030982.9624
  20291385.716   -19317891.04649 -15033376.97549  20291386.3534   20291390.8934
 96  7 13  1 29 59.9930000  0  8 17  3 23 21 28  1  9 31
  22387601.892   -16218335.50649 -12356070.74349  22387603.3714   22387609.7164
  20400135.269   -22705041.09549 -17082763.72649  20400136.6494   20400142.4374
  20837338.730   -21500024.12049 -16167545.39649  20837339.6804   20837344.2074
  18682511.690   -33838502.19849 -26339564.84349  18682512.2654   18682516.7664
  21963124.820   -16784895.438 9 -13058999.739 9  21963126.727    21963133.269
  18421845.283   -28363770.12449 -21796573.57349  18421846.2584   18421850.4514
  22037313.952   -11946734.57149  -9099308.78249  22037314.6094   22037320.0904
  20292771.085   -19310605.64949 -15027700.07049  20292772.5704   20292777.5544
 96  7 13  1 30 29.9930000  0  8 17  3 23 21 28  1  9 31
  22406443.409   -16119321.78049 -12278917.34749  22406445.1364   22406451.0464
  20412860.863   -22638168.50949 -17030655.26549  20412862.2864   20412868.1624
  20848188.843   -21443009.17749 -16123118.19249  20848189.2424   20848193.9584
  18683806.582   -33831695.16849 -26334260.67449  18683807.4894   18683811.8704
  21982181.500   -16684760.825 9 -12980972.909 9  21982181.783    21982188.400
  18415775.295   -28395667.55449 -21821428.69849  18415776.2344   18415780.7854
  22043755.727   -11912883.62549  -9072931.42749  22043756.5244   22043761.2424
  20294272.107   -19302722.35649 -15021557.26549  20294272.8214   20294278.3494
 96  7 13  1 30 59.9930000  0  8 17  3 23 21 28  1  9 31
  22425322.173   -16020113.14849 -12201612.05549  22425322.9484   22425331.1264
  20425670.629   -22570856.51349 -16978204.41549  20425671.7854   20425676.9584
  20859063.707   -21385858.94949 -16078585.56949  20859064.1094   20859069.5614
  18685156.018   -33824602.32349 -26328733.79149  18685157.0894   18685161.8284
  22001254.641   -16584526.510 9 -12902868.371 9  22001255.976    22001262.632
  18409811.037   -28427009.62249 -21845851.08049  18409812.1254   18409816.4064
  22050300.271   -11878489.38249  -9046130.71849  22050302.0214   22050307.7304
  20295884.530   -19294249.78449 -15014955.28549  20295885.6144   20295889.9444
 96  7 13  1 31 29.9930000  0  8 17  3 23 21 28  1  9 31
  22444236.290   -15920722.45649 -12124164.89349  22444235.9554   22444244.5144
  20438559.834   -22503122.33949 -16925424.59349  20438560.7114   20438566.9714
  20869965.874   -21328569.67549 -16033944.60049  20869966.4824   20869971.3284
  18686560.501   -33817226.15449 -26322986.13049  18686561.1334   18686565.6944
  22020345.485   -16484208.275 9 -12824698.449 9  22020345.872    22020352.556
  18403947.075   -28457824.96849 -21869863.03249  18403948.0824   18403952.2384
  22056945.195   -11843575.11449  -9018924.81149  22056944.5794   22056950.1614
  20297607.154   -19285193.90649 -15007898.77949  20297608.4774   20297613.4694
 96  7 13  1 31 59.9930000  0  8 17  3 23 21 28  1  9 31
  22463187.384   -15821131.64049 -12046561.83049  22463189.8194   22463196.3794
  20451530.552   -22434959.41449 -16872310.67249  20451531.7234   20451537.8934
  20880896.039   -21271130.29549 -15989186.67149  20880896.7894   20880901.5724
  18688021.822   -33809546.30649 -26317001.83849  18688022.1934   18688027.2824
  22039452.138   -16383799.887 9 -12746458.286 9  22039453.069    22039459.924
  18398182.323   -28488117.55149 -21893467.63949  18398183.6214   18398188.0664
  22063692.978   -11808111.02349  -8991290.44549  22063694.4684   22063699.4364
  20299444.670   -19275537.71649 -15000374.50149  20299445.9674   20299451.1024
 96  7 13  1 32 29.9930000  0  8 17  3 23 21 28  1  9 31
  22482175.313   -15721349.43549 -11968809.59149  22482177.0544   22482184.2284
  20464578.243   -22366392.27449 -16818881.78249  20464579.2404   20464585.3494
  20891855.330   -21213537.27449 -15944309.01549  20891855.9514   20891861.3994
  18689537.906   -33801578.45149 -26310793.13149  18689538.6754   18689543.1244
  22058573.505   -16283316.719 9 -12668159.862 9  22058574.411    22058581.200
  18392516.034   -28517895.41749 -21916671.17249  18392517.1444   18392521.3024
  22070547.142   -11772093.77149  -8963225.06249  22070548.7854   22070553.1274
  20301397.623   -19265282.41649 -14992383.38249  20301397.6764   20301402.0184
 96  7 13  1 32 59.9930000  0  8 17  3 23 21 28  1  9 31
  22501203.067   -15621368.60249 -11890902.58849  22501203.3064   22501211.2934
  20477701.123   -22297432.58449 -16765147.00949  20477702.3344   20477708.3914
  20902844.952   -21155785.73449 -15899307.84149  20902845.6594   20902850.5664
  18691111.562   -33793307.83049 -26304348.49749  18691112.4034   18691116.9804
  22077710.162   -16182752.978 9 -12589798.647 9  22077711.156    22077717.700
  18386952.371   -28547132.04549 -21939452.95149  18386953.4064   18386957.8594
  22077509.271   -11735504.71349  -8934714.11549  22077510.7614   22077515.5634
  20303466.924   -19254403.21149 -14983906.11249  20303468.4524   20303473.3004
 96  7 13  1 33 29.9930000  0  8 17  3 23 21 28  1  9 31
  22520270.918   -15521162.12749 -11812819.73549  22520271.2914   22520278.8234
  20490901.518   -22228058.47649 -16711089.31849  20490903.8594   20490909.1964
  20913868.437   -21097862.12549 -15854172.58749  20913868.7264   20913872.6624
  18692747.184   -33784712.82649 -26297651.09749  18692748.0064   18692752.6384
  22096865.274   -16082093.214 9 -12511362.611 9  22096866.236    22096873.040
  18381500.368   -28575783.82149 -21961779.00049  18381501.1814   18381505.4764
  22084585.032   -11698321.49549  -8905740.16449  22084586.6914   22084591.5094
  20305661.849   -19242877.68849 -14974925.20349  20305661.6604   20305666.3624
 96  7 13  1 33 59.9930000  0  8 17  3 23 21 28  1  9 31
  22539378.338   -15420753.69149 -11734579.55149  22539378.7424   22539386.9664
  20504179.768   -22158283.25549 -16656719.07049  20504181.7224   20504187.6404
  20924916.250   -21039801.52649 -15808930.58149  20924916.7454   20924922.0594
  18694439.582   -33775818.92749 -26290720.79249  18694440.4184   18694445.0674
  22116035.734   -15981358.749 9 -12432868.366 9  22116035.391    22116042.204
  18376158.844   -28603854.09549 -21983651.93149  18376159.5614   18376163.9914
  22091773.021   -11660551.12249  -8876308.71649  22091773.3754   22091778.2084
  20307971.125   -19230733.25149 -14965462.02349  20307972.3804   20307976.7874
 96  7 13  1 34 29.9930000  0  8 17  3 23 21 28  1  9 31
  22558525.164   -15320141.59749 -11656180.65249  22558524.2294   22558533.1264
  20517536.037   -22088100.46349 -16602031.23949  20517536.8374   20517543.0374
  20935993.091   -20981592.97149 -15763573.29949  20935994.2794   20935998.5374
  18696190.042   -33766620.70649 -26283553.35549  18696191.0144   18696195.1654
  22135219.927   -15880546.533 9 -12354313.541 9  22135219.372    22135226.414
  18370929.953   -28631329.93349 -22005061.66349  18370931.2184   18370935.6184
  22099071.363   -11622199.35749  -8846424.23349  22099071.3574   22099077.0854
  20310402.109   -19217958.33449 -14955507.56749  20310403.3834   20310408.7594
 96  7 13  1 34 59.9930000  0  8 17  3 23 21 28  1  9 31
  22577706.089   -15219341.32749 -11577635.14549  22577706.5714   22577713.9594
  20530967.294   -22017520.32049 -16547033.79049  20530967.9404   20530973.9034
  20947097.869   -20923237.54749 -15718101.56449  20947098.7734   20947103.0794
  18697996.784   -33757127.70649 -26276156.21449  18697997.4754   18698001.7424
  22154414.253   -15779668.985 9 -12275707.820 9  22154415.867    22154423.174
  18365808.999   -28658240.19249 -22026030.68449  18365810.0674   18365814.6944
  22106477.056   -11583278.57449  -8816096.34849  22106477.4804   22106482.7504
  20312950.298   -19204567.60149 -14945073.24749  20312951.2064   20312955.9404
 96  7 13  1 35 29.9930000  0  9 17  3 15 23 21 28  1  9 31
  22596915.214   -15118386.34649 -11498969.08649  22596917.2794   22596925.3564
  20544466.033   -21946580.25649 -16491755.88649  20544467.1104   20544472.8324
  22509101.332    -5889299.93659  -4003335.83159  22509102.1684   22509109.5924
  20958228.843   -20864744.73449 -15672522.76649  20958229.2334   20958234.3984
  18699853.379   -33747370.13249 -26268552.92049  18699854.3254   18699858.6314
  22173618.313   -15678756.825 9 -12197075.134 9  22173618.762    22173625.978
  18360787.571   -28684629.56049 -22046593.81949  18360788.5474   18360792.9524
  22113985.616   -11543825.64949  -8785353.82749  22113985.7794   22113990.5594
  20315607.513   -19190603.42449 -14934192.09149  20315608.5574   20315613.2144
 96  7 13  1 35 59.9930000  0  9 17  3 15 23 21 28  1  9 31
  22616160.468   -15017261.65649 -11420170.81049  22616162.0044   22616169.2094
  20558036.369   -21875268.91849 -16436188.65949  20558037.1974   20558043.3394
  22487255.177    -6004104.14949  -4092793.61249  22487255.8154   22487262.8284
  20969391.255   -20806085.85649 -15626814.57249  20969391.2794   20969396.3234
  18701765.475   -33737321.98249 -26260723.19749  18701766.1654   18701770.6434
  22192832.293   -15577787.227 9 -12118397.681 9  22192833.012    22192840.042
  18355864.600   -28710499.72949 -22066752.38649  18355865.6194   18355869.9704
  22121596.180   -11503824.66049  -8754184.23249  22121598.3014   22121602.5894
  20318380.647   -19176036.16049 -14922840.99549  20318380.3474   20318385.9754
 96  7 13  1 36 29.9930000  0  9 17  3 15 23 21 28  1  9 31
  22635435.430   -14915964.16049 -11341237.81349  22635436.9834   22635445.4314
  20571675.168   -21803597.88249 -16380341.15749  20571676.6244   20571681.9364
  22465423.234    -6118826.15649  -4182187.32549  22465424.0754   22465431.4454
  20980587.030   -20747250.00349 -15580968.49249  20980587.8904   20980592.5724
  18703732.709   -33726983.96249 -26252667.60549  18703733.5804   18703737.8754
  22212058.377   -15476759.073 9 -12039674.615 9  22212058.288    22212065.182
  18351040.899   -28735849.07749 -22086505.12349  18351041.4324   18351046.1054
  22129311.689   -11463284.30949  -8722594.35449  22129312.5594   22129317.0294
  20321266.967   -19160865.46449 -14911019.70049  20321267.2784   20321272.8774
 96  7 13  1 36 59.9930000  0  9 17  3 15 23 21 28  1  9 31
  22654745.449   -14814494.15249 -11262170.43949  22654747.1654   22654754.7734
  20585381.768   -21731562.72449 -16324209.90349  20585383.6794   20585389.7954
  22443608.767    -6233458.34249  -4271511.01649  22443611.2074   22443618.3844
  20991816.325   -20688241.05049 -15534987.52449  20991816.8704   20991821.5614
  18705754.270   -33716360.04249 -26244389.22549  18705755.0974   18705759.3484
  22231293.988   -15375669.305 9 -11960903.525 9  22231294.519    22231301.988
  18346319.246   -28760662.35949 -22105840.14149  18346319.7454   18346324.2754
  22137129.103   -11422203.90249  -8690583.64049  22137129.5204   22137135.5244
  20324266.413   -19145100.82949 -14898735.59249  20324267.3774   20324272.8114
 96  7 13  1 37 29.9930000  0  9 17  3 15 23 21 28  1  9 31
  22674082.762   -14712868.91049 -11182982.11349  22674086.5164   22674093.1064
  20599157.681   -21659173.85749 -16267803.04449  20599159.1284   20599164.6294
  22421811.232    -6348013.40349  -4360774.61549  22421812.2544   22421817.6414
  21003071.660   -20629092.49149 -15488897.77049  21003072.7504   21003077.2304
  18707828.496   -33705461.20849 -26235896.63249  18707829.4194   18707833.2564
  22250538.108   -15274535.354 9 -11882098.015 9  22250539.988    22250547.104
  18341699.537   -28784936.88449 -22124755.35449  18341700.4944   18341705.1564
  22145044.160   -11380608.85049  -8658171.92249  22145045.0924   22145050.0824
  20327374.250   -19128768.86749 -14886009.40849  20327375.5834   20327380.3044
 96  7 13  1 37 59.9930000  0  9 17  3 15 23 21 28  1  9 31
  22693456.728   -14611065.48449 -11103654.93449  22693458.2394   22693466.2414
  20613002.746   -21586413.86649 -16211106.99549  20613004.8114   20613011.0584
  22400028.584    -6462483.44649  -4449971.96549  22400029.2794   22400035.2544
  21014351.611   -20569815.72749 -15442708.11349  21014352.1674   21014357.3574
  18709956.124   -33694280.25349 -26227184.20549  18709956.9334   18709961.3784
  22269793.265   -15173354.554 9 -11803256.008 9  22269794.529    22269801.508
  18337185.816   -28808657.41649 -22143238.87349  18337186.6824   18337191.1254
  22153060.334   -11338486.34549  -8625349.19049  22153060.1654   22153065.8634
  20330592.697   -19111859.36349 -14872833.19249  20330592.9394   20330598.0654
 96  7 13  1 38 29.9930000  0  8  3 15 23 21 28  1  9 31
  20626919.721   -21513287.06949 -16154125.13949  20626919.9944   20626926.2674
  22378261.218    -6576867.52549  -4539102.32849  22378261.5784   22378268.6024
  21025657.158   -20510406.01849 -15396414.87349  21025657.2784   21025663.3314
  18712140.395   -33682801.84349 -26218239.99649  18712141.1864   18712145.4814
  22289054.675   -15072131.190 9 -11724380.827 9  22289056.847    22289063.796
  18332780.252   -28831808.67449 -22161278.80849  18332780.9434   18332785.3594
  22161177.424   -11295829.95249  -8592110.44249  22161178.6324   22161182.8644
  20333918.193   -19094381.56849 -14859214.15749  20333919.4034   20333924.2464
 96  7 13  1 38 59.9930000  0  9  3 15 23 25 21 28  1  9 31
  20640907.043   -21439782.10849 -16096848.60549  20640908.0094   20640913.2134
  22356510.416    -6691168.16349  -4628167.70049  22356511.3474   22356515.6454
  21036986.666   -20450870.05249 -15350023.24849  21036987.6304   21036991.8934
  22868675.410    -3959291.19459  -2811494.94159  22868675.6704   22868685.9994
  18714382.084   -33671020.91149 -26209060.05249  18714382.8894   18714387.3284
  22308324.630   -14970872.124 9 -11645477.829 9  22308325.544    22308332.503
  18328481.221   -28854400.80649 -22178883.05249  18328481.7584   18328486.6194
  22169395.850   -11252635.26149  -8558452.24249  22169397.8554   22169402.6824
  20337353.457   -19076330.49249 -14845148.40949  20337353.9654   20337358.8604
 96  7 13  1 39 29.9930000  0  9  3 15 23 25 21 28  1  9 31
  20654966.785   -21365895.71449 -16039274.86049  20654968.0714   20654974.0114
  22334778.101    -6805375.62549  -4717160.45749  22334777.4754   22334784.4384
  21048340.548   -20391203.89849 -15303530.18649  21048341.3884   21048346.5844
  22848193.035    -4066931.89749  -2895370.62749  22848193.1024   22848201.8464
  18716684.426   -33658920.96149 -26199631.52149  18716685.5024   18716690.0374
  22327602.034   -14869572.908 9 -11566543.531 9  22327602.187    22327609.177
  18324287.459   -28876438.51749 -22196055.29249  18324288.2814   18324292.8634
  22177719.532   -11208896.60049  -8524370.16749  22177721.4664   22177726.2674
  20340901.893   -19057681.24849 -14830616.55949  20340903.0894   20340907.9504
 96  7 13  1 39 59.9930000  0  9  3 15 23 25 21 28  1  9 31
  20669097.026   -21291640.73049 -15981413.90149  20669098.3394   20669104.2354
  22313059.876    -6919502.99949  -4806090.81049  22313060.8124   22313066.8294
  21059718.989   -20331411.27949 -15256938.57949  21059719.4244   21059724.1064
  22827694.566    -4174648.49449  -2979305.45449  22827696.0644   22827704.4374
  18719043.395   -33646525.81549 -26189972.96649  18719044.0934   18719048.8094
  22346883.123   -14768251.648 9 -11487592.065 9  22346883.577    22346890.427
  18320194.537   -28897946.58149 -22212814.81549  18320195.5634   18320199.9084
  22186144.024   -11164627.50149  -8489874.77449  22186145.7394   22186150.4614
  20344565.326   -19038435.38149 -14815619.80149  20344565.1934   20344570.6594
 96  7 13  1 40 29.9930000  0  9  3 15 23 25 21 28  1  9 31
  20683296.832   -21217021.67949 -15923269.24349  20683297.8064   20683304.2334
  22291357.110    -7033548.98049  -4894957.72649  22291359.1154   22291363.0764
  21071121.956   -20271485.45849 -15210243.18149  21071122.5954   21071128.1954
  22807181.899    -4282440.98449  -3063299.42849  22807183.1524   22807191.5394
  18721455.200   -33633852.69849 -26180097.81349  18721455.9284   18721460.4064
  22366166.110   -14666911.607 9 -11408625.947 9  22366167.833    22366174.837
  18316200.720   -28918934.87249 -22229169.32549  18316201.4884   18316206.1084
  22194667.914   -11119835.92249  -8454972.25749  22194668.5964   22194672.7594
  20348339.380   -19018597.42049 -14800161.68249  20348340.8774   20348345.8974
 96  7 13  1 40 59.9930000  0  9  3 15 23 25 21 28  1  9 31
  20697566.789   -21142035.29949 -15864838.35149  20697567.7264   20697573.3264
  22269671.248    -7147509.16949  -4983757.79749  22269673.4284   22269679.5234
  21082549.547   -20211433.62249 -15163449.57949  21082550.1204   21082555.3794
  22786660.083    -4390283.63349  -3147332.49649  22786661.4064   22786669.5714
  18723915.767   -33620922.28249 -26170022.16649  18723916.5624   18723920.8694
  22385455.482   -14565553.750 9 -11329645.944 9  22385455.703    22385462.596
  18312306.478   -28939398.52749 -22245115.02549  18312307.4574   18312311.7334
  22203288.496   -11074528.25949  -8419667.57149  22203290.1324   22203294.3174
  20352228.098   -18998162.45849 -14784238.36549  20352229.3234   20352234.1104
 96  7 13  1 41 29.9930000  0  9  3 15 23 25 21 28  1  9 31
  20711900.216   -21066703.26849 -15806138.12749  20711902.8214   20711908.4384
  22248002.402    -7261381.52249  -5072489.44249  22248003.0204   22248010.6684
  21094004.219   -20151240.18649 -15116545.65449  21094004.7534   21094010.3044
  22766132.111    -4498157.75349  -3231390.09549  22766133.5014   22766142.2454
  18726424.270   -33607739.80349 -26159750.10949  18726425.0934   18726429.2484
  22404745.918   -14464181.397 9 -11250654.664 9  22404746.767    22404753.440
  18308513.395   -28959332.39949 -22260647.89849  18308514.3244   18308518.6394
  22212008.099   -11028711.95349  -8383966.54949  22212008.3774   22212013.7374
  20356229.514   -18977139.35549 -14767856.76149  20356229.5454   20356234.2524
 96  7 13  1 41 59.9930000  0  9  3 15 23 25 21 28  1  9 31
  20726300.707   -20991033.41649 -15747174.66349  20726302.2874   20726307.7104
  22226350.073    -7375165.08649  -5161151.89149  22226350.3704   22226356.6954
  21105487.085   -20090897.99949 -15069525.79949  21105488.2344   21105491.4204
  22745602.970    -4606041.54849  -3315455.24649  22745603.2534   22745611.2924
  18728979.074   -33594312.75549 -26149287.47949  18728980.1944   18728984.4824
  22424038.808   -14362798.547 9 -11171655.205 9  22424039.203    22424046.509
  18304820.937   -28978734.76249 -22275766.61749  18304821.8424   18304826.3664
  22220824.004   -10982380.06949  -8347863.77249  22220825.4864   22220830.6614
  20360337.437   -18955543.89549 -14751029.15749  20360338.9894   20360344.2044
 96  7 13  1 42 29.9930000  0  9  3 15 23 25 21 28  1  9 31
  20740763.515   -20915034.67949 -15687954.92049  20740765.1184   20740770.4984
  22204714.454    -7488861.56849  -5249746.49649  22204715.3104   22204721.2494
  21116995.729   -20030418.44949 -15022398.91149  21116996.9214   21117001.5274
  22725074.046    -4713919.90649  -3399516.15849  22725075.6724   22725083.0974
  18731582.735   -33580631.58349 -26138626.82449  18731583.6514   18731587.8594
  22443331.821   -14261411.394 9 -11092652.401 9  22443332.800    22443339.724
  18301229.951   -28997604.66449 -22290470.42849  18301231.1604   18301235.4084
  22229739.015   -10935536.43649  -8311362.22349  22229739.6584   22229745.0934
  20364555.294   -18933387.56249 -14733764.50849  20364554.9954   20364559.9264
 96  7 13  1 42 59.9930000  0  9  3 15 23 25 21 28  1  9 31
  20755286.038   -20838717.51949 -15628487.06849  20755287.2114   20755293.2904
  22183094.851    -7602472.18449  -5338274.19449  22183095.7884   22183101.2304
  21128532.869   -19969794.24249 -14975159.30649  21128533.3994   21128537.6414
  22704545.040    -4821800.22149  -3483578.59049  22704546.5774   22704552.7494
  18734237.545   -33566681.11449 -26127756.33249  18734238.4524   18734242.6844
  22462625.645   -14160026.452 9 -11013651.336 9  22462625.602    22462633.195
  18297742.975   -29015931.05349 -22304750.72149  18297743.6984   18297748.0884
  22238748.336   -10888186.99449  -8274466.56149  22238749.8874   22238755.1624
  20368877.162   -18910672.25949 -14716064.29749  20368877.9934   20368882.8824
 96  7 13  1 43 29.9930000  0  9  3 15 23 25 21 28  1  9 31
  20769869.702   -20762082.21849 -15568771.29649  20769870.6144   20769876.4444
  22161491.869    -7715996.65149  -5426734.76249  22161491.9794   22161498.2874
  21140095.884   -19909027.69349 -14927808.78149  21140097.2514   21140101.2004
  22684012.275    -4929699.66149  -3567655.94249  22684013.2404   22684020.9224
  18736945.156   -33552451.40749 -26116668.24949  18736945.8644   18736950.4714
  22481916.678   -14058648.522 9 -10934655.727 9  22481917.358    22481924.628
  18294356.294   -29033728.38949 -22318618.76649  18294357.1114   18294361.5994
  22247856.879   -10840325.57849  -8237171.95149  22247858.0274   22247862.2154
  20373304.844   -18887401.76749 -14697931.47749  20373305.8574   20373311.2434
 96  7 13  1 43 59.9930000  0  9  3 15 23 25 21 28  1  9 31
  20784513.954   -20685123.73249 -15508803.68949  20784515.1354   20784521.5104
  22139906.108    -7829431.23649  -5515125.29849  22139906.8054   22139912.9394
  21151682.529   -19848141.15249 -14880364.75849  21151683.2504   21151687.6114
  22663473.887    -5037629.84849  -3651757.23849  22663474.8274   22663482.1504
  18739707.240   -33537937.00849 -26105358.33449  18739708.0034   18739712.4344
  22501208.139   -13957278.753 9 -10855666.480 9  22501207.595    22501214.681
  18291069.852   -29050997.23649 -22332075.00349  18291070.8224   18291075.3184
  22257060.603   -10791956.20249  -8199481.53349  22257061.8904   22257067.0704
  20377839.254   -18863580.46849 -14679369.46349  20377839.2924   20377844.2534
 96  7 13  1 44 29.9930000  0  9  3 15 23 25 21 28  1  9 31
  20799218.277   -20607853.93249 -15448593.51549  20799219.1174   20799224.8204
  22118336.766    -7942777.97349  -5603447.38849  22118337.6654   22118344.0594
  21163290.262   -19787141.11349 -14832832.29349  21163291.2154   21163295.8394
  22642926.911    -5145604.76749  -3735893.41149  22642927.9084   22642936.0724
  18742524.160   -33523134.87049 -26093824.20149  18742524.9324   18742529.5174
  22520493.627   -13855924.361 9 -10776689.230 9  22520494.643    22520502.546
  18287883.706   -29067740.14249 -22345121.42349  18287884.6114   18287889.5644
  22266359.330   -10743090.60649  -8161404.45849  22266360.6854   22266365.0514
  20382476.387   -18839214.19049 -14660382.78649  20382475.8044   20382480.9254
 96  7 13  1 44 59.9930000  0  9  3 15 23 25 21 28  1  9 31
  20813975.518   -20530303.21849 -15388164.43849  20813976.6774   20813982.9194
  22096782.057    -8056048.45649  -5691710.07249  22096783.3234   22096788.7224
  21174916.859   -19726040.68349 -14785221.59149  21174917.7164   21174922.4674
  22622368.733    -5253637.87549  -3820074.91949  22622369.3814   22622377.0844
  18745391.693   -33508064.88449 -26082081.35849  18745392.4004   18745397.0794
  22539776.215   -13754601.856 9 -10697736.829 9  22539776.136    22539783.614
  18284794.115   -29083975.78649 -22357772.56949  18284795.0494   18284799.7744
  22275750.779   -10693742.15649  -8122951.12049  22275752.0314   22275756.9174
  20387213.074   -18814318.79749 -14640983.81549  20387213.3924   20387218.7214
 96  7 13  1 45 29.9930000  0  9  3 15 23 25 21 28  1  9 31
  20828787.344   -20452466.94849 -15327512.86249  20828789.1404   20828794.3554
  22075243.984    -8169231.66749  -5779904.74749  22075244.2594   22075251.0584
  21186561.609   -19664850.85949 -14737541.24949  21186561.6304   21186567.1414
  22601804.955    -5361699.38249  -3904278.55949  22601805.5034   22601813.7184
  18748311.544   -33492720.23949 -26070124.49549  18748312.4334   18748317.0184
  22559052.426   -13653305.369 9 -10618804.701 9  22559052.302    22559059.616
  18281800.833   -29099707.60949 -22370031.12249  18281801.5894   18281806.2414
  22285235.005   -10643901.87849  -8084114.53649  22285234.9024   22285240.6464
  20392051.081   -18788896.07049 -14621173.92249  20392051.5294   20392056.7764
 96  7 13  1 45 59.9930000  0  9  3 15 23 25 21 28  1  9 31
  20843652.260   -20374352.15249 -15266644.23849  20843653.5754   20843659.2464
  22053723.475    -8282322.99949  -5868027.82449  22053723.2434   22053729.5894
  21198225.084   -19603558.68149 -14689781.14949  21198225.7194   21198230.9234
  22581239.308    -5469769.87949  -3988489.19649  22581242.0964   22581247.8974
  18751284.179   -33477099.52449 -26057952.51349  18751285.1334   18751289.4564
  22578323.376   -13552035.082 9 -10539893.001 9  22578323.661    22578330.662
  18278903.790   -29114931.56249 -22381893.93449  18278904.6514   18278908.9394
  22294812.821   -10593571.11449  -8044895.75249  22294812.5564   22294818.6314
  20396990.315   -18762940.71849 -14600949.00349  20396990.6554   20396995.1614
 96  7 13  1 46 29.9930000  0  9  3 15 23 25 21 28  1  9 31
  20858567.083   -20295972.28449 -15205569.07349  20858568.7264   20858574.3114
  22032217.466    -8395339.04049  -5956092.23549  22032218.0964   22032224.1114
  21209907.539   -19542164.17749 -14641941.31549  21209908.0454   21209913.3474
  22560671.563    -5577857.81249  -4072713.42549  22560672.0984   22560679.3614
  18754305.926   -33461219.41949 -26045578.41149  18754306.5164   18754311.4974
  22597584.115   -13450812.296 9 -10461018.321 9  22597585.687    22597593.146
  18276098.371   -29129672.24349 -22393380.17049  18276099.5954   18276104.1364
  22304481.246   -10542759.26249  -8005302.10549  22304482.0854   22304487.6414
  20402028.193   -18736463.58549 -14580317.50749  20402029.0144   20402034.1804
 96  7 13  1 46 59.9930000  0  9  3 15 23 25 21 28  1  9 31
  20873531.464   -20217335.53449 -15144293.73649  20873532.7824   20873538.9674
  22010724.371    -8508284.63349  -6044101.73449  22010726.4074   22010730.3674
  21221608.300   -19480678.91849 -14594030.74649  21221608.2524   21221613.6344
  22540096.874    -5685974.82549  -4156960.31549  22540098.8944   22540106.9004
  18757376.533   -33445083.85649 -26033005.25249  18757377.3494   18757382.0984
  22616836.611   -13349647.038 9 -10382188.452 9  22616836.565    22616844.637
  18273383.223   -29143940.54849 -22404498.32149  18273383.8634   18273388.8814
  22314240.613   -10491472.55649  -7965338.42649  22314242.5114   22314247.0434
  20407163.420   -18709477.30449 -14559289.26249  20407164.1134   20407169.2484
 96  7 13  1 47 29.9930000  0  9  3 15 23 25 21 28  1  9 31
  20888548.692   -20138421.79649 -15082802.56249  20888550.1234   20888555.1354
  21989247.349    -8621146.66049  -6132046.12249  21989247.9644   21989253.5714
  21233327.408   -19419094.76249 -14546043.12849  21233328.0724   21233333.0534
  22519518.015    -5794116.84149  -4241226.69449  22519519.3814   22519527.7014
  18760497.320   -33428684.80249 -26020226.77749  18760498.1064   18760502.3784
  22636078.096   -13248531.379 9 -10303397.238 9  22636078.922    22636086.138
  18270761.639   -29157718.39649 -22415234.30149  18270762.4274   18270766.9794
  22324092.202   -10439701.71249  -7924997.50349  22324094.2944   22324098.9024
  20412398.921   -18681968.33749 -14537853.72749  20412398.8614   20412404.4584
 96  7 13  1 47 59.9930000  0  8  3 15 23 25 21  1  9 31
  20903616.731   -20059230.64349 -15021095.21749  20903619.0754   20903624.6664
  21967787.192    -8733918.15349  -6219919.95649  21967788.0674   21967794.5714
  21245066.769   -19357402.09449 -14497970.94749  21245067.6804   21245072.5754
  22498933.016    -5902291.61449  -4325518.60549  22498934.6284   22498941.7564
  18763667.596   -33412022.94049 -26007243.51649  18763668.4234   18763673.3324
  18268233.351   -29171003.59149 -22425586.38749  18268234.3624   18268238.9354
  22334037.024   -10387442.72849  -7884276.20749  22334037.5764   22334044.0144
  20417734.518   -18653921.88949 -14515999.38049  20417736.4284   20417741.1274
 96  7 13  1 48 29.9930000  0  8  3 15 23 25 21  1  9 31
  20918737.081   -19979778.17049 -14959184.23749  20918737.4684   20918744.4784
  21946344.507    -8846599.51949  -6307723.58249  21946345.0594   21946352.6704
  21256823.905   -19295619.68149 -14449828.84049  21256823.9674   21256829.4214
  22478339.672    -6010511.90049  -4409845.93449  22478340.2624   22478348.1104
  18766886.956   -33395106.86149 -25994062.16249  18766887.7524   18766892.2364
  18265799.491   -29183795.50049 -22435554.10649  18265800.1034   18265804.7754
  22344071.412   -10334711.57549  -7843187.00449  22344073.3464   22344077.1804
  20423170.426   -18625356.47649 -14493740.65049  20423172.1434   20423177.1954
 96  7 13  1 48 59.9930000  0  8  3 15 23 25 21  1  9 31
  20933906.260   -19900067.56549 -14897072.12549  20933907.3394   20933913.0754
  21924921.667    -8959179.11749  -6395447.87749  21924923.1844   21924928.3934
  21268597.053   -19233746.75649 -14401616.19749  21268598.4824   21268603.0594
  22457738.309    -6118760.91449  -4494195.68449  22457741.4554   22457750.3544
  18770153.042   -33377944.02349 -25980688.53649  18770153.7204   18770158.2534
  18263461.721   -29196079.71449 -22445126.21649  18263462.5674   18263466.8134
  22354195.228   -10281509.73749  -7801731.02749  22354196.0554   22354201.3884
  20428707.367   -18596260.57049 -14471068.54349  20428708.8934   20428714.4644
 96  7 13  1 49 29.9930000  0  8  3 15 23 25 21  1  9 31
  20949122.578   -19820096.45749 -14834757.02649  20949124.3714   20949131.2824
  21903518.188    -9071656.32449  -6483092.40049  21903517.5614   21903524.5304
  21280391.887   -19171766.51049 -14353319.92749  21280393.5414   21280398.0024
  22437137.740    -6227021.92349  -4578554.76649  22437139.2964   22437147.7954
  18773462.552   -33360550.60049 -25967135.22849  18773463.5264   18773468.0514
  18261218.848   -29207864.29349 -22454309.00549  18261219.8824   18261224.4424
  22364405.204   -10227850.11149  -7759918.33749  22364407.7474   22364412.4144
  20434346.189   -18566626.69249 -14447977.23749  20434348.0124   20434353.0234
 96  7 13  1 49 59.9930000  0  8  3 15 23 25 21  1  9 31
  20964391.476   -19739864.74249 -14772238.86849  20964392.3804   20964398.8904
  21882135.107    -9184022.16149  -6570650.15249  21882136.0664   21882143.0084
  21292211.146   -19109658.96349 -14304924.46349  21292211.7554   21292217.1124
  22416537.155    -6335284.78149  -4662915.27049  22416538.0834   22416545.9024
  18776818.927   -33342914.82149 -25953393.07149  18776819.5364   18776824.2594
  18259072.405   -29219147.19649 -22463100.86749  18259072.9934   18259077.5434
  22374704.268   -10173734.26649  -7717750.15249  22374706.5314   22374710.4184
  20440086.896   -18536464.27249 -14424474.07549  20440087.7524   20440092.6574
 96  7 13  1 50 29.9930000  0  8  3 15 23 25 21  1  9 31
  20979710.274   -19659368.20349 -14709514.35749  20979710.8814   20979716.3354
  21860772.757    -9296285.59149  -6658128.09849  21860774.0814   21860778.3094
  21304054.232   -19047425.50649 -14256430.87949  21304054.0584   21304059.8294
  22395935.421    -6443551.65849  -4747278.92649  22395936.2834   22395942.5734
  18780218.955   -33325045.53749 -25939468.95949  18780219.7764   18780224.1604
  18257020.487   -29229927.05749 -22471500.74949  18257021.7054   18257025.9244
  22385086.265   -10119182.26249  -7675242.09049  22385086.0634   22385091.3024
  20445922.124   -18505793.90549 -14400575.11849  20445924.3174   20445929.1024
 96  7 13  1 50 59.9930000  0  8  3 15 23 25 21  1  9 31
  20995082.677   -19578577.71949 -14646560.79449  20995084.0314   20995090.7094
  21839431.393    -9408432.97349  -6745515.62749  21839431.8054   21839437.7014
  21315923.463   -18985048.91949 -14207825.76249  21315924.2664   21315928.6984
  22375335.421    -6551801.90749  -4831629.62849  22375336.7734   22375344.0744
  18783668.400   -33306919.40249 -25925344.70749  18783669.3254   18783673.7194
  18255068.152   -29240188.94849 -22479497.02349  18255069.0284   18255073.2914
  22395553.847   -10064173.73649  -7632378.33549  22395553.5304   22395558.6894
  20451858.864   -18474603.21149 -14376270.70649  20451859.4334   20451864.7004
 96  7 13  1 51 29.9930000  0  8  3 15 23 25 21  1  9 31
  21010511.482   -19497501.68249 -14583384.72149  21010513.1564   21010519.0784
  21818111.143    -9520471.91249  -6832818.65249  21818111.4314   21818117.3934
  21327818.139   -18922542.39349 -14159119.39249  21327818.6084   21327822.9924
  22354735.423    -6660055.07949  -4915982.61049  22354736.4694   22354743.8454
  18787168.774   -33288525.96349 -25911012.16149  18787169.5884   18787173.8064
  18253212.541   -29249939.61649 -22487094.93849  18253213.3544   18253217.9424
  22406105.911   -10008720.26649  -7589167.82349  22406106.6074   22406111.6154
  20457888.087   -18442922.08849 -14351584.14349  20457888.3244   20457893.2834
 96  7 13  1 51 59.9930000  0  8  3 15 23 25 21  1  9 31
  21025994.285   -19416140.16649 -14519986.20049  21025995.6364   21026001.0794
  21796813.713    -9632389.63849  -6920027.22649  21796814.0814   21796820.2334
  21339734.929   -18859918.81949 -14110321.81849  21339735.4324   21339740.1904
  22334135.201    -6768308.05649  -5000335.44249  22334136.4154   22334143.6464
  18790724.343   -33269841.12549 -25896452.55449  18790725.1014   18790729.6194
  18251457.198   -29259164.14049 -22494282.87049  18251457.8914   18251462.4594
  22416744.977    -9952808.99249  -7545600.58749  22416746.7874   22416751.0344
  20464009.865   -18410747.92149 -14326513.38749  20464011.0544   20464015.2964
 96  7 13  1 52 29.9930000  0  8  3 15 23 25 21  1  9 31
  21041530.862   -19334495.31349 -14456366.90549  21041531.6054   21041538.3144
  21775542.886    -9744170.26649  -7007128.96349  21775543.8394   21775548.6114
  21351674.585   -18797174.25749 -14061429.96349  21351675.7784   21351680.6944
  22313539.757    -6876535.47249  -5084668.36649  22313540.8174   22313549.1124
  18794336.259   -33250860.66049 -25881662.58749  18794337.0454   18794341.3164
  18249802.801   -29267857.38649 -22501056.81949  18249803.4974   18249808.3064
  22427476.076    -9896420.15649  -7501661.22149  22427476.4314   22427481.5774
  20470231.488   -18378055.00949 -14301038.42049  20470232.0014   20470236.7784
 96  7 13  1 52 59.9930000  0  8  3 15 23 25 21  1  9 31
  21057109.384   -19252623.75349 -14392570.93149  21057111.6714   21057117.9344
  21754293.252    -9855835.74749  -7094140.98649  21754294.1654   21754299.4414
  21363630.108   -18734346.93049 -14012473.62149  21363631.0774   21363636.2464
  22292945.447    -6984759.99349  -5168999.02849  22292946.6684   22292954.7194
  18797998.789   -33231613.57849 -25866664.86349  18797999.5574   18798004.3644
  18248241.941   -29276059.98549 -22507448.44449  18248242.7654   18248247.2404
  22438295.724    -9839563.09049  -7457356.99749  22438296.1274   22438301.3784
  20476547.263   -18344867.41049 -14275177.98949  20476547.4774   20476552.5724
 96  7 13  1 53 29.9930000  0  8  3 15 23 25 21  1  9 31
  21072732.627   -19170524.30149 -14328597.40949  21072734.2914   21072741.0514
  21733070.298    -9967366.87549  -7181048.31649  21733070.3484   21733076.4494
  21375606.690   -18671411.09349 -13963432.72649  21375607.6884   21375613.4314
  22272355.295    -7092958.57049  -5253309.48449  22272356.7164   22272364.8074
  18801710.793   -33212108.14749 -25851465.83049  18801711.4284   18801715.7804
  18246773.719   -29283773.65049 -22513459.08349  18246774.7944   18246779.2124
  22449205.925    -9782226.86149  -7412679.40149  22449207.3014   22449212.7764
  20482962.482   -18311154.44049 -14248908.17549  20482963.0224   20482968.0554
 96  7 13  1 53 59.9930000  0  8  3 15 23 25 21  1  9 31
  21088400.151   -19088197.82849 -14264446.97049  21088400.8544   21088406.8634
  21711871.416   -10078763.59549  -7267850.89649  21711872.2514   21711877.0544
  21387603.638   -18608368.12349 -13914308.35949  21387604.2954   21387610.0634
  22251773.410    -7201117.54149  -5337589.06549  22251774.6814   22251782.2154
  18805468.747   -33192358.74649 -25836076.68849  18805469.5254   18805473.7664
  18245399.235   -29290998.96749 -22519089.19449  18245399.7134   18245404.3814
  22460208.579    -9724408.11449  -7367625.82949  22460209.7634   22460215.1704
  20489481.749   -18276897.83549 -14222214.75349  20489481.7664   20489486.5614
 96  7 13  1 54 29.9930000  0  8  3 15 23 25 21  1  9 31
  21104110.242   -19005637.51249 -14200114.32349  21104111.8554   21104117.8104
  21690698.658   -10190025.28549  -7354548.27949  21690700.4034   21690704.9324
  21399622.104   -18545209.03349 -13865093.51049  21399622.6844   21399628.4114
  22231198.221    -7309238.87049  -5421839.32749  22231200.3794   22231207.5784
  18809272.212   -33172369.87849 -25820500.95449  18809273.3564   18809277.7834
  18244117.120   -29297734.49649 -22524337.65349  18244118.2584   18244122.6004
  22471304.212    -9666096.83449  -7322188.46949  22471306.4454   22471310.9714
  20496104.258   -18242092.23049 -14195093.54049  20496104.9284   20496110.3344
 96  7 13  1 54 59.9930000  0  8  3 15 23 25 21  1  9 31
  21119870.504   -18922819.05449 -14135580.51949  21119871.2484   21119877.0484
  21669552.926   -10301147.28649  -7441136.79249  21669553.0054   21669559.7574
  21411664.115   -18481929.93749 -13815785.15149  21411664.4864   21411670.1194
  22210630.178    -7417323.70049  -5506061.15549  22210632.2274   22210639.6434
  18813125.613   -33152121.34449 -25804722.87649  18813126.5234   18813130.6284
  18242931.066   -29303968.72149 -22529195.47549  18242932.0424   18242936.1914
  22482493.624    -9607299.82949  -7276372.62249  22482494.4954   22482499.6174
  20502832.479   -18206734.43449 -14167542.03849  20502833.5844   20502838.5904
 96  7 13  1 55 29.9930000  0  8  3 15 23 25 21  1  9 31
  21135678.309   -18839747.23849 -14070849.32049  21135679.4164   21135686.3074
  21648431.231   -10412146.12249  -7527629.32649  21648431.9654   21648437.4224
  21423727.291   -18418534.52549 -13766386.16149  21423728.2444   21423733.6584
  22190066.189    -7525388.65249  -5590267.48849  22190067.8484   22190075.6414
  18817028.873   -33131608.92349 -25788739.17349  18817029.7504   18817034.4384
  18241838.879   -29309707.53349 -22533667.27149  18241839.7054   18241844.2244
  22493766.188    -9548061.34449  -7230212.75049  22493767.3664   22493773.3194
  20509662.962   -18170840.33049 -14139572.63649  20509663.7644   20509668.9064
 96  7 13  1 55 59.9930000  0  8  3 15 23 25 21  1  9 31
  21151536.678   -18756413.68549 -14005914.17049  21151537.3404   21151544.0974
  21627335.323   -10523002.08849  -7614010.55249  21627336.0104   21627341.0904
  21435815.237   -18355009.61349 -13716886.27349  21435816.8484   21435822.4504
  22169508.036    -7633421.63849  -5674448.91849  22169509.0284   22169516.6664
  18820992.377   -33110779.59849 -25772508.53049  18820993.4924   18820997.6934
  18240847.344   -29314915.65849 -22537725.54149  18240848.7314   18240852.8384
  22505126.926    -9488359.00749  -7183691.42749  22505128.2884   22505132.5124
  20516595.288   -18134412.53749 -14111187.38549  20516595.5464   20516601.0164
 96  7 13  1 56 29.9930000  0  8  3 15 23 25 21  1  9 31
  21167439.318   -18672836.43249 -13940789.13149  21167441.8744   21167448.0064
  21606268.543   -10633709.83849  -7700276.27949  21606268.8154   21606274.9044
  21447930.992   -18291348.25349 -13667280.04549  21447930.7144   21447936.6234
  22148957.251    -7741413.48049  -5758598.27449  22148958.8524   22148965.7254
  18825017.912   -33089627.34149 -25756026.25549  18825018.5224   18825022.8884
  18239954.585   -29319609.15949 -22541382.80849  18239955.3444   18239959.9454
  22516574.371    -9428201.10849  -7136815.12549  22516575.5194   22516580.8334
  20523623.746   -18097475.01349 -14082404.92949  20523624.8714   20523630.0054
 96  7 13  1 56 59.9930000  0  8  3 15 23 25 21  1  9 31
  21183385.864   -18589040.69849 -13875493.83949  21183387.6644   21183393.6784
  21585226.819   -10744283.63849  -7786437.63349  21585227.3884   21585232.7594
  21460069.471   -18227559.69649 -13617574.71249  21460069.8654   21460075.2254
  22128415.799    -7849364.98049  -5842716.20849  22128416.6154   22128424.3634
  18829101.021   -33068169.36849 -25739305.75649  18829101.9284   18829106.4474
  18239155.458   -29323810.29549 -22544656.41549  18239156.2724   18239160.5114
  22528101.085    -9367627.96149  -7089615.28049  22528102.9634   22528107.3744
  20530742.596   -18060066.91549 -14053255.79449  20530743.3924   20530747.9674
 96  7 13  1 57 29.9930000  0  8  3 15 23 25 21  1  9 31
  21199370.878   -18505037.20649 -13810036.64649  21199372.5944   21199380.2944
  21564213.337   -10854707.42849  -7872482.10049  21564213.2294   21564219.4174
  21472234.614   -18163629.75549 -13567759.20549  21472235.0334   21472240.6884
  22107883.421    -7957263.02649  -5926792.47949  22107884.3784   22107890.8664
  18833241.751   -33046411.25149 -25722351.38449  18833242.2934   18833246.7084
  18238450.083   -29327515.68849 -22547543.72049  18238450.9274   18238455.3434
  22539708.541    -9306628.74249  -7042083.42549  22539709.7114   22539714.9554
  20537949.182   -18022193.50349 -14023744.07549  20537950.3104   20537955.8884
 96  7 13  1 57 59.9930000  0  8  3 15 23 25 21  1  9 31
  21215396.130   -18420829.61749 -13744420.41049  21215397.5664   21215403.5924
  21543228.735   -10964984.65649  -7958412.36149  21543229.5514   21543234.4404
  21484422.984   -18099579.28849 -13517849.78449  21484423.5224   21484429.2244
  22087358.282    -8065119.59249  -6010836.44049  22087360.4254   22087366.9604
  18837434.112   -33024379.26149 -25705183.60049  18837435.0474   18837439.6074
  18237835.976   -29330742.92749 -22550058.44749  18237836.7014   18237841.4254
  22551401.042    -9245186.24649  -6994206.15249  22551402.3004   22551406.6794
  20545243.315   -17983868.56349 -13993880.51649  20545243.2474   20545248.0804
 96  7 13  1 58 29.9930000  0  8  3 15 23 25 21  1  9 31
  21231459.953   -18336412.42049 -13678640.84649  21231460.6594   21231467.4084
  21522271.096   -11075118.58149  -8044230.97049  21522272.0104   21522278.1274
  21496632.780   -18035415.77249 -13467852.27749  21496632.7634   21496639.2434
  22066840.603    -8172940.76149  -6094852.82649  22066841.6474   22066848.9044
  18841673.025   -33002102.41649 -25687825.01949  18841674.0214   18841678.8204
  18237310.797   -29333502.12549 -22552208.46649  18237311.8764   18237316.2014
  22563174.150    -9183319.76349  -6945998.48749  22563174.7724   22563180.9154
  20552621.338   -17945090.62949 -13963663.98049  20552622.2554   20552627.5754
 96  7 13  1 58 59.9930000  0  8  3 15 23 25 21  1  9 31
  21247564.218   -18251778.70549 -13612692.56849  21247566.3944   21247573.1264
  21501340.794   -11185108.99549  -8129937.75249  21501340.7784   21501347.0234
  21508861.657   -17971152.77349 -13417777.26549  21508862.2284   21508868.0064
  22046325.257    -8280747.85549  -6178858.22449  22046327.0194   22046333.3924
  18845957.675   -32979587.72749 -25670281.10849  18845958.4194   18845963.2554
  18236878.665   -29335772.67449 -22553977.71849  18236879.4784   18236884.2414
  22575027.029    -9121032.70349  -6897463.11249  22575027.6474   22575032.9664
  20560091.152   -17905837.90849 -13933077.48449  20560091.8274   20560097.8884
 96  7 13  1 59 29.9930000  0  8  3 15 23 25 21  1  9 31
  21263709.544   -18166936.69949 -13546581.99849  21263711.6694   21263718.9504
  21480438.065   -11294953.56349  -8215530.88749  21480439.1054   21480444.3224
  21521103.864   -17906817.91649 -13367646.25049  21521104.5134   21521111.0324
  22025812.385    -8388547.76749  -6262858.03849  22025812.8414   22025819.8194
  18850287.188   -32956834.78249 -25652551.54649  18850288.2134   18850292.7614
  18236540.186   -29337550.60949 -22555363.12049  18236541.0564   18236545.6974
  22586961.674    -9058311.87949  -6848589.74549  22586963.0594   22586967.6854
  20567656.212   -17866090.56349 -13902105.56849  20567655.7524   20567660.9974
 96  7 13  1 59 59.9930000  0  8  3 15 23 25 21  1  9 31
  21279898.196   -18081867.63049 -13480294.49849  21279900.3044   21279906.8414
  21459566.185   -11404632.33249  -8300994.82149  21459567.0824   21459572.7254
  21533362.931   -17842398.98649 -13317449.73749  21533363.8354   21533369.0464
  22005305.537    -8496309.34549  -6346827.99049  22005306.7674   22005314.3274
  18854667.111   -32933816.98449 -25634615.60349  18854667.9074   18854672.7974
  18236300.281   -29338813.18849 -22556346.94049  18236301.0294   18236305.4334
  22598984.612    -8995135.48649  -6799361.39049  22598985.6114   22598990.7654
  20575317.917   -17825822.94149 -13870728.25049  20575318.7864   20575324.0284
 96  7 13  2  0 29.9930000  0  8  3 15 23 25 21  1  9 31
  21296125.474   -17996597.00349 -13413849.92249  21296125.4834   21296132.3574
  21438727.054   -11514144.37549  -8386328.84249  21438727.7974   21438734.2054
  21545639.244   -17777887.23049 -13267180.87849  21545639.7274   21545645.4364
  21984810.296    -8604016.51849  -6430755.54449  21984810.4054   21984817.9234
  18859096.957   -32910539.39449 -25616477.22649  18859097.9094   18859102.3824
  18236157.708   -29339561.59449 -22556930.10949  18236158.3544   18236163.1174
  22611088.837    -8931522.65549  -6749792.95549  22611090.2854   22611095.3364
  20583078.400   -17785037.74049 -13838947.62449  20583079.7914   20583085.2604
 96  7 13  2  0 59.9930000  0  8  3 15 23 25 21  1  9 31
  21312386.728   -17911142.05949 -13347261.75049  21312387.6754   21312394.6074
  21417919.180   -11623486.84549  -8471530.73149  21417920.4494   21417926.2234
  21557932.370   -17713287.09749 -13216843.15149  21557933.1914   21557938.3344
  21964325.267    -8711657.91949  -6514631.85949  21964327.0174   21964333.3014
  18863577.677   -32886993.45349 -25598129.74749  18863578.6704   18863583.0584
  18236111.782   -29339801.33649 -22557116.91649  18236113.0464   18236117.3634
  22623280.079    -8867459.51449  -6699873.62849  22623281.8674   22623286.9714
  20590937.456   -17743740.25249 -13806767.81449  20590938.7514   20590943.8944
 96  7 13  2  1 29.9930000  0  8  3 15 23 25 21  1  9 31
  21328677.884   -17825529.58049 -13280550.80249  21328680.2654   21328685.4724
  21397142.543   -11732667.24749  -8556606.33249  21397144.6514   21397150.0974
  21570243.510   -17648592.02549 -13166431.45449  21570243.9434   21570250.0964
  21943856.429    -8819222.43849  -6598448.24149  21943858.7514   21943866.0604
  18868107.713   -32863189.12849 -25579580.92949  18868108.2384   18868112.6764
  18236156.583   -29339565.00949 -22556932.76049  18236157.8324   18236162.5494
  22635555.544    -8802949.73849  -6649606.27849  22635557.2334   22635561.6794
  20598886.857   -17701969.91149 -13774219.53749  20598887.3284   20598892.7954
 96  7 13  2  1 59.9930000  0  8  3 15 23 25 21  1  9 31
  21345002.520   -17739746.08349 -13213706.59549  21345004.7144   21345009.6654
  21376399.894   -11841671.95049  -8641545.01149  21376401.1724   21376407.1744
  21582579.678   -17583762.98549 -13115915.36049  21582581.0234   21582586.3724
  21923406.134    -8926693.82449  -6682192.07749  21923407.4474   21923414.0674
  18872687.172   -32839121.30849 -25560826.78949  18872688.2814   18872692.7034
  18236293.813   -29338844.06749 -22556370.98249  18236294.8904   18236299.7984
  22647916.777    -8737991.24949  -6598989.27349  22647918.1384   22647923.6974
  20606924.702   -17659726.39049 -13741302.56049  20606925.7014   20606931.0614
 96  7 13  2  2 29.9930000  0  8  3 15 23 25 21  1  9 31
  21361362.101   -17653773.79649 -13146715.27349  21361362.4584   21361369.3974
  21355693.851   -11950484.34349  -8726333.84549  21355694.3694   21355700.5674
  21594944.457   -17518785.74349 -13065283.79149  21594945.1504   21594951.3064
  21902974.192    -9034062.54149  -6765855.88449  21902975.4984   21902982.4974
  18877320.562   -32814773.14949 -25541854.20749  18877321.4844   18877325.9684
  18236526.449   -29337621.76649 -22555418.53649  18236527.4524   18236532.5084
  22660363.353    -8672584.43849  -6548022.92349  22660364.9764   22660369.6934
  20615056.048   -17616997.92549 -13708007.71249  20615056.9504   20615062.1434
 96  7 13  2  2 59.9930000  0  8  3 15 23 25 21  1  9 31
  21377758.055   -17567613.46849 -13079577.43449  21377760.4524   21377765.8204
  21335019.480   -12059124.65649  -8810988.57649  21335021.2264   21335027.0894
  21607333.008   -17453681.49749 -13014553.25149  21607334.4674   21607339.5964
  21882557.689    -9141345.43849  -6849452.82749  21882560.5084   21882566.1494
  18882005.831   -32790152.23349 -25522669.08449  18882007.1174   18882011.1824
  18236850.200   -29335919.07849 -22554091.76449  18236851.4114   18236856.0664
  22672890.197    -8606750.38649  -6496723.66849  22672892.5034   22672897.5624
  20623273.194   -17573814.27349 -13674358.15949  20623274.3724   20623279.5054
 96  7 13  2  3 29.9930000  0  8  3 15 23 25 21  1  9 31
  21394192.292   -17481251.48449 -13012282.45649  21394193.0914   21394199.2654
  21314378.539   -12167595.30549  -8895511.10949  21314379.6984   21314385.4374
  21619746.082   -17388447.80049 -12963721.85349  21619748.4404   21619753.8044
  21862160.523    -9248541.28549  -6932981.92949  21862160.9364   21862167.0484
  18886741.888   -32765263.88449 -25503275.57349  18886742.7694   18886746.9824
  18237264.662   -29333740.95349 -22552394.52149  18237266.0154   18237270.5394
  22685494.501    -8540512.28949  -6445109.57649  22685497.1184   22685501.4364
  20631578.089   -17530175.04449 -13640353.62349  20631578.4964   20631584.0484
 96  7 13  2  3 59.9930000  0  7  3 15 23 25 21  1 31
  21410667.474   -17394675.66349 -12944820.86749  21410668.8984   21410675.0114
  21293771.472   -12275888.69649  -8979895.51149  21293772.6314   21293777.2614
  21632185.259   -17323083.69149 -12912788.82749  21632186.6144   21632192.1194
  21841776.782    -9355655.63849  -7016447.53849  21841778.1454   21841785.5754
  18891531.510   -32740092.79849 -25483661.74949  18891532.7904   18891537.0994
  18237772.858   -29331071.82049 -22550314.67249  18237774.0244   18237778.4474
  20639971.655   -17486057.52649 -13605976.39749  20639973.7944   20639979.3164
 96  7 13  2  4 29.9930000  0  7  3 15 23 25 21  1 31
  21427185.099   -17307866.99949 -12877177.83249  21427187.9354   21427193.5074
  21273202.047   -12383977.61349  -9064120.58749  21273203.9494   21273209.6914
  21644651.520   -17257573.34749 -12861741.85049  21644652.1864   21644658.7444
  21821412.828    -9462663.66149  -7099830.27649  21821415.0654   21821422.1534
  18896380.363   -32714611.20649 -25463805.97249  18896381.7484   18896385.7464
  18238377.772   -29327891.47649 -22547836.47549  18238379.1454   18238383.8114
  20648461.997   -17441445.29549 -13571213.66949  20648463.5874   20648468.7454
 96  7 13  2  4 59.9930000  0  7  3 15 23 25 21  1 31
  21443744.660   -17220845.88949 -12809369.26949  21443747.2094   21443754.6284
  21252670.591   -12491870.87449  -9148193.21349  21252672.5044   21252677.2834
  21657143.545   -17191926.35949 -12810588.40149  21657145.3024   21657149.6304
  21801068.143    -9569572.29349  -7183135.57349  21801070.7554   21801077.2184
  18901286.348   -32688830.31049 -25443716.97349  18901287.7874   18901292.0704
  18239077.434   -29324215.79249 -22544972.30449  18239078.8764   18239082.8964
  20657043.017   -17396356.36649 -13536079.48949  20657043.5904   20657049.4434
 96  7 13  2  5 29.9930000  0  7  3 15 23 25 21  1 31
  21460343.606   -17133622.10949 -12741402.79249  21460345.0564   21460352.4524
  21232178.234   -12599556.68349  -9232104.19249  21232180.8014   21232185.5224
  21669660.590   -17126149.57849 -12759333.81049  21669661.7244   21669666.7854
  21780741.420    -9676389.57449  -7266369.68449  21780743.2074   21780750.6954
  18906249.410   -32662749.60649 -25423394.35449  18906250.4784   18906254.9274
  18239872.834   -29320031.20149 -22541711.58449  18239874.8164   18239879.2984
  20665715.394   -17350777.70049 -13500563.70149  20665717.2204   20665722.3224
 96  7 13  2  5 59.9930000  0  7  3 15 23 25 21  1 31
  21476975.136   -17046218.88649 -12673296.48049  21476977.3994   21476985.0594
  21211724.767   -12707044.14849  -9315860.60349  21211726.5964   21211730.3384
  21682199.131   -17060255.99249 -12707988.20549  21682200.2204   21682205.1834
  21760430.826    -9783130.91949  -7349544.62849  21760430.9354   21760438.0594
  18911267.630   -32636379.99749 -25402846.61549  18911268.7014   18911273.1614
  18240763.777   -29315353.39049 -22538066.52949  18240765.2974   18240769.4464
  20674477.064   -17304737.27449 -13464688.08749  20674477.9294   20674483.3794
 96  7 13  2  6 29.9930000  0  7  3 15 23 25 21  1 31
  21493646.985   -16958612.57349 -12605031.92349  21493648.5354   21493655.6894
  21191312.710   -12814311.71449  -9399445.67749  21191313.2124   21191318.1184
  21694763.719   -16994230.50149 -12656539.80849  21694765.7514   21694770.2984
  21740138.334    -9889762.59649  -7432634.12749  21740140.5794   21740146.9224
  18916342.607   -32609710.50449 -25382065.20249  18916343.9034   18916348.0334
  18241750.774   -29310166.20949 -22534024.57049  18241752.3244   18241756.6014
  20683327.990   -17258228.06749 -13428447.18649  20683328.7294   20683333.8574
 96  7 13  2  6 59.9930000  0  7  3 15 23 25 21  1 31
  21510359.495   -16870792.87949 -12536601.11249  21510359.7164   21510367.3344
  21170943.686   -12921348.85149  -9482851.20949  21170944.8524   21170949.8544
  21707355.431   -16928059.88549 -12604978.31849  21707357.1974   21707363.2254
  21719869.793    -9996275.01149  -7515630.68449  21719871.7344   21719877.7254
  18921475.679   -32582734.99849 -25361045.33449  18921477.1344   18921481.4824
  18242836.409   -29304461.96549 -22529579.70349  18242837.7694   18242842.2794
  20692270.074   -17211230.60449 -13391825.82949  20692272.3864   20692277.7444
 96  7 13  2  7 29.9930000  0  7  3 15 23 25 21  1 31
  21527110.006   -16782761.04849 -12468004.99549  21527112.0424   21527119.9764
  21150618.697   -13028156.58049  -9566077.96549  21150619.2034   21150625.4494
  21719976.888   -16861736.23649 -12553297.56749  21719977.4774   21719983.2634
  21699623.272   -10102670.05149  -7598535.78649  21699625.3494   21699631.1204
  18926664.887   -32555466.17749 -25339796.90749  18926666.4764   18926670.5894
  18244017.178   -29298257.06149 -22524744.70949  18244018.3384   18244022.6774
  20701308.469   -17163738.10049 -13354818.73049  20701309.9474   20701315.1194
 96  7 13  2  7 59.9930000  0  7  3 15 23 25 21  1 31
  21543902.253   -16694519.85949 -12399245.74249  21543904.5244   21543911.1064
  21130337.816   -13134731.88549  -9649123.63549  21130338.4864   21130344.0784
  21732629.956   -16795242.43149 -12501484.24049  21732630.4564   21732636.3714
  21679402.731   -10208927.05549  -7681333.32649  21679405.4914   21679410.9124
  18931911.022   -32527897.97849 -25318315.20149  18931912.4924   18931916.4384
  18245290.022   -29291563.86949 -22519529.22749  18245291.8984   18245296.7654
  20710438.887   -17115751.89549 -13317426.91949  20710441.4834   20710446.7074
 96  7 13  2  8 29.9930000  0  7  3 15 23 25 21  1 31
  21560729.706   -16606088.93549 -12330338.65049  21560731.3114   21560739.1694
  21110102.241   -13241074.13349  -9731987.69349  21110103.1234   21110108.5214
  21745315.322   -16728581.66949 -12449540.81649  21745316.7894   21745322.0614
  21659209.252   -10315048.51049  -7764025.24849  21659210.7204   21659215.8794
  18937213.620   -32500031.92449 -25296601.40049  18937215.1244   18937219.2944
  18246657.110   -29284381.74749 -22513932.76449  18246658.6264   18246663.2794
  20719666.857   -17067263.22049 -13279643.58049  20719668.0514   20719673.4004
 96  7 13  2  8 59.9930000  0  7  3 15 23 25 21  1 31
  21577590.945   -16517486.34149 -12261297.78449  21577592.6734   21577600.4974
  21089911.178   -13347175.94149  -9814664.40049  21089913.1674   21089918.7854
  21758031.918   -16661755.11549 -12397468.20949  21758033.3694   21758039.6114
  21639041.097   -10421031.93249  -7846609.62449  21639042.2084   21639047.9474
  18942575.508   -32471854.68749 -25274645.11949  18942576.9334   18942581.2494
  18248116.690   -29276711.31349 -22507955.80249  18248118.0944   18248122.8104
  20728990.221   -17018266.69849 -13241464.51549  20728992.2404   20728997.2164
 96  7 13  2  9 29.9930000  0  7  3 15 23 25 21  1 31
  21594482.326   -16428729.56049 -12192136.76149  21594482.7224   21594489.8524
  21069768.450   -13453028.07049  -9897146.54649  21069770.4484   21069775.2124
  21770779.472   -16594766.85349 -12345269.58649  21770780.9264   21770786.7214
  21618901.125   -10526867.20949  -7929078.55849  21618902.8534   21618908.8864
  18947999.578   -32443349.78849 -25252433.51049  18948001.2474   18948005.8074
  18249670.674   -29268546.26649 -22501593.42749  18249672.2974   18249676.5134
  20738408.025   -16968774.00249 -13202898.81449  20738410.4494   20738415.3954
 96  7 13  2  9 59.9930000  0  7  3 15 23 25 21  1 31
  21611398.169   -16339826.14049 -12122861.47549  21611400.7644   21611407.6454
  21049672.996   -13558630.30549  -9979433.97049  21049674.9394   21049679.9614
  21783553.908   -16527638.02349 -12292961.43349  21783554.7014   21783559.4314
  21598789.078   -10632556.97249  -8011434.09949  21598790.8134   21598796.3384
  18953486.232   -32414516.64449 -25229966.13249  18953488.0034   18953492.4584
  18251320.926   -29259872.42949 -22494834.59349  18251322.6574   18251327.1344
  20747916.354   -16918809.72749 -13163965.64849  20747917.7074   20747923.4224
 96  7 13  2 10 29.9930000  0  7  3 15 23 25 21  1 31
  21628342.694   -16250789.78349 -12053482.57749  21628343.6454   21628351.5414
  21029622.053   -13663995.66249 -10061536.80849  21029623.7944   21029628.6194
  21796350.833   -16460387.92349 -12240558.80249  21796352.1804   21796357.4044
  21578700.263   -10738122.82149  -8093693.08049  21578702.3564   21578708.8394
  18959030.818   -32385380.81449 -25207262.89649  18959032.3884   18959036.7734
  18253068.401   -29250691.24549 -22487680.42749  18253070.0874   18253074.0884
  20757510.933   -16868391.25149 -13124678.54749  20757511.7344   20757517.9274
 96  7 13  2 10 59.9930000  0  7  3 15 23 25 21  1 31
  21645314.635   -16161593.04849 -11983978.72749  21645316.3814   21645324.1824
  21009619.581   -13769111.03249 -10143444.86249  21009621.0734   21009626.8274
  21809173.878   -16393004.64749 -12188052.38849  21809175.0834   21809180.2624
  21558640.335   -10843540.98649  -8175836.98349  21558641.6424   21558647.2694
  18964634.019   -32355935.69449 -25184318.64749  18964635.4204   18964640.1014
  18254914.573   -29240992.69049 -22480123.10449  18254915.7894   18254919.6634
  20767192.200   -16817515.91149 -13085035.45949  20767193.3084   20767198.6734
 96  7 13  2 11 29.9930000  0  7  3 15 23 25 21  1 31
  21662323.225   -16072217.31449 -11914335.41049  21662324.9284   21662332.4704
  20989664.939   -13873972.41949 -10225155.00349  20989666.5104   20989672.1254
  21822024.631   -16325472.97849 -12135430.35149  21822026.7644   21822031.5744
  21538609.519   -10948797.97049  -8257855.29849  21538611.8194   21538617.2284
  18970294.186   -32326190.78249 -25161140.79949  18970295.7304   18970300.2984
  18256859.042   -29230769.54949 -22472157.02149  18256860.8664   18256865.1664
  20776959.359   -16766187.76149 -13045039.53349  20776960.9424   20776966.6254
 96  7 13  2 11 59.9930000  0  7  3 15 23 25 21  1 31
  21679368.279   -15982648.54749 -11844541.68649  21679369.8984   21679375.7684
  20969758.759   -13978577.20749 -10306665.19549  20969761.5504   20969766.5674
  21834905.143   -16257785.41649 -12082686.82949  21834906.3454   21834912.2354
  21518610.885   -11053892.71449  -8339747.19749  21518612.1284   21518618.7184
  18976009.125   -32296159.61349 -25137739.89449  18976010.3444   18976015.0084
  18258905.180   -29220019.33549 -22463780.22749  18258906.9524   18258910.8884
  20786815.074   -16714398.68249 -13004684.43049  20786816.3034   20786821.6144
 96  7 13  2 12 29.9930000  0  7  3 15 23 25 21  1 31
  21696449.903   -15892885.61149 -11774596.62749  21696451.6454   21696457.0744
  20949904.169   -14082914.95649 -10387967.31349  20949906.1154   20949911.8414
  21847819.617   -16189916.18849 -12029801.75349  21847820.9254   21847827.0964
  21498646.015   -11158810.97249  -8421501.56249  21498647.0884   21498653.3654
  18981781.936   -32265821.80549 -25114100.04749  18981783.2914   18981787.8304
  18261049.652   -29208748.49949 -22454997.74949  18261051.4814   18261055.5504
  20796760.035   -16662134.93449 -12963959.46549  20796761.3624   20796767.5574
 96  7 13  2 12 59.9930000  0  7  3 15 23 25 21  1 31
  21713564.633   -15802944.10549 -11704512.44449  21713566.5154   21713573.7744
  20930097.989   -14186994.33149 -10469068.09049  20930100.3084   20930106.4644
  21860764.850   -16121886.04849 -11976791.28649  21860767.3264   21860772.8444
  21478712.083   -11263558.55449  -8503122.94649  21478714.3634   21478720.1034
  18987612.999   -32235180.66549 -25090223.83549  18987614.5284   18987618.6074
  18263287.911   -29196986.73149 -22445832.72749  18263289.7884   18263293.8524
  20806791.965   -16609419.33149 -12922882.40749  20806793.0634   20806798.1254
 96  7 13  2 13 29.9930000  0  7  3 15 23 25 21  1 31
  21730710.901   -15712837.95849 -11634299.98649  21730713.8904   21730719.6694
  20910343.503   -14290809.56649 -10549963.05049  20910345.5434   20910350.8924
  21873741.080   -16053698.94049 -11923658.50549  21873742.7284   21873747.8774
  21458810.768   -11368146.42949  -8584619.87249  21458811.9904   21458818.2934
  18993502.354   -32204230.22249 -25066106.62049  18993503.9534   18993508.5174
  18265619.363   -29184735.95949 -22436286.66549  18265620.8084   18265624.9034
  20816908.875   -16556250.72649 -12881452.37149  20816910.2334   20816916.8574
 96  7 13  2 13 59.9930000  0  7  3 15 23 25 21  1 31
  21747888.596   -15622569.86749 -11563961.31249  21747889.7494   21747896.3844
  20890639.710   -14394353.82749 -10630646.83049  20890641.2564   20890646.5614
  21886746.350   -15985357.38349 -11870405.37149  21886749.0764   21886753.1784
  21438937.430   -11472579.96449  -8665996.53449  21438939.3524   21438945.5304
  18999454.228   -32172952.79349 -25041734.60249  18999455.6984   18999460.2774
  18268042.142   -29172002.70249 -22426364.64249  18268043.8484   18268048.3304
  20827114.010   -16502628.85149 -12839669.13349  20827114.8924   20827120.4444
 96  7 13  2 14 29.9930000  0  7  3 15 23 25 21  1 31
  21765094.768   -15532146.50149 -11493501.66149  21765097.7154   21765104.9694
  20870986.287   -14497631.02349 -10711122.52049  20870988.0934   20870993.8044
  21899778.525   -15916872.34249 -11817040.43949  21899780.0854   21899785.3544
  21419093.209   -11576858.02849  -8747252.05349  21419095.6574   21419101.8094
  19005468.339   -32141348.75449 -25017108.08749  19005470.0934   19005474.4514
  18270554.937   -29158797.89449 -22416075.17849  18270556.5584   18270560.9814
  20837401.150   -16448567.92749 -12797543.77349  20837402.5454   20837408.0484
 96  7 13  2 14 59.9930000  0  7  3 15 23 25 21  1 31
  21782332.141   -15441572.24149 -11422924.43149  21782334.0134   21782340.7754
  20851384.760   -14600638.67749 -10791388.17349  20851385.7814   20851392.4874
  21912834.429   -15848261.13549 -11763577.17149  21912835.5864   21912842.2294
  21399280.144   -11680978.15049  -8828384.49349  21399282.4084   21399287.4884
  19011541.872   -32109432.68049 -24992238.42749  19011543.2124   19011547.5874
  18273158.982   -29145113.34449 -22405411.88949  18273160.7104   18273165.1014
  20847772.473   -16394062.52549 -12755072.08049  20847774.4504   20847780.0934
 96  7 13  2 15 29.9930000  0  7  3 15 23 25 21  1 31
  21799594.433   -15350851.67349 -11352233.19549  21799597.4904   21799604.3584
  20831834.391   -14703375.66449 -10871442.94149  20831836.3454   20831841.7874
  21925916.549   -15779516.93649 -11710010.28749  21925918.5024   21925922.5064
  21379496.778   -11784941.95849  -8909395.13949  21379497.9054   21379504.6654
  19017674.914   -32077203.98349 -24967125.16849  19017676.2044   19017680.9934
  18275858.098   -29130929.48949 -22394359.53849  18275859.6604   18275864.3294
  20858229.890   -16339112.06249 -12712253.59149  20858230.8624   20858237.0254
 96  7 13  2 15 59.9930000  0  7  3 15 23 25 21  1 31
  21816887.750   -15259985.16749 -11281428.23249  21816888.9204   21816895.1864
  20812335.098   -14805845.51549 -10951289.54349  20812336.2944   20812343.0624
  21939023.954   -15710631.04349 -11656332.99349  21939026.0704   21939031.9124
  21359744.759   -11888736.78149  -8990274.11149  21359746.6274   21359752.4684
  19023866.412   -32044667.87049 -24941772.36449  19023867.4744   19023872.0964
  18278651.682   -29116249.94249 -22382920.92949  18278653.1704   18278657.7634
  20868769.378   -16283726.15149 -12669095.78949  20868770.5994   20868776.4164
 96  7 13  2 16 29.9930000  0  7  3 15 23 25 21  1 31
  21834205.943   -15168972.48249 -11210509.36049  21834208.5154   21834214.3464
  20792888.793   -14908034.33349 -11030917.15549  20792890.8244   20792896.6584
  21952161.452   -15641598.30649 -11602541.27149  21952162.6084   21952168.1714
  21340029.526   -11992340.82549  -9071004.42649  21340031.9184   21340037.5244
  19030114.964   -32011830.22449 -24916184.60149  19030116.5414   19030120.8284
  18281541.908   -29101061.76049 -22371085.98149  18281543.3394   18281548.0654
  20879394.689   -16227889.89349 -12625587.07049  20879395.9304   20879401.2574
 96  7 13  2 16 59.9930000  0  7  3 15 23 25 21  1 31
  21851553.846   -15077807.52449 -11139471.85349  21851556.1744   21851563.1934
  20773499.100   -15009931.74849 -11110317.69349  20773500.3154   20773505.9414
  21965328.700   -15572403.12849 -11548622.97849  21965330.1204   21965336.2374
  21320352.771   -12095743.04149  -9151577.47849  21320353.6654   21320360.3404
  19036423.656   -31978677.80249 -24890351.55449  19036425.1074   19036429.6164
  18284528.256   -29085365.83649 -22358855.39449  18284530.2704   18284534.8934
  20890105.251   -16171607.25549 -12581730.50349  20890105.6834   20890112.0634
 96  7 13  2 17 29.9930000  0  7  3 15 23 25 21  1 31
  21868930.780   -14986494.77549 -11068319.20749  21868932.4044   21868939.5394
  20754162.538   -15111542.19249 -11189494.62749  20754164.1444   20754170.2354
  21978530.446   -15503031.97449 -11494567.56849  21978531.3554   21978537.2674
  21300713.699   -12198941.53949  -9231991.78249  21300716.0564   21300722.9054
  19042790.304   -31945218.61949 -24864279.46849  19042791.9894   19042796.6884
  18287608.322   -29069182.26749 -22346244.81749  18287609.9024   18287614.5484
  20900895.600   -16114898.03949 -12537541.55349  20900897.9484   20900903.1184
 96  7 13  2 17 59.9930000  0  7  3 15 23 25 21  1 31
  21886333.408   -14895038.95149 -10997055.04549  21886335.1304   21886342.8944
  20734881.159   -15212865.22649 -11268447.60549  20734883.5334   20734889.0374
  21991763.036   -15433489.03649 -11440378.30049  21991764.3054   21991770.9794
  21281116.707   -12301928.23049  -9312241.04749  21281118.3824   21281124.3974
  19049214.040   -31911463.03149 -24837976.42149  19049215.6924   19049220.4104
  18290775.396   -29052539.50549 -22333276.42749  18290776.7244   18290781.4074
  20911769.167   -16057759.75949 -12493018.26649  20911770.7664   20911777.0184
 96  7 13  2 18 29.9930000  0  7  3 15 23 25 21  1 31
  21903763.365   -14803441.24149 -10925680.34049  21903765.2534   21903772.8974
  20715657.616   -15313889.39049 -11347167.70949  20715658.7784   20715664.8184
  22005029.544   -15363774.16649 -11386055.06049  22005031.3804   22005036.9654
  21261560.368   -12404701.62949  -9392324.10249  21261561.6954   21261567.3134
  19055696.084   -31877402.07349 -24811435.43049  19055697.4934   19055701.6814
  18294031.855   -29035424.85049 -22319940.33249  18294033.6324   18294038.3054
  20922726.402   -16000179.92849 -12448150.91049  20922727.8504   20922734.2814
 96  7 13  2 18 59.9930000  0  7  3 15 23 25 21  1 31
  21921214.981   -14711729.60049 -10854216.85249  21921218.1364   21921225.6624
  20696486.299   -15414632.94549 -11425669.13849  20696487.9994   20696493.4414
  22018325.453   -15293904.84849 -11331611.47549  22018326.4434   22018332.5694
  21242039.244   -12507281.31249  -9472256.22449  21242041.3144   21242046.2474
  19062234.403   -31843039.95449 -24784659.76249  19062236.2344   19062240.9164
  18297376.437   -29017850.29749 -22306245.86749  18297377.9364   18297382.5714
  20933763.799   -15942174.59449 -12402951.99549  20933766.2714   20933772.1684
 96  7 13  2 19 29.9930000  0  7  3 15 23 25 21  1 31
  21938691.620   -14619899.69849 -10782661.21549  21938692.9544   21938700.3044
  20677373.175   -15515075.84349 -11503936.29849  20677374.2044   20677379.9894
  22031649.560   -15223883.51649 -11277049.43649  22031651.3534   22031657.6874
  21222558.760   -12609651.17949  -9552024.84549  21222560.3874   21222566.2604
  19068833.486   -31808362.97849 -24757638.75149  19068834.9964   19068839.6544
  18300814.319   -28999784.52949 -22292168.64449  18300816.0634   18300820.5304
  20944889.162   -15883708.96549 -12357394.40949  20944892.0114   20944897.5324
 96  7 13  2 19 59.9930000  0  7  3 15 23 25 21  1 31
  21956188.263   -14527949.32149 -10711011.70449  21956190.0944   21956197.4254
  20658318.607   -15615206.94249 -11581960.49849  20658320.2954   20658325.5474
  22045000.739   -15153725.20249 -11222380.65549  22045001.5024   22045007.7804
  21203119.073   -12711807.95349  -9631627.43249  21203120.7784   21203125.4474
  19075494.738   -31773359.75949 -24730363.52349  19075495.9954   19075500.7044
  18304348.642   -28981208.59649 -22277693.88949  18304350.5254   18304355.4154
  20956106.026   -15824776.64249 -12311473.18149  20956105.1214   20956111.6084
 96  7 13  2 20 29.9930000  0  7  3 15 23 25 21  1 31
  21973707.586   -14435893.28749 -10639279.85249  21973708.1994   21973715.7524
  20639322.360   -15715032.73649 -11659746.81249  20639323.6714   20639328.9524
  22058374.297   -15083444.41749 -11167616.46349  22058376.0914   22058381.9654
  21183715.895   -12813771.67049  -9711079.57049  21183718.1844   21183722.8134
  19082216.209   -31738037.50949 -24702839.70149  19082217.6304   19082222.6174
  18307980.636   -28962124.24549 -22262822.96449  18307982.3694   18307987.0394
  20967401.811   -15765405.72749 -12265210.18149  20967403.7564   20967409.6344
 96  7 13  2 20 59.9930000  0  7  3 15 23 25 21  1 31
  21991243.511   -14343742.81849 -10567474.42049  21991243.8254   21991251.7514
  20620382.779   -15814557.99049 -11737298.93049  20620385.1914   20620389.9014
  22071770.113   -15013050.63549 -11112764.20349  22071772.2184   22071778.7284
  21164349.593   -12915546.45649  -9790384.50149  21164350.3884   21164356.6214
  19088996.116   -31702405.43949 -24675074.46249  19088997.9104   19089002.8184
  18311705.365   -28942549.60549 -22247569.99049  18311707.1624   18311711.6104
  20978777.480   -15705627.24249 -12218629.60049  20978779.5054   20978785.5714
 96  7 13  2 21 29.9930000  0  7  3 15 23 25 21  1 31
  22008796.276   -14251490.30749 -10495589.47349  22008799.0914   22008807.2964
  20601503.012   -15913774.30149 -11814610.33049  20601504.5944   20601509.9894
  22085190.743   -14942527.18949 -11057810.90849  22085191.4634   22085197.6744
  21145017.601   -13017131.62649  -9869541.68649  21145019.3064   21145025.6104
  19095836.463   -31666462.03849 -24647066.62949  19095837.8244   19095842.5934
  18315522.973   -28922489.72149 -22231938.91249  18315524.4764   18315528.8154
  20990227.955   -15645454.31749 -12171741.65149  20990229.4954   20990235.8384
 96  7 13  2 21 59.9930000  0  7  3 15 23 25 21  1 31
  22026369.217   -14159153.16649 -10423638.56949  22026370.4494   22026378.7284
  20582679.167   -16012693.29549 -11891690.03449  20582680.3634   20582686.8534
  22098636.396   -14871864.73949 -11002749.30349  22098638.8224   22098644.6494
  21125717.450   -13118551.15049  -9948569.78349  21125720.2554   21125725.4174
  19102733.553   -31630217.65749 -24618824.26049  19102734.9034   19102739.5394
  18319427.337   -28901972.16749 -22215951.20349  18319428.8134   18319433.5834
  21001748.009   -15584915.42949 -12124568.53649  21001750.5614   21001755.8534
 96  7 13  2 22 29.9930000  0  7  3 15 23 25 21  1 31
  22043954.457   -14066731.32049 -10351621.67049  22043957.3834   22043966.6614
  20563913.977   -16111304.76849 -11968530.11549  20563915.4364   20563921.4794
  22112115.368   -14801038.43349 -10947560.01749  22112115.5374   22112121.3304
  21106453.885   -13219783.48749 -10027452.03649  21106456.1524   21106460.5964
  19109691.149   -31593654.39849 -24590333.41649  19109692.8794   19109697.1724
  18323418.180   -28880998.67349 -22199608.21849  18323419.8524   18323424.5964
  21013340.486   -15524003.82749 -12077105.00449  21013340.3194   21013347.7774
 96  7 13  2 22 59.9930000  0  7  3 15 23 25 21  1 31
  22061557.979   -13974225.85549 -10279539.62849  22061561.0754   22061569.5214
  20545208.148   -16209605.70749 -12045128.22349  20545209.0264   20545215.1864
  22125623.518   -14730047.48749 -10892242.43249  22125625.1444   22125630.9864
  21087228.636   -13320813.27449 -10106176.45249  21087230.3734   21087235.7644
  19116710.447   -31556767.17449 -24561590.13349  19116712.1604   19116716.8964
  18327496.521   -28859566.31849 -22182907.67549  18327498.3024   18327503.2824
  21025004.070   -15462706.07249 -12029340.57549  21025005.6854   21025012.0634
 96  7 13  2 23 29.9930000  0  7  3 15 23 25 21  1 31
  22079183.963   -13881614.53549 -10207375.08249  22079185.3604   22079192.2674
  20526564.074   -16307581.60249 -12121473.04849  20526565.6104   20526571.5544
  22139164.757   -14658885.34449 -10836791.45649  22139166.8534   22139171.9254
  21068044.583   -13421624.12249 -10184730.27749  21068046.2304   21068051.5174
  19123794.284   -31519544.53849 -24532585.48649  19123795.5574   19123800.2914
  18331663.870   -28837667.38849 -22165843.56949  18331665.3934   18331670.3704
  21036748.479   -15400999.70249 -11981257.73249  21036748.3014   21036754.2864
 96  7 13  2 23 59.9930000  0  7  3 15 23 25 21  1 31
  22096821.843   -13788928.86249 -10135152.60249  22096821.2754   22096829.2894
  20507976.527   -16405259.84949 -12197585.95149  20507977.9664   20507984.0524
  22152730.823   -14587596.47749 -10781241.72749  22152733.5594   22152739.7194
  21048899.611   -13522231.03549 -10263125.19749  21048901.7594   21048906.6524
  19130933.720   -31482024.31849 -24503348.95449  19130935.4394   19130940.2314
  18335912.987   -28815339.37149 -22148445.11749  18335914.3894   18335919.0374
  21048560.082   -15338918.24749 -11932882.61849  21048561.7374   21048568.1114
 96  7 13  2 24 29.9930000  0  7  3 15 23 25 21  1 31
  22114473.097   -13696158.71149 -10062864.28649  22114476.6154   22114483.3584
  20489448.243   -16502627.77249 -12273457.03449  20489449.7604   20489455.0724
  22166319.963   -14516185.95549 -10725597.18949  22166322.0824   22166328.7824
  21029798.846   -13622602.68449 -10341336.78049  21029801.1394   21029807.2794
  19138130.367   -31444204.32049 -24473878.83149  19138132.0284   19138137.0564
  18340245.494   -28792570.48349 -22130703.12049  18340247.2074   18340251.8634
  21060447.649   -15276454.12249 -11884209.31149  21060448.3894   21060455.0614
 96  7 13  2 24 59.9930000  0  7  3 15 23 25 21  1 31
  22132145.925   -13603289.40749  -9990498.73949  22132147.7404   22132155.4234
  20470980.105   -16599676.03349 -12349079.03549  20470981.5014   20470987.0184
  22179934.078   -14444648.69049 -10669853.87249  22179934.6474   22179941.3824
  21010742.695   -13722743.95549 -10419368.86249  21010744.8774   21010749.7564
  19145383.853   -31406089.24849 -24444178.78049  19145385.3084   19145390.2094
  18344663.944   -28769352.37549 -22112611.08449  18344665.3564   18344670.2284
  21072408.085   -15213598.23949 -11835230.73649  21072409.4074   21072416.0734
 96  7 13  2 25 29.9930000  0  7  3 15 23 25 21  1 31
  22149836.147   -13510334.62749  -9918066.55649  22149835.8144   22149844.4714
  20452572.957   -16696409.66049 -12424455.86149  20452574.1084   20452579.2804
  22193571.892   -14372980.92549 -10614008.88649  22193574.0464   22193579.7514
  20991729.528   -13822661.44449 -10497226.56549  20991731.2284   20991737.1104
  19152691.098   -31367688.89849 -24414256.43549  19152692.5394   19152697.4014
  18349164.769   -28745699.36449 -22094180.16549  18349166.6244   18349171.1494
  21084442.239   -15150364.26449 -11785957.53649  21084442.9284   21084449.3424
 96  7 13  2 25 59.9930000  0  7  3 15 23 25 21  1 31
  22167537.283   -13417309.24649  -9845579.35649  22167538.0274   22167545.8204
  20434225.945   -16792821.51749 -12499581.97149  20434227.4354   20434232.7494
  22207238.130   -14301164.17549 -10558047.82249  22207239.5104   22207245.3064
  20972760.684   -13922344.26249 -10574901.40149  20972761.7534   20972767.4904
  19160054.049   -31328996.91149 -24384106.83949  19160055.3114   19160060.1294
  18353751.467   -28721597.71049 -22075399.65249  18353752.8374   18353757.8034
  21096547.480   -15086741.25149 -11736381.20449  21096549.8944   21096556.4064
 96  7 13  2 26 29.9930000  0  7  3 15 23 25 21  1 31
  22185254.860   -13324205.33849  -9773030.96649  22185257.7214   22185263.8934
  20415941.541   -16888905.90949 -12574452.88749  20415942.8594   20415948.5034
  22220933.974   -14229190.29449 -10501964.33349  22220934.6094   22220941.5924
  20953836.423   -14021790.98249 -10652392.26849  20953838.1644   20953843.5614
  19167474.556   -31290002.57849 -24353721.65049  19167475.8164   19167480.5594
  18358426.215   -28697031.01649 -22056256.77449  18358427.8654   18358432.7244
  21108732.694   -15022715.49749 -11686491.05149  21108733.6004   21108740.0764
 96  7 13  2 26 59.9930000  0  7  3 15 23 25 21  1 31
  22202984.336   -13231032.68049  -9700429.02849  22202987.0084   22202994.6134
  20397718.654   -16984665.96649 -12649071.08649  20397720.5084   20397725.4124
  22234659.403   -14157063.08849 -10445761.36649  22234660.7784   22234667.6134
  20934954.244   -14121016.15149 -10729710.49849  20934956.3224   20934961.9414
  19174953.473   -31250699.31149 -24323095.73449  19174955.0614   19174959.9174
  18363188.535   -28672004.99849 -22036755.98149  18363190.0554   18363194.7554
  21120988.773   -14958301.64049 -11636298.49749  21120990.9554   21120996.9234
 96  7 13  2 27 29.9930000  0  7  3 15 23 25 21  1 31
  22220722.034   -13137819.37349  -9627795.38949  22220723.7654   22220731.2814
  20379555.201   -17080116.58349 -12723448.15949  20379556.8104   20379562.0424
  22248409.722   -14084802.70549 -10389454.61849  22248412.2114   22248417.9874
  20916113.617   -14220027.13349 -10806861.84149  20916114.6254   20916120.0574
  19182490.547   -31211091.83149 -24292232.77149  19182492.0144   19182496.8254
  18368035.047   -28646535.27449 -22016909.44649  18368036.6184   18368041.2214
  21133315.483   -14893531.15949 -11585828.03049  21133316.7314   21133322.5124
 96  7 13  2 27 59.9930000  0  7  3 15 23 25 21  1 31
  22238469.801   -13044563.17249  -9555128.32549  22238470.8824   22238479.3904
  20361450.852   -17175254.41549 -12797581.50849  20361452.9334   20361457.9604
  22262184.987   -14012419.05649 -10333051.78649  22262185.7924   22262192.7634
  20897313.356   -14318822.45249 -10883845.11649  20897315.0634   20897320.7714
  19190085.599   -31171181.32449 -24261133.67649  19190086.7914   19190091.6464
  18372967.011   -28620619.36349 -21996715.22749  18372968.2964   18372972.5624
  21145706.455   -14828414.84349 -11535088.07349  21145707.3994   21145713.8644
 96  7 13  2 28 29.9930000  0  7  3 15 23 25 21  1 31
  22256228.967   -12951238.07149  -9482407.60049  22256229.9844   22256238.2764
  20343410.043   -17270060.60249 -12871456.42549  20343411.8904   20343416.6504
  22275983.875   -13939901.73149 -10276544.80449  22275985.8904   22275992.3574
  20878556.783   -14417386.84049 -10960648.44649  20878558.7634   20878563.6424
  19197740.584   -31130954.31449 -24229787.95749  19197741.9254   19197746.2914
  18377982.996   -28594258.92449 -21976174.62049  18377984.5254   18377988.8674
  21158164.873   -14762944.45249 -11484072.20849  21158166.4504   21158172.4564
 96  7 13  2 28 59.9930000  0  7  3 15 23 25 21  1 31
  22273997.238   -12857864.86349  -9409649.34349  22273999.5374   22274006.4744
  20325433.159   -17364531.90049 -12945070.39749  20325434.9314   20325439.5404
  22289809.784   -13867249.17149 -10219932.46549  22289810.8294   22289817.0434
  20859844.796   -14515722.06549 -11037273.21649  20859845.9134   20859851.3914
  19205453.323   -31090420.95349 -24198203.52549  19205454.7964   19205459.3014
  18383080.247   -28567473.41149 -21955302.79149  18383081.7724   18383086.1934
  21170690.971   -14697121.67649 -11432781.77349  21170692.1624   21170697.8514
 96  7 13  2 29 29.9930000  0  7  3 15 23 25 21  1 31
  22291772.157   -12764450.16049  -9336858.78449  22291774.7154   22291782.5264
  20307519.094   -17458668.62049 -13018423.66049  20307520.7784   20307526.1734
  22303660.308   -13794465.43549 -10163217.90149  22303661.0414   22303667.5964
  20841175.766   -14613822.77549 -11113715.24149  20841177.7044   20841183.1244
  19213220.372   -31049605.73749 -24166399.46049  19213221.6754   19213226.2284
  18388255.763   -28540276.85649 -21934110.66549  18388256.9554   18388261.1884
  21183283.915   -14630938.79549 -11381210.75149  21183286.6144   21183292.7094
 96  7 13  2 29 59.9930000  0  7  3 15 23 25 21  1 31
  22309553.080   -12671007.31849  -9264046.30749  22309556.8014   22309565.5274
  20289669.297   -17552469.84349 -13091515.50149  20289670.9014   20289676.2664
  22317532.217   -13721564.55749 -10106412.07849  22317533.5804   22317539.3664
  20822552.727   -14711690.60349 -11189975.80349  20822554.1174   20822559.8084
  19221037.193   -31008527.55049 -24134390.49049  19221038.8524   19221043.8184
  18393505.978   -28512685.13549 -21912610.61849  18393507.4704   18393511.8454
  21195948.955   -14564390.12749 -11329354.70049  21195950.3644   21195955.9324
 96  7 13  2 30 29.9930000  0  7  3 15 23 25 21  1 31
  22327337.371   -12577555.92249  -9191227.17049  22327340.5274   22327348.3054
  20271881.936   -17645940.46649 -13164349.71849  20271883.4494   20271889.8304
  22331425.769   -13648556.36749 -10049522.62349  22331426.1644   22331432.6214
  20803971.747   -14809329.85549 -11266058.25749  20803973.6944   20803978.9574
  19228904.210   -30967187.15749 -24102177.20149  19228905.4704   19228910.4074
  18398830.924   -28484702.31649 -21890805.82349  18398832.3594   18398836.9114
  21208681.963   -14497479.98749 -11277216.97749  21208682.3184   21208688.8314
 96  7 13  2 30 59.9930000  0  7  3 15 23 25 21  1 31
  22345120.578   -12484109.31449  -9118411.76249  22345121.7274   22345130.9594
  20254158.802   -17739077.12549 -13236923.71949  20254160.3824   20254166.1314
  22345337.539   -13575445.57649  -9992553.24249  22345339.2884   22345345.5054
  20785436.953   -14906731.66449 -11341955.68949  20785439.1914   20785443.9674
  19236821.296   -30925581.26749 -24069757.03249  19236823.0894   19236827.5634
  18404233.676   -28456310.15649 -21868682.05849  18404235.0234   18404239.9194
  21221480.566   -14430223.70549 -11224809.52449  21221481.2174   21221488.0024
 96  7 13  2 31 29.9930000  0  7  3 15 23 25 21  1 31
  22362905.144   -12390650.46749  -9045586.85249  22362906.4794   22362915.5594
  20236500.883   -17831870.84549 -13309230.48749  20236502.8944   20236507.7684
  22359270.855   -13502225.87349  -9935498.96349  22359272.3984   22359278.6524
  20766951.553   -15003873.44449 -11417650.50349  20766953.3704   20766958.6774
  19244794.296   -30883681.43749 -24037107.82149  19244796.0394   19244801.0994
  18409719.598   -28427481.24449 -21846217.96649  18409721.3204   18409725.8844
  21234341.918   -14362634.98549 -11172143.03649  21234342.7924   21234349.1194
 96  7 13  2 31 59.9930000  0  7  3 15 23 25 21  1 31
  22380695.690   -12297163.56549  -8972740.06949  22380697.3534   22380706.0634
  20218910.935   -17924308.90249 -13381260.12049  20218912.0214   20218917.6294
  22373229.019   -13428883.42349  -9878349.04449  22373229.6244   22373234.5764
  20748519.998   -15100730.27649 -11493123.27749  20748521.9994   20748527.1944
  19252831.250   -30841447.91549 -24004198.59149  19252832.7514   19252838.0074
  18415292.992   -28398193.44849 -21823396.30749  18415294.3864   18415298.9314
  21247267.457   -14294711.46449 -11119215.65149  21247267.5664   21247274.9104
 96  7 13  2 32 29.9930000  0  7  3 15 23 25 21  1 31
  22398492.359   -12203641.16249  -8899865.63649  22398494.6044   22398502.7644
  20201386.682   -18016397.19449 -13453017.21349  20201388.0384   20201393.3954
  22387209.194   -13355412.28149  -9821098.85449  22387210.9904   22387216.7004
  20730141.585   -15197312.64549 -11568382.18949  20730142.7384   20730147.4094
  19260933.001   -30798875.02149 -23971024.91749  19260934.0474   19260939.2234
  18420953.506   -28368447.67649 -21800217.78549  18420955.0014   18420959.4504
  21260253.113   -14226469.60549 -11066040.21749  21260253.8384   21260260.2714
 96  7 13  2 32 59.9930000  0  7  3 15 23 25 21  1 31
  22416297.747   -12110074.69449  -8826956.83849  22416299.7194   22416308.6094
  20183929.623   -18108133.87349 -13524500.31449  20183931.1704   20183936.2854
  22401218.011   -13281798.75249  -9763737.70849  22401218.6874   22401223.4014
  20711812.331   -15293629.97149 -11643434.57349  20711814.0474   20711819.4524
  19269097.874   -30755966.96449 -23937590.07749  19269099.4144   19269104.5734
  18426697.833   -28338258.98449 -21776694.13349  18426699.6474   18426704.2104
  21273298.579   -14157915.81849 -11012621.73549  21273299.5424   21273305.7964
 96  7 13  2 33 29.9930000  0  7  3 15 23 25 21  1 31
  22434111.952   -12016465.47349  -8754014.71549  22434113.0194   22434122.2014
  20166538.766   -18199523.71949 -13595713.15149  20166540.4944   20166545.8354
  22415252.472   -13208041.82749  -9706264.80349  22415254.1194   22415260.0724
  20693529.535   -15389708.49149 -11718300.88249  20693530.9024   20693535.8524
  19277324.518   -30712737.30149 -23903904.63349  19277325.7184   19277330.4154
  18432523.359   -28307646.68249 -21752840.38749  18432524.9214   18432529.5454
  21286401.797   -14089056.54549 -10958965.19749  21286403.2484   21286409.5424
 96  7 13  2 33 59.9930000  0  7  3 15 23 25 21  1 31
  22451931.332   -11922816.65449  -8681041.75649  22451933.8024   22451941.6454
  20149214.260   -18290566.03849 -13666655.19249  20149215.5374   20149220.9404
  22429315.637   -13134138.78949  -9648678.04449  22429317.0124   22429323.9444
  20675287.302   -15485572.46749 -11793000.00949  20675288.6644   20675293.3134
  19285608.161   -30669205.80749 -23869984.00849  19285609.7024   19285614.2064
  18438425.262   -28276633.69649 -21728674.42649  18438426.7624   18438430.9134
  21299562.733   -14019894.98549 -10905073.13349  21299564.8804   21299570.3944
 96  7 13  2 34 29.9930000  0  7  3 15 23 25 21  1 31
  22469761.326   -11829119.47349  -8608031.10649  22469764.3644   22469771.8234
  20131957.558   -18381246.30349 -13737315.10849  20131959.2794   20131964.8714
  22443410.966   -13060065.86449  -9590958.88349  22443412.6864   22443419.4464
  20657085.990   -15581218.30549 -11867529.16449  20657088.1104   20657093.2374
  19293946.787   -30625385.77149 -23835838.53749  19293948.3074   19293953.1114
  18444403.390   -28245216.97849 -21704193.86349  18444404.9604   18444409.5174
  21312781.998   -13950428.45649 -10850943.43849  21312783.2734   21312790.0564
 96  7 13  2 34 59.9930000  0  7  3 15 23 25 21  1 31
  22487598.108   -11735389.92349  -8534995.25149  22487599.7474   22487608.4654
  20114770.653   -18471565.07649 -13807693.34349  20114772.5124   20114777.6564
  22457538.015   -12985830.79149  -9533113.39349  22457538.7514   22457545.2904
  20638929.444   -15676632.15349 -11941877.55549  20638931.4084   20638936.1774
  19302338.021   -30581290.92049 -23801478.91949  19302339.2874   19302344.0404
  18450457.763   -28213402.16949 -21679403.09749  18450459.2974   18450463.8114
  21326056.432   -13880664.76549 -10796582.18349  21326059.1674   21326065.9304
 96  7 13  2 35 29.9930000  0  7  3 15 23 25 21  1 31
  22505435.881   -11641648.72349  -8461950.29849  22505438.9684   22505447.4864
  20097650.768   -18561532.00249 -13877797.42949  20097651.8284   20097657.3174
  22471689.087   -12911463.97249  -9475165.24349  22471690.1524   22471697.1964
  20620817.570   -15771807.77949 -12016040.31249  20620820.0104   20620825.9034
  19310778.150   -30536937.51249 -23766917.82349  19310779.3084   19310784.0114
  18456586.565   -28181195.33549 -21654306.86349  18456587.9664   18456592.3034
  21339388.808   -13810609.97249 -10741994.06349  21339390.2904   21339396.7904
 96  7 13  2 35 59.9930000  0  7  3 15 23 25 21  1 31
  22523275.253   -11547903.07249  -8388901.88449  22523278.3154   22523286.8644
  20080598.725   -18651140.18449 -13947621.96149  20080600.1284   20080605.8094
  22485865.704   -12836970.14549  -9417118.11549  22485865.9014   22485873.1684
  20602758.774   -15866711.13449 -12089990.91449  20602760.3524   20602765.4864
  19319267.780   -30492322.15549 -23732152.62249  19319269.2944   19319274.0684
  18462790.909   -28148590.64449 -21628900.60249  18462792.5444   18462796.9314
  21352777.540   -13740247.08249 -10687165.88349  21352779.7444   21352786.5514
 96  7 13  2 36 29.9930000  0  7  3 15 23 25 21  1 31
  22541109.035   -11454189.30949  -8315878.36549  22541110.4014   22541119.9314
  20063613.978   -18740394.72449 -14017170.93149  20063615.5714   20063621.1314
  22500060.621   -12762372.94849  -9358990.43449  22500062.0574   22500068.3044
  20584752.495   -15961334.23749 -12163723.14149  20584754.0924   20584759.6124
  19327806.292   -30447453.85049 -23697190.30949  19327807.5894   19327812.3634
  18469070.579   -28115589.69449 -21603185.57249  18469072.1814   18469076.7344
  21366227.790   -13669573.24649 -10632095.39149  21366228.0724   21366235.9214
 96  7 13  2 36 59.9930000  0  7  3 15 23 25 21  1 31
  22558938.371   -11360504.31649  -8242877.23749  22558938.5034   22558947.7814
  20046702.140   -18829268.23949 -14086423.00149  20046703.5494   20046708.8504
  22514277.355   -12687668.33749  -9300779.00349  22514277.9114   22514283.2104
  20566803.385   -16055658.39049 -12237222.41749  20566804.7714   20566810.2124
  19336397.910   -30402303.21849 -23662008.01449  19336399.6564   19336404.1194
  18475431.606   -28082163.14649 -21577138.91349  18475432.9034   18475437.4594
  21379739.767   -13598566.00349 -10576765.12549  21379741.0614   21379747.9654
 96  7 13  2 37 29.9930000  0  7  3 15 23 25 21  1 31
  22576757.064   -11266855.44449  -8169904.24849  22576759.2664   22576768.1254
  20029862.178   -18917762.57049 -14155379.59549  20029863.8464   20029869.1034
  22528512.560   -12612857.88449  -9242485.12349  22528514.3074   22528519.0044
  20548907.587   -16149697.82349 -12310499.83149  20548909.6604   20548914.8264
  19345044.084   -30356868.97749 -23626604.72449  19345045.5244   19345050.1114
  18481872.639   -28048316.56949 -21550764.95549  18481873.7624   18481878.3464
  21393314.603   -13527230.96749 -10521179.42049  21393315.5534   21393321.5984
 96  7 13  2 37 59.9930000  0  5 15 25 21  1 31
  20013094.496   -19005877.78249 -14224040.78449  20013096.0144   20013101.3384
  20531064.595   -16243466.71849 -12383566.43549  20531065.7604   20531070.8894
  19353744.302   -30311147.32749 -23590977.46849  19353745.8714   19353750.4714
  18488389.628   -28014067.53349 -21524077.39449  18488391.2144   18488395.5874
  21406947.417   -13455584.20549 -10465350.81249  21406949.1254   21406956.9944
 96  7 13  2 38 29.9930000  0  5 15 25 21  1 31
  19996399.489   -19093610.55049 -14292403.95949  19996401.0824   19996406.5054
  20513271.701   -16336969.97949 -12456426.04549  20513272.8934   20513277.8984
  19362500.686   -30265132.28549 -23555121.58549  19362502.0864   19362507.2754
  18494981.862   -27979425.18849 -21497083.35249  18494983.5774   18494987.9574
  21420637.268   -13383645.72249 -10409294.87349  21420639.5714   21420645.2354
 96  7 13  2 38 59.9930000  0  5 15 25 21  1 31
  19979773.234   -19180982.79349 -14360486.20649  19979775.0134   19979780.0864
  20495526.395   -16430220.98949 -12529089.09449  20495527.9184   20495532.6834
  19371309.363   -30218841.22649 -23519050.62849  19371310.8584   19371315.9574
  18501643.075   -27944421.88349 -21469808.04549  18501644.6154   18501648.6424
  21434376.043   -13311450.84549 -10353039.16849  21434377.4654   21434384.3894
 96  7 13  2 39 29.9930000  0  5 15 25 21  1 31
  19963218.916   -19267976.55649 -14428273.53849  19963220.1534   19963225.6814
  20477834.434   -16523191.89749 -12601533.88349  20477835.8394   20477841.0754
  19380176.308   -30172246.33349 -23482742.91549  19380177.4154   19380182.1124
  18508373.252   -27909055.43549 -21442249.76849  18508374.4064   18508378.6044
  21448165.532   -13238984.90849 -10296572.26449  21448166.7344   21448173.6514
 96  7 13  2 39 59.9930000  0  5 15 25 21  1 31
  19946736.577   -19354589.97349 -14495764.50349  19946738.1454   19946743.7324
  20460198.231   -16615869.99249 -12673750.50749  20460200.0644   20460205.0844
  19389100.038   -30125351.32349 -23446201.35649  19389101.6744   19389106.2644
  18515171.090   -27873331.59549 -21414413.00649  18515172.4034   18515176.2094
  21462004.710   -13166254.00249 -10239898.86349  21462007.1294   21462014.1944
 96  7 13  2 40 29.9930000  0  5 15 25 21  1 31
  19930327.639   -19440821.99249 -14562958.27749  19930328.8444   19930334.3084
  20442620.584   -16708240.86749 -12745727.74449  20442622.1084   20442627.3374
  19398081.550   -30078155.89649 -23409425.70249  19398082.6374   19398087.5434
  18522040.878   -27837229.20249 -21386281.26949  18522042.4104   18522046.5434
  21475897.424   -13093253.61049 -10183015.47849  21475897.9794   21475905.0454
 96  7 13  2 40 59.9930000  0  5 15 25 21  1 31
  19913991.851   -19526667.23349 -14629850.66149  19913992.9234   19913998.5674
  20425102.175   -16800298.99949 -12817461.28149  20425103.9024   20425108.6794
  19407120.535   -30030653.79949 -23372411.08949  19407122.2454   19407126.6824
  18528985.274   -27800737.55349 -21357846.20949  18528986.5694   18528990.7654
  21489842.787   -13019968.21349 -10125909.99549  21489845.2754   21489850.9394
 96  7 13  2 41 29.9930000  0  5 15 25 21  1 31
  19897730.633   -19612121.36449 -14696438.28049  19897731.6754   19897737.4004
  20407642.026   -16892052.38049 -12888957.35349  20407643.9044   20407648.8194
  19416216.614   -29982853.66949 -23335164.24249  19416217.8814   19416222.7334
  18536002.518   -27763858.68049 -21329109.42149  18536004.3144   18536008.6844
  21503843.418   -12946399.30249 -10068583.60949  21503845.3654   21503850.5904
 96  7 13  2 41 59.9930000  0  5 15 25 21  1 31
  19881545.416   -19697174.85449 -14762713.71649  19881546.5404   19881552.0944
  20390242.780   -16983485.78049 -12960204.09449  20390244.9884   20390249.2514
  19425366.594   -29934768.28649 -23297695.11549  19425368.0644   19425373.0764
  18543096.320   -27726581.09649 -21300061.94649  18543097.8254   18543102.6134
  21517899.447   -12872537.86749 -10011029.27549  21517900.3454   21517905.5434
 96  7 13  2 42 29.9930000  0  5 15 25 21  1 31
  19865435.983   -19781827.22949 -14828676.58949  19865437.9904   19865443.5734
  20372903.655   -17074604.64849 -13031205.74649  20372905.1824   20372909.8344
  19434570.691   -29886400.28649 -23260005.77149  19434572.4364   19434577.5894
  18550265.326   -27688907.30149 -21270705.74749  18550266.7944   18550271.5224
  21532007.756   -12798397.47649  -9953257.57849  21532007.6184   21532015.3794
 96  7 13  2 42 59.9930000  0  5 15 25 21  1 31
  19849401.650   -19866088.06949 -14894334.36849  19849403.2664   19849409.2924
  20355617.851   -17165441.77849 -13101987.85749  20355619.1594   20355624.4624
  19443824.750   -29837772.57649 -23222114.05449  19443826.0364   19443831.1054
  18557504.048   -27650870.16149 -21241066.41549  18557505.2934   18557509.8744
  21546160.931   -12724021.03449  -9895301.94749  21546161.6094   21546168.5894
 96  7 13  2 43 29.9930000  0  5 15 25 21  1 31
  19833444.544   -19949945.62649 -14959677.90549  19833445.6874   19833451.5484
  20338385.903   -17255996.45949 -13172549.88349  20338387.5064   20338391.9774
  19453130.056   -29788873.36749 -23184010.78649  19453130.9874   19453136.2974
  18564810.971   -27612471.42749 -21211145.32649  18564812.3124   18564816.7504
  21560358.283   -12649416.06749  -9837168.25449  21560357.9454   21560364.4774
 96  7 13  2 43 59.9930000  0  5 15 25 21  1 31
  19817563.744   -20033400.37549 -15024707.55449  19817564.8404   19817570.7434
  20321208.014   -17346267.18849 -13242890.64349  20321209.1184   20321213.9374
  19462489.909   -29739684.84549 -23145682.08049  19462491.4244   19462496.6554
  18572186.836   -27573710.18249 -21180941.76849  18572188.1604   18572192.6414
  21574595.098   -12574596.93149  -9778867.68549  21574595.7534   21574602.6864
 96  7 13  2 44 29.9930000  0  5 15 25 21  1 31
  19801758.699   -20116454.29649 -15089424.87749  19801760.4094   19801765.9004
  20304080.904   -17436270.14749 -13313022.75849  20304082.5624   20304087.4674
  19471910.393   -29690181.23349 -23107107.84849  19471911.4404   19471916.7374
  18579630.077   -27534594.26449 -21150461.83049  18579631.7064   18579636.3784
  21588869.702   -12499574.21449  -9720408.48549  21588872.3514   21588877.8964
 96  7 13  2 44 59.9930000  0  6 14 15 25 21  1 31
  22664813.434    -5442919.06059  -4229834.80059  22664815.0194   22664822.4104
  19786032.290   -20199098.30749 -15153822.79149  19786033.4014   19786039.1214
  20287006.711   -17525992.01249 -13382935.83349  20287008.6674   20287013.5084
  19481394.008   -29640343.34449 -23068273.14349  19481395.4984   19481400.7614
  18587141.334   -27495124.10949 -21119705.86149  18587142.8914   18587147.2884
  21603192.213   -12424317.91249  -9661767.26349  21603193.2864   21603200.0104
 96  7 13  2 45 29.9930000  0  6 14 15 25 21  1 31
  22647817.230    -5532229.30349  -4299427.12749  22647818.4384   22647826.4824
  19770382.245   -20281338.69749 -15217906.17849  19770383.6154   19770388.8854
  20269991.887   -17615408.14049 -13452610.67249  20269993.5924   20269998.7904
  19490940.444   -29590177.90449 -23029183.19849  19490941.8384   19490946.5144
  18594719.954   -27455298.36849 -21088672.81249  18594721.1944   18594725.8564
  21617562.178   -12348802.73849  -9602924.32349  21617563.3134   21617569.4824
 96  7 13  2 45 59.9930000  0  6 14 15 25 21  1 31
  22630822.923    -5621537.71449  -4369018.03549  22630824.6124   22630830.5654
  19754813.149   -20363154.26849 -15281658.55749  19754814.3964   19754819.8854
  20253041.212   -17704481.56749 -13522018.47749  20253043.2984   20253048.1734
  19500548.987   -29539683.46849 -22989836.89949  19500550.5154   19500555.7264
  18602372.852   -27415082.52549 -21057335.79549  18602374.1984   18602378.5024
  21631984.841   -12273011.75949  -9543866.47449  21631985.6934   21631991.4294
 96  7 13  2 46 29.9930000  0  6 14 15 25 21  1 31
  22613825.253    -5710863.41749  -4438622.41749  22613826.3364   22613833.9414
  19739321.852   -20444563.21849 -15345094.09049  19739323.2694   19739328.3414
  20236153.821   -17793227.39349 -13591171.00849  20236155.2864   20236159.9614
  19510211.804   -29488908.08649 -22950271.68149  19510212.8914   19510217.3424
  18610097.272   -27374491.01349 -21025706.04749  18610098.5934   18610102.9494
  21646455.485   -12196962.15749  -9484607.08349  21646457.7664   21646462.4604
 96  7 13  2 46 59.9930000  0  6 14 15 25 21  1 31
  22596829.084    -5800175.51549  -4508216.20849  22596830.3094   22596838.2364
  19723911.415   -20525543.61649 -15408195.69649  19723912.8174   19723918.4514
  20219333.877   -17881616.32649 -13660045.44549  20219335.7154   20219340.3784
  19519923.201   -29437872.98949 -22910504.08149  19519924.4304   19519929.2544
  18617897.009   -27333502.29749 -20993766.78649  18617898.3504   18617902.8544
  21660979.343   -12120643.23349  -9425137.83949  21660981.0004   21660987.1124
 96  7 13  2 47 29.9930000  0  6 14 15 25 21  1 31
  22579838.081    -5889462.86849  -4577790.70549  22579839.9104   22579845.7304
  19708582.326   -20606096.59249 -15470964.24349  19708583.8774   19708589.2364
  20202579.545   -17969659.82649 -13728650.71249  20202581.0504   20202585.7634
  19529680.738   -29386596.47049 -22870548.35649  19529681.8084   19529686.4364
  18625773.633   -27292110.37849 -20961513.34849  18625774.8524   18625779.4554
  21675546.828   -12044092.34549  -9365487.85349  21675547.6014   21675553.6304
 96  7 13  2 47 59.9930000  0  6 14 15 25 21  1 31
  22562851.765    -5978727.46249  -4647347.47649  22562852.4644   22562860.1784
  19693332.617   -20686234.57549 -15533409.40749  19693333.8414   19693340.0214
  20185884.751   -18057391.49049 -13797012.98249  20185886.8634   20185891.5114
  19539483.318   -29335084.22449 -22830408.95149  19539484.4854   19539489.3474
  18633720.265   -27250349.73449 -20928972.59149  18633721.7434   18633726.2444
  21690148.997   -11967349.29049  -9305688.10749  21690151.9174   21690157.9354
 96  7 13  2 48 29.9930000  0  6 14 15 25 21  1 31
  22545872.574    -6067951.23049  -4716872.42549  22545874.2824   22545881.1994
  19678164.021   -20765944.36249 -15595520.89949  19678165.7114   19678171.1854
  20169250.201   -18144807.01049 -13865128.91649  20169251.8354   20169256.7974
  19549337.174   -29283302.42649 -22790059.51249  19549338.2564   19549343.2774
  18641734.578   -27208234.13849 -20896155.24549  18641736.0024   18641740.4504
  21704793.794   -11890394.76849  -9245723.59849  21704794.7094   21704801.5294
 96  7 13  2 48 59.9930000  0  6 14 15 25 21  1 31
  22528900.591    -6157139.10149  -4786369.40649  22528903.0734   22528909.8364
  19663079.565   -20845217.72949 -15657292.33949  19663080.8744   19663085.8494
  20152677.094   -18231902.31949 -13932995.33049  20152678.4844   20152683.3134
  19559247.683   -29231222.70349 -22749477.92249  19559248.9054   19559253.6564
  18649815.929   -27165767.43549 -20863064.31649  18649817.4314   18649821.6014
  21719479.457   -11813221.24049  -9185588.43449  21719481.3564   21719488.1314
 96  7 13  2 49 29.9930000  0  6 14 15 25 21  1 31
  22511929.720    -6246322.28249  -4855862.69849  22511931.1894   22511937.8964
  19648075.175   -20924065.40449 -15718732.07049  19648076.6994   19648081.4504
  20136161.583   -18318688.29249 -14000620.70149  20136163.5334   20136168.3754
  19569217.792   -29178829.61149 -22708652.14249  19569218.9224   19569223.6474
  18657959.775   -27122970.85449 -20829716.34349  18657961.1834   18657965.5944
  21734205.521   -11735840.75549  -9125292.02049  21734206.7514   21734213.3634
 96  7 13  2 49 59.9930000  0  6 14 15 25 21  1 31
  22494959.082    -6335505.96449  -4925356.37749  22494960.8414   22494966.3974
  19633153.773   -21002476.64049 -15779831.72449  19633155.1834   19633160.0944
  20119709.060   -18405144.84849 -14067989.38949  20119711.0104   20119716.0514
  19579249.285   -29126113.62949 -22667574.76749  19579250.5324   19579254.6234
  18666164.513   -27079854.93849 -20796119.51949  18666165.6864   18666170.0654
  21748975.760   -11658222.12349  -9064810.01749  21748977.0654   21748983.2924
 96  7 13  2 50 29.9930000  0  6 14 15 25 21  1 31
  22477989.967    -6424674.24549  -4994838.07549  22477991.5914   22477998.6734
  19618317.792   -21080442.68549 -15840584.47049  19618318.7874   19618324.1984
  20103322.486   -18491258.09849 -14135090.56849  20103324.1174   20103328.9314
  19589340.199   -29073086.19449 -22626254.70149  19589341.4134   19589346.0364
  18674432.740   -27036403.88849 -20762261.56749  18674434.1754   18674438.6584
  21763792.387   -11580356.49549  -9004135.54449  21763794.1304   21763800.1584
 96  7 13  2 50 59.9930000  0  6 14 15 25 21  1 31
  22461026.124    -6513815.87749  -5064298.98249  22461029.2394   22461035.3094
  19603568.226   -21157949.38049 -15900979.28449  19603569.8604   19603575.1314
  20087004.586   -18577009.74749 -14201909.98249  20087006.0194   20087010.8954
  19599487.170   -29019760.98349 -22584702.60649  19599488.5054   19599493.4964
  18682770.328   -26992591.11049 -20728121.72549  18682771.4754   18682776.1464
  21778657.204   -11502245.63549  -8943269.97249  21778657.8364   21778664.4614
 96  7 13  2 51 29.9930000  0  6 14 15 25 21  1 31
  22444065.535    -6602950.17449  -5133754.17649  22444067.8024   22444074.0214
  19588902.218   -21235020.77549 -15961034.90549  19588903.7714   19588908.8964
  20070751.219   -18662422.21449 -14268465.10149  20070752.5654   20070757.3494
  19609684.932   -28966172.37549 -22542945.26249  19609686.0274   19609691.0624
  18691169.006   -26948455.40049 -20693730.26449  18691170.3634   18691174.7454
  21793560.068   -11423930.88249  -8882245.54249  21793561.2804   21793567.9544
 96  7 13  2 51 59.9930000  0  6 14 15 25 21  1 31
  22427110.221    -6692047.54549  -5203180.61849  22427111.9564   22427118.5364
  19574321.523   -21311643.45149 -16020740.87349  19574322.9634   19574328.2474
  20054562.109   -18747495.02149 -14334755.55349  20054563.9544   20054568.6514
  19619933.249   -28912316.83949 -22500979.92049  19619934.7654   19619939.1674
  18699632.508   -26903978.37849 -20659072.84349  18699634.0754   18699638.2074
  21808502.879   -11345405.69549  -8821057.13949  21808503.4164   21808509.6894
 96  7 13  2 52 29.9930000  0  6 14 15 25 21  1 31
  22410161.980    -6781113.17549  -5272582.31349  22410163.5574   22410169.5994
  19559824.475   -21387827.68949 -16080105.19449  19559825.7924   19559830.5204
  20038433.374   -18832250.82649 -14400798.98749  20038434.9874   20038440.1424
  19630231.079   -28858200.85949 -22458811.62549  19630232.3614   19630237.4514
  18708162.951   -26859150.86049 -20624142.31249  18708164.4904   18708168.6624
  21823477.452   -11266711.54249  -8759737.08249  21823478.2094   21823484.8244
 96  7 13  2 52 59.9930000  0  6 14 15 25 21  1 31
  22393217.438    -6870156.42549  -5341966.58549  22393219.1284   22393224.5484
  19545412.686   -21463562.17549 -16139119.07349  19545413.9754   19545418.9294
  20022367.618   -18916678.29349 -14466586.58049  20022369.0244   20022373.5954
  19640583.596   -28803794.14149 -22416416.78749  19640585.4884   19640590.0724
  18716761.400   -26813965.45849 -20588932.91249  18716763.0354   18716767.1974
  21838483.135   -11187857.96949  -8698292.81049  21838484.6234   21838490.2074
 96  7 13  2 53 29.9930000  0  6 14 15 25 21  1 31
  22376275.151    -6959185.06749  -5411339.47949  22376277.6614   22376282.5944
  19531086.492   -21538846.37249 -16197782.06849  19531087.7024   19531093.0854
  20006363.775   -19000776.36349 -14532117.49849  20006365.6954   20006370.1634
  19650996.392   -28749077.03749 -22373780.10249  19650997.6884   19651002.7224
  18725425.345   -26768438.10249 -20553457.04949  18725426.5004   18725430.9764
  21853516.386   -11108852.65749  -8636730.30249  21853518.1414   21853525.5934
 96  7 13  2 53 59.9930000  0  6 14 15 25 21  1 31
  22359336.043    -7048204.31049  -5480705.04249  22359337.2854   22359343.8944
  19516846.453   -21613678.36349 -16256092.69549  19516847.4784   19516852.8094
  19990425.337   -19084537.09949 -14597385.55749  19990426.7394   19990431.3804
  19661467.715   -28694052.56449 -22330903.88949  19661468.9364   19661473.3744
  18734156.232   -26722558.46449 -20517706.69349  18734157.5364   18734161.6054
  21868581.573   -11029694.51949  -8575048.71649  21868581.7924   21868588.9454
 96  7 13  2 54 29.9930000  0  6 14 15 25 21  1 31
  22342396.388    -7137222.21849  -5550069.57749  22342397.6454   22342403.9854
  19502691.996   -21688061.18949 -16314053.31649  19502693.2514   19502698.3284
  19974552.848   -19167944.19049 -14662378.05049  19974554.8184   19974559.4384
  19671996.333   -28638722.39649 -22287789.48649  19671997.8564   19672002.6394
  18742950.619   -26676342.35249 -20481694.14249  18742952.0224   18742956.3584
  21883671.400   -10950389.87649  -8513252.97349  21883673.3604   21883679.2844
 96  7 13  2 54 59.9930000  0  6 14 15 25 21  1 31
  22325459.446    -7226223.25449  -5619420.93349  22325461.5734   22325466.4904
  19488626.047   -21761978.19649 -16371650.96549  19488627.2644   19488632.3774
  19958756.063   -19250958.50749 -14727064.48949  19958757.5964   19958762.2534
  19682585.848   -28583073.20949 -22244426.49749  19682587.2984   19682592.2484
  18751807.368   -26629799.69049 -20445427.14049  18751808.8214   18751813.1154
  21898797.646   -10870904.64849  -8451316.50149  21898799.3754   21898805.3354
 96  7 13  2 55 29.9930000  0  6 14 15 25 21  1 31
  22308527.951    -7315196.71549  -5688750.81949  22308529.3834   22308535.8154
  19474646.861   -21835436.10949 -16428890.88449  19474648.3274   19474653.7414
  19943031.167   -19333591.39449 -14791453.70649  19943032.7524   19943037.5964
  19693230.927   -28527134.39149 -22200837.81249  19693232.1444   19693237.4824
  18760723.876   -26582944.05849 -20408916.25349  18760724.8744   18760729.3794
  21913960.579   -10791224.67249  -8389228.27549  21913961.5064   21913968.7434
 96  7 13  2 55 59.9930000  0  6 14 15 25 21  1 31
  22291603.956    -7404139.98349  -5758057.18049  22291605.1444   22291611.1494
  19460755.455   -21908438.04549 -16485775.49249  19460756.7794   19460761.9584
  19927376.918   -19415855.84449 -14855555.82749  19927378.5134   19927383.1904
  19703926.894   -28470926.07149 -22157039.13949  19703928.1584   19703933.5064
  18769698.934   -26535777.76649 -20372163.29349  18769700.3834   18769704.8154
  21929161.715   -10711345.62749  -8326984.94449  21929161.6454   21929169.1754
 96  7 13  2 56 29.9930000  0  6 14 15 25 21  1 31
  22274684.923    -7493043.86849  -5827332.86649  22274686.7974   22274693.2884
  19446953.141   -21980969.05049 -16542293.14249  19446954.4334   19446959.8324
  19911795.126   -19497739.35949 -14919361.12049  19911796.4444   19911801.1624
  19714674.271   -28414450.17749 -22113031.95349  19714675.4974   19714680.2564
  18778735.042   -26488292.76149 -20335161.98849  18778736.3424   18778740.8374
  21944400.438   -10631256.16949  -8264577.67349  21944402.8014   21944409.3894
 96  7 13  2 56 59.9930000  0  6 14 15 25 21  1 31
  22257767.360    -7581949.51649  -5896609.91649  22257768.8504   22257774.3664
  19433235.486   -22053055.72449 -16598464.55449  19433236.8024   19433242.0924
  19896279.518   -19579274.97549 -14982895.32349  19896280.5834   19896285.5534
  19725464.863   -28357746.67349 -22068847.42149  19725466.2774   19725470.7404
  18787827.005   -26440516.03749 -20297933.38949  18787828.2024   18787832.2814
  21959676.502   -10550986.01949  -8202029.61149  21959677.7814   21959683.8164
 96  7 13  2 57 29.9930000  0  6 14 15 25 21  1 31
  22240850.964    -7670848.63449  -5965881.87649  22240851.7984   22240857.7534
  19419605.042   -22124683.06749 -16654278.04849  19419606.3314   19419611.9344
  19880829.563   -19660464.85949 -15046160.11849  19880831.2294   19880835.6734
  19736299.986   -28300804.40749 -22024476.83249  19736301.2394   19736306.6004
  18796978.384   -26392425.08649 -20260459.91949  18796979.6484   18796983.7384
  21974984.863   -10470539.93049  -8139344.41849  21974985.8154   21974993.4574
 96  7 13  2 57 59.9930000  0  6 14 15 25 21  1 31
  22223932.509    -7759749.79549  -6035155.44249  22223934.1804   22223940.3984
  19406062.937   -22195849.00249 -16709732.01049  19406064.0844   19406069.2724
  19865446.134   -19741304.90949 -15109152.32049  19865447.6884   19865452.2434
  19747182.779   -28243616.08349 -21979914.51249  19747183.6634   19747188.8894
  18806188.511   -26344024.72349 -20222745.34649  18806189.6744   18806194.0704
  21990321.111   -10389945.80049  -8076543.87449  21990321.7444   21990329.7814
 96  7 13  2 58 29.9930000  0  6 14 15 25 21  1 31
  22207019.250    -7848631.45149  -6104413.81549  22207020.7984   22207028.1104
  19392612.153   -22266531.41349 -16764809.20349  19392613.3614   19392618.6444
  19850134.124   -19821766.51149 -15171849.62649  19850136.1684   19850140.4744
  19758118.245   -28186149.02249 -21935134.99749  19758120.0434   19758124.4274
  18815461.855   -26295292.99949 -20184772.56549  18815463.2754   18815467.1534
  22005687.920   -10309194.57149  -8013620.91849  22005690.0154   22005696.2624
 96  7 13  2 58 59.9930000  0  6 14 15 25 21  1 31
  22190108.779    -7937500.66349  -6173662.48449  22190109.9464   22190115.9604
  19379251.145   -22336744.33549 -16819520.55649  19379252.3874   19379257.5314
  19834888.983   -19901880.47749 -15234276.04349  19834890.8384   19834895.2074
  19769110.148   -28128389.49749 -21890127.59149  19769111.1524   19769115.7714
  18824795.125   -26246244.81949 -20146553.20549  18824796.6614   18824800.8494
  22021079.831   -10228307.10649  -7950591.82149  22021081.5384   22021088.5754
 96  7 13  2 59 29.9930000  0  6 14 15 25 21  1 31
  22173203.884    -8026330.48849  -6242880.45049  22173205.5874   22173211.9664
  19365982.931   -22406471.70349 -16873853.55249  19365983.9814   19365989.4334
  19819711.469   -19981637.90549 -15296424.64149  19819713.7454   19819718.1694
  19780160.360   -28070316.71149 -21844876.08549  19780161.6644   19780166.5334
  18834189.803   -26196877.12849 -20108084.87949  18834190.9454   18834195.2364
  22036498.320   -10147276.91549  -7887451.49849  22036501.4204   22036508.3064
 96  7 13  2 59 59.9930000  0  6 14 15 25 21  1 31
  22156306.601    -8115130.38549  -6312075.11549  22156307.9094   22156314.6254
  19352804.957   -22475720.02049 -16927813.26949  19352806.4894   19352811.4384
  19804602.896   -20061035.18249 -15358292.60449  19804604.4654   19804609.0554
  19791268.129   -28011944.07249 -21799390.91849  19791269.6894   19791275.1704
  18843644.681   -26147191.18649 -20069368.58049  18843645.7454   18843650.2224
  22051945.604   -10066106.04949  -7824201.57249  22051946.6004   22051953.6364
 96  7 13  3  0 29.9930000  0  6 14 15 25 21  1 31
  22139409.358    -8203921.11549  -6381262.62849  22139410.6014   22139418.5254
  19339715.149   -22544507.98849 -16981414.27049  19339716.3314   19339721.6414
  19789559.547   -20140089.44449 -15419893.28149  19789560.8744   19789565.5644
  19802428.893   -27953293.55649 -21753689.23849  19802430.5214   19802435.4244
  18853156.666   -26097204.41849 -20030417.84149  18853157.9484   18853162.4314
  22067415.974    -9984804.12949  -7760849.52349  22067419.1344   22067426.3614
 96  7 13  3  0 59.9930000  0  6 14 15 25 21  1 31
  22122518.143    -8292685.23949  -6450429.37949  22122519.5284   22122525.9734
  19326717.819   -22612806.46349 -17034633.84849  19326719.7054   19326724.9444
  19774588.772   -20218759.01749 -15481194.20349  19774590.5674   19774595.3804
  19813647.171   -27894341.57249 -21707752.64149  19813648.5474   19813653.9094
  18862728.354   -26046904.94649 -19991223.44649  18862729.5824   18862733.8874
  22082916.260    -9903357.63149  -7697384.82749  22082917.7274   22082924.1724
 96  7 13  3  1 29.9930000  0  6 14 15 25 21  1 31
  22105628.927    -8381438.15249  -6519587.46449  22105630.2574   22105636.6534
  19313814.005   -22680618.90549 -17087474.70749  19313815.3174   19313820.5404
  19759696.181   -20297020.45549 -15542177.09549  19759697.7764   19759702.2894
  19824917.841   -27835116.00149 -21661602.85249  19824919.2794   19824924.5174
  18872354.495   -25996317.22449 -19951804.44249  18872356.1644   18872360.5934
  22098440.462    -9821783.47549  -7633820.64449  22098440.3824   22098448.1314
 96  7 13  3  1 59.9930000  0  6 14 15 25 21  1 31
  22088741.739    -8470182.82949  -6588739.09049  22088743.7934   22088748.2624
  19301003.328   -22747939.61149 -17139932.39049  19301004.4914   19301009.8784
  19744882.934   -20374866.99049 -15602836.68849  19744884.3094   19744888.9584
  19836239.128   -27775621.75149 -21615243.71849  19836240.8054   19836245.8914
  18882037.156   -25945435.24549 -19912156.15749  18882038.4254   18882043.4254
  22113984.227    -9740089.65349  -7570163.18449  22113986.4854   22113994.0324
 96  7 13  3  2 29.9930000  0  6 14 15 25 21  1 31
  22071855.261    -8558922.86649  -6657887.12749  22071856.2484   22071860.9314
  19288286.545   -22814767.10549 -17192005.75149  19288287.8954   19288292.6884
  19730147.834   -20452298.50149 -15663172.88749  19730149.5394   19730154.0664
  19847612.735   -27715855.37949 -21568672.53849  19847614.3054   19847618.7714
  18891771.050   -25894284.55449 -19872298.47449  18891772.3214   18891776.9714
  22129554.140    -9658283.71449  -7506418.37849  22129554.0224   22129561.4694
 96  7 13  3  2 59.9930000  0  6 14 15 25 21  1 31
  22054968.163    -8647663.16949  -6727035.39049  22054970.6924   22054976.2594
  19275662.617   -22881106.37049 -17243698.67749  19275663.6844   19275669.0514
  19715491.115   -20529320.35849 -15723189.87549  19715492.7994   19715497.3964
  19859034.887   -27655830.36549 -21521899.80849  19859036.0434   19859040.8464
  18901553.555   -25842875.56649 -19832239.52149  18901555.1024   18901559.6594
  22145139.787    -9576370.56549  -7442590.05349  22145141.0174   22145149.4784
 96  7 13  3  3 29.9930000  0  6 14 15 25 21  1 31
  22038087.639    -8736370.66349  -6796158.06749  22038089.6764   22038094.5004
  19263136.056   -22946931.79749 -17294991.21049  19263137.3884   19263142.5944
  19700913.393   -20605927.39749 -15782883.62849  19700915.0584   19700919.5894
  19870507.443   -27595541.86149 -21474921.77149  19870508.7614   19870513.5404
  18911391.965   -25791175.70549 -19791953.91449  18911393.2104   18911397.7694
  22160753.081    -9494317.50349  -7378652.71449  22160754.9994   22160763.2754
 96  7 13  3  3 59.9930000  0  6 14 15 25 21  1 31
  22021209.498    -8825066.75649  -6865271.87349  22021211.3994   22021217.7544
  19250703.977   -23012263.95349 -17345899.37849  19250705.5994   19250710.5574
  19686407.094   -20682157.55349 -15842283.70949  19686408.7104   19686413.4154
  19882028.539   -27534998.40349 -21427745.06349  19882029.5024   19882034.8584
  18921284.734   -25739190.11149 -19751445.67049  18921285.8624   18921290.3044
  22176393.298    -9412134.75749  -7314614.31249  22176394.4354   22176402.3574
 96  7 13  3  4 29.9930000  0  6 14 15 25 21  1 31
  22004333.635    -8913746.07849  -6934372.57849  22004334.7854   22004341.2304
  19238364.976   -23077103.26049 -17396423.50349  19238366.6024   19238371.8934
  19671972.878   -20758009.29349 -15901388.91849  19671974.2974   19671979.2344
  19893600.706   -27474184.08649 -21380357.29549  19893602.2074   19893606.8534
  18931230.726   -25686921.37349 -19710716.78649  18931232.0934   18931236.7044
  22192056.460    -9329821.81649  -7250474.46849  22192058.5614   22192066.0284
 96  7 13  3  4 59.9930000  0  6 14 15 25 21  1 31
  21987465.053    -9002388.50649  -7003444.55449  21987467.4994   21987474.0624
  19226121.792   -23141443.08849 -17446558.42449  19226123.0444   19226128.4804
  19657612.568   -20833475.58449 -15960193.77849  19657613.9114   19657618.5394
  19905226.112   -27413092.38849 -21332753.38649  19905228.0004   19905232.6574
  18941232.222   -25634364.37949 -19669763.29249  18941233.2984   18941237.8994
  22207744.473    -9247388.48249  -7186240.81249  22207744.9904   22207751.6774
 96  7 13  3  5 29.9930000  0  6 14 15 25 21  1 31
  21970601.718    -9091011.62449  -7072501.46149  21970603.3334   21970608.4064
  19213971.415   -23205294.41249 -17496312.69049  19213972.6534   19213978.0884
  19643321.690   -20908574.04149 -16018712.01349  19643323.0874   19643327.9164
  19916903.660   -27351728.39049 -21284937.29349  19916904.7064   19916910.0264
  18951285.477   -25581533.45249 -19628596.33549  18951286.8454   18951291.1444
  22223447.146    -9164863.81349  -7121935.98349  22223449.7534   22223455.5704
 96  7 13  3  5 59.9930000  0  6 14 15 25 21  1 31
  21953747.453    -9179575.70749  -7141512.36849  21953749.1334   21953755.8684
  19201920.979   -23268618.52149 -17545656.14149  19201922.5804   19201927.7774
  19629108.675   -20983261.68349 -16076910.13349  19629110.6214   19629115.3654
  19928641.561   -27290042.48349 -21236870.36749  19928643.1634   19928648.2964
  18961398.548   -25528389.92049 -19587185.78749  18961399.8044   18961404.1914
  22239174.988    -9082217.39349  -7057536.28549  22239175.5424   22239182.0384
 96  7 13  3  6 29.9930000  0  6 14 15 25 21  1 31
  21936904.616    -9268085.68249  -7210481.12249  21936906.4324   21936912.9804
  19189968.763   -23331429.01249 -17594599.38049  19189970.0214   19189975.5194
  19614974.289   -21057538.48149 -16134788.12349  19614975.6764   19614980.4034
  19940435.225   -27228068.05049 -21188578.61749  19940436.9024   19940441.5324
  18971565.171   -25474962.86449 -19545554.31849  18971566.4304   18971570.9904
  22254919.117    -8999476.72449  -6993063.13849  22254921.4114   22254928.4904
 96  7 13  3  6 59.9930000  0  6 14 15 25 21  1 31
  21920067.055    -9356574.80249  -7279433.63249  21920067.5584   21920075.3804
  19178110.639   -23393742.75149 -17643155.53549  19178112.0974   19178117.4684
  19600913.498   -21131426.07849 -16192362.84049  19600915.3714   19600919.8924
  19952274.836   -27165853.91849 -21140100.10049  19952276.0064   19952280.5594
  18981781.691   -25421273.26449 -19503718.27449  18981783.1604   18981787.9544
  22270677.672    -8916667.48149  -6928536.55449  22270679.1844   22270686.6634
 96  7 13  3  7 29.9930000  0  6 14 15 25 21  1 31
  21903234.363    -9445027.13649  -7348357.49149  21903235.7814   21903242.2164
  19166353.417   -23455529.05949 -17691300.71449  19166354.6634   19166359.9174
  19586932.015   -21204903.71549 -16249618.10649  19586933.1704   19586938.0124
  19964164.083   -27103374.64149 -21091414.95949  19964165.0914   19964170.2914
  18992056.612   -25367278.16449 -19461644.17249  18992058.4754   18992062.7964
  22286455.735    -8833753.45049  -6863928.31449  22286456.9724   22286465.2694
 96  7 13  3  7 59.9930000  0  6 14 15 25 21  1 31
  21886406.694    -9533460.22949  -7417266.34949  21886408.1964   21886413.3484
  19154693.637   -23516800.99949 -17739045.07849  19154694.8364   19154700.1534
  19573027.132   -21277970.77049 -16306553.43449  19573028.9334   19573033.8764
  19976101.410   -27040642.28049 -21042532.60949  19976102.8834   19976107.3824
  19002385.429   -25313001.18449 -19419350.41549  19002386.7914   19002391.3394
  22302249.029    -8750756.51149  -6799255.48549  22302252.2124   22302258.3604
 96  7 13  3  8 29.9930000  0  6 14 15 25 21  1 31
  21869579.174    -9621886.06149  -7486169.55349  21869580.9734   21869586.9224
  19143131.597   -23577558.81249 -17786388.82449  19143133.1884   19143138.2154
  19559202.851   -21350619.63949 -16363162.90249  19559204.4234   19559209.0704
  19988086.968   -26977655.43349 -20993451.96249  19988088.2044   19988093.7184
  19012763.628   -25258462.64149 -19376852.84349  19012765.2204   19012769.3684
  22318056.018    -8667684.73849  -6734524.34249  22318058.5564   22318066.7234
 96  7 13  3  8 59.9930000  0  6 14 15 25 21  1 31
  21852752.381    -9710311.80749  -7555072.69049  21852753.4284   21852761.1184
  19131667.657   -23637802.59549 -17833332.03249  19131669.2044   19131674.2524
  19545455.245   -21422863.52449 -16419456.80549  19545457.0204   19545461.5774
  20000124.580   -26914400.12049 -20944162.10849  20000125.7744   20000130.8474
  19023193.513   -25203654.10449 -19334144.89249  19023194.9524   19023199.2174
  22333880.836    -8584531.93649  -6669730.08449  22333882.4694   22333888.7124
 96  7 13  3  9 29.9930000  0  6 14 15 25 21  1 31
  21835928.001    -9798724.89249  -7623965.95149  21835929.1434   21835934.9264
  19120301.836   -23697530.78449 -17879873.47649  19120303.0984   19120308.3484
  19531786.932   -21494693.49349 -16475428.17149  19531788.2524   19531792.5054
  20012216.743   -26850856.50149 -20894647.61149  20012217.2104   20012222.3554
  19033674.732   -25148576.15349 -19291227.00149  19033676.0584   19033680.1884
  22349720.888    -8501290.73049  -6604866.93149  22349722.8364   22349730.7954
 96  7 13  3  9 59.9930000  0  6 14 15 25 21  1 31
  21819105.663    -9887124.48749  -7692848.72649  21819108.3354   21819113.2074
  19109034.199   -23756742.75349 -17926012.67649  19109035.4554   19109040.9584
  19518198.320   -21566097.25349 -16531067.42849  19518200.2774   19518205.1744
  20024363.070   -26787025.99249 -20844909.56949  20024364.0234   20024368.9384
  19044204.840   -25093241.32849 -19248108.95049  19044205.9064   19044210.1264
  22365578.500    -8417966.65249  -6539939.16549  22365579.1684   22365587.7164
 96  7 13  3 10 29.9930000  0  6 14 15 25 21  1 31
  21802291.783    -9975483.42149  -7761699.78649  21802293.0494   21802300.2134
  19097867.424   -23815423.97249 -17971738.30249  19097868.9924   19097873.8104
  19504692.648   -21637071.63449 -16586372.09549  19504694.2794   19504698.7564
  20036565.426   -26722899.89149 -20794941.19949  20036566.5884   20036572.4684
  19054786.655   -25037632.74249 -19204777.58249  19054787.7374   19054792.1884
  22381453.228    -8334543.54749  -6474934.26849  22381454.2154   22381462.3124
 96  7 13  3 10 59.9930000  0  6 14 15 25 21  1 31
  21785484.911   -10063803.04249  -7830520.20449  21785486.4764   21785493.1724
  19086801.864   -23873576.30149 -18017051.80449  19086802.8184   19086808.0894
  19491265.003   -21707632.95549 -16641354.90349  19491267.0484   19491271.3394
  20048822.688   -26658489.78849 -20744751.52249  20048823.2974   20048829.5094
  19065420.845   -24981747.74049 -19161230.82649  19065422.1334   19065426.6134
  22397345.256    -8251028.66849  -6409857.86249  22397346.7014   22397354.9494
 96  7 13  3 11 29.9930000  0  6 14 15 25 21  1 31
  21768684.218   -10152091.28849  -7899316.20849  21768686.3234   21768691.9754
  19075834.142   -23931208.81949 -18061960.26249  19075835.6654   19075840.9984
  19477916.616   -21777780.02849 -16696014.93149  19477917.9764   19477922.5334
  20061132.083   -26593802.91349 -20694346.19049  20061133.6304   20061138.7704
  19076102.912   -24925611.53549 -19117488.32449  19076104.6424   19076108.9774
  22413247.457    -8167456.95049  -6344737.16949  22413249.5644   22413258.6824
 96  7 13  3 11 59.9930000  0  6 14 15 25 21  1 31
  21751892.312   -10240334.72149  -7968077.26049  21751893.2674   21751899.3444
  19064969.169   -23988306.71249 -18106452.12549  19064970.6174   19064975.7244
  19464649.198   -21847501.14649 -16750343.03749  19464650.7464   19464655.2624
  20073497.307   -26528825.90749 -20643714.78749  20073497.9654   20073503.4314
  19086835.330   -24869214.24549 -19073542.38949  19086836.5364   19086841.1264
  22429162.178    -8083832.83649  -6279575.62449  22429163.6104   22429171.5224
 96  7 13  3 12 29.9930000  0  6 14 15 25 21  1 31
  21735107.907   -10328534.36849  -8036804.20449  21735109.4584   21735115.4324
  19054206.500   -24044865.32649 -18150523.77549  19054207.5934   19054212.8054
  19451462.105   -21916799.59849 -16804341.79949  19451464.1934   19451468.2354
  20085916.807   -26463560.42049 -20592858.58449  20085917.9794   20085922.9954
  19097618.004   -24812551.45949 -19029389.56749  19097619.3874   19097623.7184
  22445085.538    -8000150.72949  -6214368.92749  22445087.1564   22445095.6114
 96  7 13  3 12 59.9930000  0  6 14 15 25 21  1 31
  21718329.926   -10416707.02549  -8105510.13049  21718330.7474   21718337.0684
  19043545.530   -24100887.15449 -18194177.14249  19043547.1134   19043552.2564
  19438356.784   -21985670.46149 -16858007.37449  19438358.1694   19438362.3074
  20098388.731   -26398019.68049 -20541787.89449  20098389.5704   20098394.8294
  19108449.069   -24755633.61449 -18985037.99949  19108450.4404   19108454.6954
  22461020.759    -7916414.84849  -6149120.30249  22461022.3594   22461029.6374
 96  7 13  3 13 29.9930000  0  6 14 15 25 21  1 31
  21701555.355   -10504856.43949  -8174197.95249  21701556.7274   21701562.8164
  19032987.201   -24156373.26949 -18237413.07649  19032988.3954   19032993.3934
  19425335.320   -22054096.74349 -16911326.52149  19425336.9794   19425341.2934
  20110912.279   -26332207.60749 -20490505.78249  20110913.0394   20110918.3214
  19119327.432   -24698465.82149 -18940491.67549  19119328.9714   19119333.5824
  22476962.782    -7832639.95949  -6083841.29649  22476964.2604   22476972.1964
 96  7 13  3 13 59.9930000  0  6 14 15 25 21  1 31
  21684782.795   -10592993.84549  -8242876.39049  21684784.3804   21684791.2024
  19022531.215   -24211320.37449 -18280228.99549  19022532.4114   19022537.4964
  19412396.569   -22122089.30649 -16964307.70149  19412398.1984   19412402.6574
  20123482.428   -26266149.47249 -20439031.92849  20123484.1864   20123489.1314
  19130253.963   -24641048.54549 -18895750.94049  19130255.1634   19130259.5014
  22492913.359    -7748819.75549  -6018526.95949  22492915.1264   22492921.5584
 96  7 13  3 14 29.9930000  0  6 14 15 25 21  1 31
  21668012.014   -10681125.74249  -8311550.54449  21668013.5754   21668020.3484
  19012176.373   -24265734.51249 -18322629.62249  19012177.7194   19012182.8774
  19399539.740   -22189654.74349 -17016956.06049  19399540.8504   19399545.5194
  20136096.141   -26199865.39949 -20387382.02649  20136097.2084   20136102.0444
  19141224.104   -24583399.64349 -18850829.72349  19141225.2904   19141229.6964
  22508871.866    -7664962.63749  -5953183.88049  22508871.7744   22508879.9564
 96  7 13  3 14 59.9930000  0  6 14 15 25 21  1 31
  21651245.431   -10769235.29949  -8380207.29249  21651247.5664   21651252.6264
  19001923.572   -24319613.26849 -18364613.06049  19001924.7624   19001930.1094
  19386765.578   -22256781.68049 -17069262.72649  19386767.2224   19386771.3634
  20148753.941   -26133347.84349 -20335550.19449  20148755.0634   20148760.1114
  19152237.891   -24525521.30349 -18805729.72149  19152239.3424   19152243.6154
  22524831.382    -7581087.25949  -5887826.53949  22524833.2874   22524840.6204
 96  7 13  3 15 29.9930000  0  6 14 15 25 21  1 31
  21634485.884   -10857308.69249  -8448835.85249  21634486.7594   21634491.6664
  18991774.251   -24372947.90549 -18406172.51149  18991775.8294   18991780.9614
  19374076.005   -22323465.25549 -17121223.92149  19374077.8294   19374081.9114
  20161459.975   -26066577.19549 -20283521.12449  20161461.3294   20161466.4324
  19163298.454   -24467398.95749 -18760439.57949  19163299.5304   19163303.8814
  22540797.060    -7497187.82449  -5822450.47449  22540798.3874   22540806.8164
 96  7 13  3 15 59.9930000  0  6 14 15 25 21  1 31
  21617733.396   -10945342.39749  -8517433.49149  21617735.0484   21617741.3984
  18981727.647   -24425743.83149 -18447312.18849  18981728.9964   18981734.1514
  19361467.165   -22389722.34349 -17172852.79149  19361468.9804   19361473.7364
  20174213.541   -25999557.72549 -20231298.17949  20174214.3854   20174220.3134
  19174403.091   -24409042.57249 -18714967.06749  19174404.5004   19174408.8154
  22556770.260    -7413251.44149  -5757045.57749  22556771.4224   22556777.9664
 96  7 13  3 16 29.9930000  0  7 14 15 25 21 29  1 31
  21600993.742   -11033308.25049  -8585978.25849  21600995.1174   21601001.7174
  18971786.906   -24477982.95649 -18488017.99749  18971788.4784   18971793.1114
  19348944.960   -22455528.72249 -17224130.45749  19348946.6344   19348950.9144
  20187021.845   -25932245.64549 -20178847.21249  20187023.5324   20187029.2294
  22623197.259    -5102697.09559  -3945682.73759  22623197.9924   22623205.9464
  19185557.415   -24350428.85749 -18669294.03949  19185558.5864   19185562.5924
  22572753.684    -7329256.55549  -5691595.10449  22572754.5044   22572762.4314
 96  7 13  3 16 59.9930000  0  7 14 15 25 21 29  1 31
  21584263.280   -11121225.81149  -8654485.36249  21584265.1164   21584271.7544
  18961950.875   -24529672.58749 -18528295.62649  18961952.0744   18961956.8794
  19336505.213   -22520900.29349 -17275069.31049  19336506.9464   19336511.1654
  20199885.826   -25864646.28649 -20126172.39649  20199887.5604   20199893.1814
  22605915.016    -5193511.40049  -4016447.04749  22605916.8194   22605923.8314
  19196758.872   -24291560.93949 -18623422.93949  19196760.2904   19196764.7044
  22588747.672    -7245205.49249  -5626100.87849  22588749.0164   22588755.6414
 96  7 13  3 17 29.9930000  0  6 14 15 25 21 29  1
  21567537.590   -11209125.95249  -8722978.90949  21567538.1334   21567544.2464
  18952215.719   -24580827.45049 -18568156.55349  18952217.3774   18952222.5624
  19324142.171   -22585869.03649 -17325694.26949  19324143.8314   19324147.9794
  20212799.185   -25796786.92749 -20073294.99249  20212800.7094   20212805.0244
  22588656.836    -5284197.27849  -4087111.27149  22588659.3364   22588667.6404
  19208003.949   -24232469.96949 -18577378.02849  19208005.0904   19208009.0774
 96  7 13  3 17 59.9930000  0  6 14 15 25 21 29  1
  21550816.298   -11296991.04349  -8791445.12649  21550818.8964   21550823.8274
  18942587.055   -24631429.16249 -18607586.44949  18942588.3794   18942593.5144
  19311859.908   -22650413.61649 -17375988.71849  19311861.3674   19311865.5834
  20225764.512   -25728655.19449 -20020205.34149  20225766.2284   20225771.4524
  22571427.364    -5374745.99849  -4157668.63049  22571429.1044   22571436.9224
  19219292.092   -24173151.06949 -18531155.50649  19219293.1494   19219297.0454
 96  7 13  3 18 29.9930000  0  6 14 15 25 21 29  1
  21534100.398   -11384835.10149  -8859894.95849  21534101.5044   21534107.3934
  18933063.127   -24681478.48649 -18646585.91249  18933064.3364   18933069.0244
  19299658.722   -22714528.86649 -17425948.62249  19299660.4764   19299664.5974
  20238780.583   -25660251.22949 -19966903.56549  20238782.8224   20238787.0804
  22554219.932    -5465170.52149  -4228129.20649  22554221.0074   22554229.4894
  19230623.337   -24113602.30849 -18484753.86949  19230624.7364   19230629.0524
 96  7 13  3 18 59.9930000  0  6 14 15 25 21 29  1
  21517387.603   -11472662.87649  -8928332.11149  21517388.6954   21517394.6354
  18923643.736   -24730977.35449 -18685156.44649  18923644.9334   18923649.8544
  19287542.072   -22778200.60449 -17475562.93149  19287544.1764   19287548.2544
  20251845.311   -25591597.44249 -19913407.11549  20251846.6114   20251851.8444
  22537037.689    -5555465.55849  -4298488.88649  22537039.2824   22537046.3854
  19241995.829   -24053839.25849 -18438185.25549  19241997.1524   19242001.3544
 96  7 13  3 19 29.9930000  0  6 14 15 25 21 29  1
  21500680.469   -11560456.64449  -8996742.74649  21500681.5664   21500687.4264
  18914330.027   -24779918.73249 -18723292.57049  18914331.4744   18914336.6254
  19275514.831   -22841408.74649 -17524815.99749  19275516.1664   19275520.0744
  20264959.182   -25522683.77649 -19859708.17649  20264960.3074   20264965.7884
  22519881.396    -5645622.42649  -4368740.92149  22519883.3534   22519889.8784
  19253409.181   -23993863.29949 -18391450.74249  19253410.4374   19253414.5064
 96  7 13  3 19 59.9920000  0  6 14 15 25 21 29  1
  21483981.393   -11648210.13149  -9065122.01349  21483983.1044   21483988.5304
  18905123.004   -24828303.73849 -18760995.16549  18905124.3984   18905129.3214
  19263575.715   -22904148.23149 -17573703.86949  19263577.1374   19263581.2674
  20278122.145   -25453513.39349 -19805809.18249  20278123.5964   20278128.2474
  22502749.225    -5735648.94749  -4438891.37249  22502752.0734   22502757.3654
  19264863.517   -23933669.47249 -18344546.46249  19264864.7264   19264868.8834
 96  7 13  3 20 29.9920000  0  6 14 15 25 21 29  1
  21467289.258   -11735928.04349  -9133473.57349  21467290.2364   21467296.1574
  18896022.961   -24876125.05749 -18798258.52149  18896024.3754   18896029.3894
  19251723.949   -22966430.72549 -17622235.65549  19251725.4124   19251729.4744
  20291333.822   -25384085.61649 -19751709.63949  20291335.4824   20291340.0854
  22485643.917    -5825543.87849  -4508939.29249  22485645.0004   22485651.2224
  19276360.995   -23873249.37549 -18297465.87249  19276362.4854   19276366.4404
 96  7 13  3 20 59.9920000  0  6 14 15 25 21 29  1
  21450605.354   -11823600.67249  -9201789.85549  21450606.5334   21450611.8534
  18887030.720   -24923378.15049 -18835079.10149  18887032.2024   18887037.3804
  19239958.740   -23028257.91649 -17670412.65749  19239959.8964   19239963.8984
  20304593.219   -25314408.26449 -19697415.61449  20304594.5794   20304598.9254
  22468564.835    -5915290.77649  -4578871.92149  22468566.0464   22468573.5824
  19287900.585   -23812608.31049 -18250213.08649  19287902.0094   19287906.0214
 96  7 13  3 21 29.9920000  0  6 14 15 25 21 29  1
  21433928.718   -11911235.13949  -9270076.39749  21433930.8384   21433935.6854
  18878145.596   -24970070.75349 -18871462.94249  18878147.0394   18878152.1184
  19228274.900   -23089653.66449 -17718253.47049  19228276.7254   19228280.6514
  20317900.230   -25244480.14749 -19642926.19949  20317901.1314   20317906.1764
  22451510.744    -6004909.67349  -4648704.78749  22451512.6594   22451519.4854
  19299481.634   -23751749.96749 -18202791.00149  19299482.8164   19299487.0354
 96  7 13  3 21 59.9920000  0  6 14 15 25 21 29  1
  21417259.215   -11998838.42149  -9338338.61649  21417260.4084   21417266.0674
  18869368.780   -25016191.72949 -18907401.36049  18869370.2214   18869375.3694
  19216675.749   -23150608.88049 -17765751.00549  19216677.1554   19216681.3514
  20331255.638   -25174298.51849 -19588239.23449  20331256.7894   20331261.3044
  22434482.116    -6094396.20049  -4718434.47049  22434484.1674   22434490.0054
  19311107.859   -23690654.39149 -18155184.05949  19311108.8914   19311113.3154
 96  7 13  3 22 29.9920000  0  6 14 15 25 21 29  1
  21400593.198   -12086416.32049  -9406581.06749  21400594.7544   21400600.9634
  18860701.368   -25061740.14749 -18942893.62649  18860702.8724   18860707.8944
  19205162.562   -23211109.93149 -17812894.65249  19205164.4424   19205168.3484
  20344658.612   -25103863.15949 -19533354.56049  20344660.0734   20344663.9434
  22417480.886    -6183737.40249  -4788050.91649  22417482.0444   22417490.6864
  19322778.689   -23629324.01249 -18107394.15249  19322779.8314   19322784.0404
 96  7 13  3 22 59.9920000  0  6 14 15 25 21 29  1
  21383935.137   -12173955.61649  -9474793.44649  21383936.3014   21383941.5564
  18852143.417   -25106713.39149 -18977937.70649  18852144.8494   18852149.5294
  19193742.626   -23271123.88149 -17859658.73849  19193743.6854   19193748.2884
  20358112.323   -25033161.27149 -19478262.19649  20358113.5604   20358118.2734
  22400510.476    -6272923.76049  -4857546.70149  22400510.8444   22400516.9984
  19334495.276   -23567750.93649 -18059415.13349  19334496.8784   19334501.2424
 96  7 13  3 23 29.9920000  0  6 14 15 25 21 29  1
  21367285.102   -12261454.20949  -9542974.12449  21367286.7514   21367291.0344
  18843694.742   -25151111.20549 -19012533.40249  18843696.2044   18843700.9594
  19182415.524   -23330646.09949 -17906039.66149  19182417.4234   19182421.4474
  20371617.542   -24962190.62249 -19422960.41849  20371619.3514   20371624.4834
  22383564.044    -6361971.32149  -4926934.31649  22383566.2734   22383571.9754
  19346256.588   -23505944.65649 -18011254.39449  19346258.0854   19346262.8084
 96  7 13  3 23 59.9920000  0  6 14 15 25 21 29  1
  21350638.947   -12348928.35249  -9611135.74849  21350640.0424   21350646.1384
  18835354.059   -25194944.03449 -19046688.84549  18835355.0814   18835360.0184
  19171179.964   -23389688.29349 -17952046.53949  19171181.7884   19171185.9924
  20385172.342   -24890966.02349 -19367460.75849  20385172.8584   20385177.2384
  22366644.498    -6450882.84949  -4996215.92849  22366646.4854   22366654.0634
  19358059.052   -23443923.26249 -17962926.03849  19358060.5074   19358065.0184
 96  7 13  3 24 29.9920000  0  6 14 15 25 21 29  1
  21334004.002   -12436344.08749  -9679251.86849  21334005.1084   21334010.9414
  18827123.681   -25238193.81649 -19080389.96749  18827124.8424   18827129.6034
  19160039.504   -23448232.67749 -17997665.50849  19160041.2634   19160045.1984
  20398775.613   -24819476.70649 -19311754.81349  20398776.9394   20398781.8774
  22349753.987    -6539642.99249  -5065379.56249  22349755.6294   22349762.0534
  19369901.375   -23381691.48849 -17914433.75549  19369902.4014   19369907.1904
 96  7 13  3 24 59.9920000  0  6 14 15 25 21 29  1
  21317379.436   -12523710.96949  -9747329.93249  21317380.7884   21317385.3614
  18819001.643   -25280872.99149 -19113646.45949  18819003.2104   18819007.9374
  19148989.007   -23506304.58849 -18042916.31549  19148990.5344   19148994.5704
  20412426.876   -24747737.63649 -19255854.26049  20412428.4704   20412432.3714
  22332887.855    -6628276.12649  -5134444.21949  22332890.3434   22332896.1124
  19381779.350   -23319273.52149 -17865796.37649  19381780.4814   19381785.0184
 96  7 13  3 25 29.9920000  0  6 14 15 25 21 29  1
  21300761.836   -12611034.47149  -9815374.17949  21300762.5344   21300769.1834
  18810990.001   -25322976.65549 -19146454.51149  18810991.0384   18810996.1334
  19138024.258   -23563922.77349 -18087813.57649  19138026.1194   19138030.1424
  20426124.867   -24675754.10149 -19199763.21849  20426127.1084   20426131.1974
  22316047.073    -6716773.82549  -5203403.34549  22316049.4984   22316054.9344
  19393691.010   -23256679.63749 -17817021.92649  19393692.0404   19393696.3474
 96  7 13  3 25 59.9920000  0  6 14 15 25 21 29  1
  21284151.544   -12698320.30749  -9883389.07949  21284153.4954   21284159.1114
  18803088.628   -25364498.17649 -19178808.93849  18803089.7084   18803094.9904
  19127146.982   -23621085.95349 -18132356.28149  19127148.4034   19127152.1564
  20439870.403   -24603521.02349 -19143477.70649  20439871.6714   20439876.8064
  22299234.131    -6805122.73449  -5272246.54849  22299237.2424   22299243.2814
  19405634.463   -23193912.13949 -17768112.18549  19405635.8144   19405640.4324
 96  7 13  3 26 29.9920000  0  6 14 15 25 21 29  1
  21267551.277   -12785558.28149  -9951366.69249  21267552.0954   21267558.4164
  18795299.733   -25405427.91249 -19210702.24449  18795301.1514   18795306.3854
  19116358.885   -23677774.27349 -18176528.97349  19116360.5354   19116364.8374
  20453664.556   -24531033.81349 -19086994.17849  20453666.2094   20453670.7834
  22282449.986    -6893327.18849  -5340977.19049  22282452.3614   22282457.9494
  19417613.360   -23130962.94649 -17719060.86849  19417614.7054   19417619.2044
 96  7 13  3 26 59.9920000  0  6 14 15 25 21 29  1
  21250957.170   -12872759.15549 -10019315.39149  21250958.3144   21250964.7014
  18787623.119   -25445770.22349 -19242137.81549  18787624.5614   18787629.4574
  19105659.994   -23733997.27849 -18220339.08049  19105661.5004   19105665.9244
  20467507.766   -24458286.88549 -19030308.27349  20467509.2174   20467514.5034
  22265693.307    -6981387.10249  -5409595.17549  22265693.4344   22265700.6224
  19429628.255   -23067825.11549 -17669862.56349  19429629.3024   19429633.7214
 96  7 13  3 27 29.9920000  0  6 14 15 25 21 29  1
  21234368.007   -12959936.55249 -10087245.79849  21234368.9944   21234375.0484
  18780056.208   -25485537.16349 -19273125.04149  18780057.1054   18780062.0564
  19095047.705   -23789764.90249 -18263794.34349  19095049.5314   19095053.8334
  20481398.130   -24385294.85449 -18973431.36549  20481398.8394   20481403.9384
  22248959.796    -7069318.75949  -5478113.26849  22248960.8174   22248967.7064
  19441677.126   -23004507.49349 -17620524.15849  19441678.7464   19441682.9634
 96  7 13  3 27 59.9920000  0  6 14 15 25 21 29  1
  21217789.787   -13047055.36349 -10155130.55549  21217790.8234   21217796.2174
  18772602.772   -25524701.15449 -19303642.43749  18772604.3754   18772609.3104
  19084529.619   -23845038.25349 -18306864.45949  19084531.5124   19084535.9714
  20495340.501   -24312024.74849 -18916337.79549  20495342.0024   20495347.1134
  22232252.866    -7157115.96649  -5546526.52049  22232253.5544   22232260.9354
  19453768.469   -22940968.83849 -17571013.52049  19453769.5804   19453773.8394
 96  7 13  3 28 29.9920000  0  6 14 15 25 21 29  1
  21201222.679   -13134114.94749 -10222969.16749  21201223.9964   21201230.0944
  18765262.056   -25563278.75449 -19333702.90949  18765263.0834   18765268.4414
  19074102.346   -23899835.55549 -18349563.63049  19074103.7474   19074107.7684
  20509331.688   -24238501.93449 -18859047.30249  20509332.5774   20509338.9914
  22215568.543    -7244785.34049  -5614840.24249  22215570.5084   22215576.9224
  19465901.289   -22877211.70349 -17521332.63049  19465902.2944   19465906.6214
 96  7 13  3 28 59.9920000  0  6 14 15 25 21 29  1
  21184666.937   -13221114.80549 -10290761.22949  21184668.1464   21184673.4054
  18758031.573   -25601273.76349 -19363309.40949  18758032.8914   18758038.1634
  19063762.882   -23954168.37549 -18391900.86149  19063764.6164   19063768.9134
  20523369.442   -24164728.97749 -18801561.89049  20523371.3214   20523377.0404
  22198913.808    -7332312.88849  -5683043.44849  22198914.7234   22198922.4934
  19478072.524   -22813246.93349 -17471489.95049  19478074.4034   19478078.6404
 96  7 13  3 29 29.9920000  0  6 14 15 25 21 29  1
  21168122.665   -13308053.16649 -10358505.37449  21168124.5374   21168129.8904
  18750911.514   -25638688.85049 -19392464.03049  18750913.0994   18750918.4874
  19053512.950   -24008031.64249 -18433872.20949  19053514.5564   19053518.6704
  20537455.022   -24090708.49749 -18743883.60549  20537456.3344   20537461.9274
  22182283.859    -7419699.90349  -5751137.13549  22182285.8674   22182290.9154
  19490281.882   -22749087.56249 -17421495.62649  19490283.2514   19490287.5894
 96  7 13  3 29 59.9920000  0  6 14 15 25 21 29  1
  21151594.439   -13394909.85149 -10426185.86849  21151595.8844   21151601.4624
  18743906.238   -25675504.74349 -19421151.74449  18743907.3244   18743912.3624
  19043356.081   -24061406.70549 -18475463.14249  19043357.7764   19043361.9654
  20551592.441   -24016420.28049 -18685996.70349  20551592.7444   20551599.6484
  22165687.679    -7506912.01349  -5819094.55849  22165689.1884   22165695.9104
  19502529.188   -22684728.84749 -17371345.98449  19502530.1794   19502534.8534
 96  7 13  3 30 29.9920000  0  6 14 15 25 21 29  1
  21135080.702   -13481691.73449 -10493808.06649  21135082.3864   21135087.6534
  18737014.258   -25711721.31249 -19449372.44649  18737015.5864   18737020.6074
  19033292.526   -24114291.04449 -18516671.69249  19033294.2374   19033298.3964
  20565778.238   -23941872.48449 -18627907.53649  20565779.0544   20565785.4454
  22149129.890    -7593930.50549  -5886901.08349  22149131.1174   22149137.8344
  19514811.162   -22620187.73849 -17321054.20949  19514812.1564   19514816.7164
 96  7 13  3 30 59.9920000  0  6 14 15 25 21 29  1
  21118575.481   -13568424.75949 -10561392.20249  21118577.6414   21118583.0144
  18730233.371   -25747354.46849 -19477138.54349  18730234.8124   18730240.0544
  19023320.655   -24166694.74049 -18557505.71549  19023322.3454   19023326.0264
  20580010.608   -23867080.32649 -18569627.94649  20580011.3934   20580017.8004
  22132598.854    -7680795.54649  -5954588.02349  22132600.4384   22132607.6064
  19527121.465   -22555495.22749 -17270644.46449  19527122.8914   19527127.3464
 96  7 13  3 31 29.9920000  0  6 14 15 25 21 29  1
  21102082.372   -13655097.22549 -10628929.13849  21102084.3104   21102090.2744
  18723567.284   -25782385.59549 -19504435.52649  18723568.4334   18723573.7224
  19013444.001   -24218597.26449 -18597949.21249  19013445.4254   19013449.5404
  20594291.485   -23792036.26649 -18511152.07349  20594292.2604   20594297.9984
  22116099.975    -7767500.35949  -6022150.12749  22116102.3834   22116107.7764
  19539465.390   -22490628.41649 -17220098.90249  19539466.5404   19539470.9264
 96  7 13  3 31 59.9920000  0  6 14 15 25 21 29  1
  21085598.693   -13741720.42149 -10696427.70649  21085600.7054   21085605.7594
  18717014.928   -25816817.75849 -19531265.78049  18717016.4364   18717021.3654
  19003660.938   -24270006.17849 -18638008.08149  19003662.4424   19003666.5774
  20608615.811   -23716760.10449 -18452495.34549  20608617.5434   20608622.0584
  22099628.220    -7854055.33049  -6089595.48549  22099629.9854   22099636.3544
  19551842.811   -22425583.93849 -17169414.89149  19551844.0424   19551848.3404
 96  7 13  3 32 29.9920000  0  6 14 15 25 21 29  1
  21069122.593   -13828301.86949 -10763893.73049  21069124.6834   21069130.2764
  18710575.365   -25850660.07149 -19557636.41149  18710576.4664   18710581.3544
  18993970.700   -24320928.08249 -18677687.46449  18993972.3844   18993976.4844
  20622980.462   -23641273.56549 -18393674.69049  20622981.5514   20622987.1724
  22083180.640    -7940491.90449  -6156948.60149  22083181.9504   22083188.0914
  19564255.982   -22360353.34249 -17118585.85849  19564256.9714   19564261.4784
 96  7 13  3 32 59.9920000  0  6 14 15 25 21 29  1
  21052656.493   -13914831.64649 -10831319.49549  21052658.3274   21052664.3654
  18704249.522   -25883899.88449 -19583537.56049  18704250.9494   18704255.9434
  18984376.167   -24371346.58049 -18716974.57849  18984377.9544   18984382.2124
  20637387.871   -23565558.34349 -18334675.82849  20637389.3714   20637394.6404
  22066756.585    -8026798.78249  -6224200.65549  22066759.0664   22066764.6764
  19576708.741   -22294913.05049 -17067593.42049  19576709.8254   19576714.5284
 96  7 13  3 33 29.9920000  0  6 14 15 25 21 29  1
  21036199.408   -14001317.68149 -10898711.18249  21036200.4534   21036205.4924
  18698038.232   -25916543.36749 -19608974.03849  18698039.3214   18698043.8284
  18974874.288   -24421279.93349 -18755883.65849  18974876.2744   18974880.0654
  20651838.583   -23489620.99149 -18275503.88949  20651839.8374   20651845.8434
  22050359.843    -8112963.21749  -6291341.67249  22050361.0124   22050368.1314
  19589199.797   -22229270.20949 -17016443.15649  19589201.4104   19589205.6624
 96  7 13  3 33 59.9920000  0  6 14 15 25 21 29  1
  21019752.009   -14087748.82249 -10966060.08849  21019754.2864   21019758.3814
  18691942.480   -25948577.51049 -19633935.70149  18691943.4424   18691947.9364
  18965464.717   -24470726.25049 -18794413.23149  18965466.4914   18965470.8374
  20666334.571   -23413444.81749 -18216145.85149  20666335.4934   20666341.9724
  22033991.226    -8198978.96449  -6358366.82649  22033993.0284   22033999.0524
  19601731.251   -22163418.84949 -16965130.41149  19601732.0744   19601736.9524
 96  7 13  3 34 29.9920000  0  6 14 15 25 21 29  1
  21003312.365   -14174137.14749 -11033375.63749  21003314.4314   21003319.5214
  18685960.444   -25980012.24349 -19658430.29349  18685961.5194   18685966.3394
  18956146.341   -24519695.08849 -18832570.74249  18956148.1904   18956152.4464
  20680875.652   -23337032.10349 -18156603.49949  20680876.7904   20680881.7954
  22017650.457    -8284850.97149  -6425279.96949  22017652.6674   22017658.8074
  19614296.172   -22097389.15749 -16913678.70549  19614297.3564   19614301.7124
 96  7 13  3 34 59.9920000  0  6 14 15 25 21 29  1
  20986882.059   -14260479.95449 -11100655.70749  20986883.6554   20986889.2914
  18680093.589   -26010841.88749 -19682453.39149  18680094.8994   18680099.6564
  18946918.636   -24568188.12449 -18870357.50449  18946920.1944   18946924.2544
  20695463.500   -23260372.57349 -18096868.82649  20695465.4764   20695469.4944
  22001341.433    -8370554.73149  -6492062.02349  22001342.9364   22001348.5544
  19626891.266   -22031202.39549 -16862104.60249  19626892.5034   19626896.9884
 96  7 13  3 35 29.9920000  0  6 14 15 25 21 29  1
  20970462.513   -14346765.67149 -11167891.30949  20970463.5394   20970469.3104
  18674343.080   -26041063.46849 -19706002.67649  18674344.1024   18674348.7204
  18937780.004   -24616211.88349 -18907778.59449  18937781.6184   18937785.5624
  20710096.754   -23183473.66249 -18036947.62649  20710098.2904   20710103.2164
  21985061.600    -8456102.70949  -6558722.68149  21985063.9744   21985070.6934
  19639513.908   -21964868.15149 -16810415.58349  19639515.4914   19639520.0954
 96  7 13  3 35 59.9920000  0  6 14 15 25 21 29  1
  20954053.178   -14432998.00949 -11235085.30249  20954055.0284   20954059.5984
  18668707.120   -26070677.87249 -19729078.83549  18668708.4574   18668713.2414
  18928736.813   -24663735.99949 -18944810.35349  18928738.3524   18928741.9884
  20724774.986   -23106341.71349 -17976844.83449  20724775.4294   20724780.6844
  21968810.380    -8541506.94149  -6625271.31549  21968811.6124   21968818.3954
  19652164.902   -21898386.69949 -16758611.85449  19652166.3384   19652170.9034
 96  7 13  3 36 29.9920000  0  6 14 15 25 21 29  1
  20937653.878   -14519173.37549 -11302234.90449  20937655.8014   20937660.9224
  18663186.491   -26099690.63349 -19751686.18349  18663187.6264   18663192.3604
  18919791.329   -24710744.83249 -18981440.59149  18919792.7244   18919796.7264
  20739495.363   -23028986.20149 -17916567.83449  20739495.9254   20739501.6764
  21952584.985    -8626766.39549  -6691707.13849  21952586.5904   21952593.4944
  19664843.560   -21831761.80049 -16706696.34549  19664844.6324   19664849.0344
 96  7 13  3 36 59.9920000  0  6 14 15 25 21 29  1
  20921272.690   -14605259.24049 -11369314.76349  20921273.9164   20921279.7474
  18657784.527   -26128078.10949 -19773806.29149  18657785.5894   18657790.5374
  18910949.749   -24757208.19049 -19017645.78549  18910950.8444   18910954.9864
  20754262.569   -22951384.78049 -17856099.21549  20754263.4574   20754268.2954
  21936393.088    -8711864.76649  -6758017.43949  21936393.5134   21936399.6924
  19677557.101   -21764949.80649 -16654635.04649  19677558.6854   19677562.6714
 96  7 13  3 37 29.9920000  0  6 14 15 25 21 29  1
  20904903.665   -14691275.52549 -11436340.41049  20904905.7204   20904911.2454
  18652500.222   -26155847.57249 -19795444.83449  18652501.1994   18652506.2354
  18902211.670   -24803123.85649 -19053424.20449  18902213.3784   18902217.4214
  20769074.061   -22873542.12249 -17795442.61749  20769076.3084   20769081.0574
  21920223.033    -8796829.05949  -6824223.26549  21920225.1674   21920231.1164
  19690307.764   -21697945.76849 -16602424.10149  19690308.9184   19690313.2294
 96  7 13  3 37 59.9920000  0  6 14 15 25 21 29  1
  20888545.495   -14777242.37849 -11503327.54049  20888546.5304   20888552.3464
  18647330.003   -26183013.99849 -19816613.47949  18647331.5794   18647336.6944
  18893574.257   -24848514.54949 -19088793.55849  18893575.8154   18893580.0124
  20783933.391   -22795459.51149 -17734599.04149  20783934.9964   20783940.0734
  21904080.803    -8881661.60949  -6890326.45949  21904082.2944   21904089.1814
  19703091.354   -21630769.82549 -16550079.20849  19703092.2594   19703096.7404
 96  7 13  3 38 29.9920000  0  6 14 15 25 21 29  1
  20872198.402   -14863144.85949 -11570264.50049  20872199.5904   20872205.2304
  18642277.067   -26209568.44949 -19837305.26049  18642278.2664   18642283.4954
  18885032.325   -24893400.92449 -19123769.93749  18885034.1004   18885038.6134
  20798841.066   -22717118.17949 -17673553.86949  20798842.3264   20798848.7054
  21887965.278    -8966346.73449  -6956314.75549  21887967.7194   21887973.9554
  19715905.401   -21563429.43749 -16497606.17349  19715906.7354   19715910.9194
 96  7 13  3 38 59.9920000  0  6 14 15 25 21 29  1
  20855862.795   -14948989.84249 -11637156.65149  20855864.3454   20855869.8934
  18637341.730   -26235503.74949 -19857514.58649  18637342.7604   18637348.5184
  18876587.063   -24937781.54949 -19158352.22249  18876588.6214   18876593.1894
  20813802.709   -22638501.37849 -17612294.05149  20813803.5024   20813807.8264
  21871878.910    -9050877.46049  -7022182.75449  21871881.5444   21871888.4214
  19728748.916   -21495934.04049 -16445012.35649  19728750.3734   19728755.1704
 96  7 13  3 39 29.9920000  0  6 14 15 25 21 29  1
  20839536.599   -15034784.84549 -11704009.88449  20839537.7024   20839543.1524
  18632521.940   -26260830.94049 -19877250.06549  18632523.5324   18632528.6774
  18868234.123   -24981676.39449 -19192555.98149  18868235.8054   18868240.1034
  20828813.583   -22559618.95049 -17550827.26649  20828813.6144   20828819.2594
  21855822.963    -9135259.50149  -7087934.91149  21855824.2094   21855830.5184
  19741617.671   -21428310.06949 -16392318.34749  19741618.7384   19741623.3324
 96  7 13  3 39 59.9920000  0  6 14 15 25 21 29  1
  20823223.647   -15120506.83149 -11770806.20649  20823225.2444   20823231.0954
  18627820.078   -26285540.50949 -19896504.27749  18627821.1364   18627826.4934
  18859975.688   -25025076.48649 -19226374.21649  18859977.0724   18859981.3394
  20843875.723   -22480465.63349 -17489149.38749  20843876.7244   20843881.0464
  21839797.177    -9219471.79849  -7153554.78749  21839798.4754   21839805.5514
  19754510.419   -21360557.11549 -16339523.83549  19754511.6504   19754516.3284
 96  7 13  3 40 29.9920000  0  6 14 15 25 21 29  1
  20806925.177   -15206157.60849 -11837547.03449  20806926.1864   20806931.6684
  18623235.262   -26309633.70949 -19915278.19849  18623236.4754   18623241.6014
  18851812.815   -25067972.83949 -19259799.92749  18851814.1974   18851818.4604
  20858985.585   -22401058.58749 -17427273.80049  20858987.2924   20858991.9344
  21823802.618    -9303524.99949  -7219050.70949  21823803.6984   21823809.3564
  19767428.874   -21292668.49749 -16286623.60949  19767430.5844   19767434.8894
 96  7 13  3 40 59.9920000  0  6 14 15 25 21 29  1
  20790640.904   -15291729.51149 -11904226.40949  20790642.5944   20790648.4914
  18618768.440   -26333106.38749 -19933568.59749  18618769.6964   18618775.2134
  18843746.165   -25110361.67749 -19292830.17749  18843747.8814   18843752.2214
  20874144.358   -22321399.51349 -17365201.82849  20874145.7254   20874150.4574
  21807837.692    -9387419.47849  -7284422.94449  21807840.5944   21807845.9364
  19780377.800   -21224621.65549 -16233600.09549  19780379.1304   19780383.8664
 96  7 13  3 41 29.9920000  0  6 14 15 25 21 29  1
  20774372.726   -15377223.04049 -11970844.71749  20774374.3854   20774379.0914
  18614418.455   -26355967.92949 -19951382.78849  18614419.6634   18614424.6724
  18835772.707   -25152264.01749 -19325481.33749  18835774.1254   18835778.1904
  20889346.645   -22241512.24949 -17302952.05049  20889347.0634   20889352.4344
  21791900.541    -9471172.09349  -7349684.63749  21791901.4054   21791907.7624
  19793357.669   -21156414.16649 -16180451.40049  19793358.8454   19793363.2544
 96  7 13  3 41 59.9920000  0  6 14 15 25 21 29  1
  20758118.632   -15462635.21749 -12037399.63649  20758120.6984   20758125.7204
  18610186.893   -26378204.75249 -19968710.18149  18610187.9764   18610193.2144
  18827894.282   -25193664.59949 -19357741.51949  18827896.0984   18827899.8794
  20904591.622   -22161396.62549 -17240524.31249  20904592.9954   20904597.6104
  21775992.140    -9554773.21849  -7414828.29249  21775992.8514   21775999.0744
  19806371.491   -21088026.68249 -16127162.44849  19806372.4954   19806376.9054
 96  7 13  3 42 29.9920000  0  6 14 15 25 21 29  1
  20741878.889   -15547978.26149 -12103900.69249  20741880.7764   20741885.3014
  18606072.097   -26399825.71549 -19985557.68849  18606073.6384   18606078.7494
  18820107.955   -25234582.49749 -19389625.58449  18820109.5044   18820113.3084
  20919877.792   -22081068.01649 -17177930.62849  20919879.4604   20919884.1524
  21760109.432    -9638234.23549  -7479862.77149  21760111.8204   21760116.7944
  19819417.093   -21019473.11749 -16073744.08449  19819417.7634   19819422.2794
 96  7 13  3 42 59.9920000  0  6 14 15 25 21 29  1
  20725653.413   -15633244.35349 -12170341.78249  20725654.6014   20725659.9094
  18602075.426   -26420830.13549 -20001924.76749  18602076.3824   18602081.6544
  18812414.708   -25275008.14449 -19421126.07349  18812416.5754   18812420.5694
  20935203.415   -22000532.68349 -17115175.84749  20935205.2054   20935210.1674
  21744254.344    -9721551.56249  -7544785.28649  21744255.7084   21744261.8414
  19832492.518   -20950759.26049 -16020200.81749  19832493.8024   19832498.1244
 96  7 13  3 43 29.9920000  0  6 14 15 25 21 29  1
  20709441.664   -15718436.01049 -12236724.86849  20709443.9264   20709448.5664
  18598195.896   -26441216.71449 -20017810.41549  18598196.9594   18598202.0744
  18804818.183   -25314929.17849 -19452233.35549  18804819.7514   18804823.7934
  20950564.790   -21919806.03049 -17052271.99149  20950566.0224   20950572.4384
  21728426.015    -9804734.17249  -7609602.85149  21728426.8354   21728432.5734
  19845596.719   -20881896.49749 -15966541.52049  19845598.0124   19845602.3714
 96  7 13  3 43 59.9920000  0  6 14 15 25 21 29  1
  20693244.766   -15803552.84449 -12303049.65049  20693245.5714   20693252.4594
  18594433.924   -26460984.60549 -20033213.95749  18594435.2634   18594440.3494
  18797319.675   -25354332.54349 -19482937.25449  18797321.5464   18797325.9844
  20965962.560   -21838890.02049 -16989220.56949  20965964.3654   20965969.8304
  21712622.867    -9887771.81849  -7674307.44849  21712625.1164   21712631.7794
  19858727.028   -20812896.59149 -15912775.35249  19858728.0844   19858732.6364
 96  7 13  3 44 29.9920000  0  6 14 15 25 21 29  1
  20677063.757   -15888580.48149 -12369304.92149  20677066.1624   20677071.4024
  18590790.431   -26480132.78549 -20048134.61349  18590791.6484   18590796.9974
  18789921.298   -25393212.29149 -19513233.14949  18789922.8204   18789926.8034
  20981398.121   -21757775.93149 -16926014.81249  20981399.3794   20981405.5074
  21696850.264    -9970664.03549  -7738898.74549  21696851.1154   21696857.6724
  19871880.564   -20743773.16849 -15858912.94349  19871881.5474   19871886.4044
 96  7 13  3 44 59.9920000  0  6 14 15 25 21 29  1
  20660902.792   -15973510.80849 -12435484.37549  20660904.3414   20660909.3574
  18587265.646   -26498655.39749 -20062567.82549  18587266.8064   18587271.9804
  18782624.754   -25431556.10649 -19543111.42749  18782626.3374   18782630.2124
  20996873.221   -21676456.06049 -16862648.70349  20996874.2734   20996880.5624
  21681104.612   -10053400.01449  -7803368.28349  21681106.8764   21681113.0244
  19885060.535   -20674512.87449 -15804943.88349  19885061.6334   19885066.3314
 96  7 13  3 45 29.9920000  0  6 14 15 25 21 29  1
  20644753.957   -16058372.37349 -12501610.25449  20644755.4064   20644761.0924
  18583857.646   -26516563.43649 -20076522.14149  18583859.0474   18583863.9844
  18775426.340   -25469384.24449 -19572587.88449  18775428.0944   18775432.0864
  21012389.408   -21594918.79049 -16799113.20549  21012391.2724   21012395.9834
  21665389.887   -10135987.56149  -7867722.16049  21665390.9454   21665396.6234
  19898264.052   -20605127.36849 -15750877.24849  19898265.0794   19898269.7804
 96  7 13  3 45 59.9920000  0  6 14 15 25 21 29  1
  20628618.548   -16143166.07549 -12567683.25549  20628619.7394   20628625.1154
  18580567.412   -26533855.71349 -20089996.65049  18580568.5254   18580573.3744
  18768326.874   -25506693.73649 -19601660.19949  18768328.1024   18768332.5024
  21027949.661   -21513144.52549 -16735393.02849  21027952.0584   21027957.6964
  21649703.649   -10218411.37649  -7931948.46349  21649706.8954   21649712.3874
  19911490.394   -20535620.51049 -15696716.05749  19911492.0684   19911496.3874
 96  7 13  3 46 29.9920000  0  6 14 15 25 21 29  1
  20612494.415   -16227897.48149 -12633707.70349  20612495.7924   20612500.8294
  18577393.663   -26550530.19849 -20102989.75549  18577395.3004   18577400.3134
  18761325.705   -25543482.02749 -19630326.38549  18761327.7524   18761331.4974
  21043557.452   -21431127.15149 -16671483.42349  21043559.0094   21043564.7094
  21634050.984   -10300675.47949  -7996050.31549  21634051.7584   21634057.6454
  19924740.466   -20465989.63549 -15642458.23849  19924742.1664   19924746.6734
 96  7 13  3 46 59.9920000  0  6 14 15 25 21 29  1
  20596380.774   -16312575.22649 -12699690.34649  20596382.3934   20596387.7444
  18574339.318   -26566584.35149 -20115499.48549  18574340.3334   18574345.4304
  18754425.961   -25579741.72549 -19658580.68549  18754427.5124   18754431.6234
  21059210.938   -21348864.05849 -16607382.34849  21059212.8314   21059219.0994
  21618426.193   -10382783.73949  -8060030.73549  21618427.4994   21618433.2544
  19938016.987   -20396225.03849 -15588096.21549  19938018.0384   19938022.5244
 96  7 13  3 47 29.9920000  0  6 14 15 25 21 29  1
  20580281.033   -16397180.86149 -12765616.81149  20580282.5504   20580288.1454
  18571403.699   -26582010.46149 -20127519.83249  18571405.0714   18571409.7354
  18747628.722   -25615462.92549 -19686415.37649  18747630.3404   18747634.2604
  21074914.028   -21266343.38549 -16543080.57049  21074916.0334   21074922.9064
  21602828.369   -10464745.57549  -8123897.04249  21602830.2384   21602836.3314
  19951317.345   -20326330.68249 -15533633.07349  19951318.6304   19951323.0834
 96  7 13  3 47 59.9920000  0  6 14 15 25 21 29  1
  20564199.867   -16481687.62349 -12831466.22549  20564201.4034   20564206.8824
  18568587.745   -26596808.87049 -20139051.06049  18568589.1064   18568593.6854
  18740932.961   -25650649.55749 -19713833.52849  18740934.6554   18740938.6604
  21090662.166   -21183593.61649 -16478600.27249  21090663.1574   21090669.6104
  21587259.941   -10546563.30349  -8187651.07149  21587260.9434   21587267.3094
  19964639.398   -20256322.71649 -15479081.40849  19964640.6214   19964645.3324
 96  7 13  3 48 29.9920000  0  6 14 15 25 21 29  1
  20548137.678   -16566092.47549 -12897236.21649  20548139.4114   20548144.7754
  18565890.932   -26610982.20149 -20150095.21449  18565891.9154   18565896.7394
  18734336.822   -25685310.48149 -19740842.03349  18734338.4734   18734342.5254
  21106450.471   -21100622.87649 -16413947.79549  21106451.3934   21106457.3664
  21571713.934   -10628254.49849  -8251306.50149  21571715.5544   21571721.3464
  19977982.800   -20186202.83249 -15424442.53849  19977984.0184   19977988.6084
 96  7 13  3 48 59.9920000  0  6 14 15 25 21 29  1
  20532099.711   -16650374.02449 -12962910.12749  20532101.4924   20532106.7494
  18563314.729   -26624517.41649 -20160642.14149  18563316.1564   18563321.0724
  18727841.329   -25719444.74049 -19767440.15249  18727842.8694   18727847.1694
  21122284.475   -21017414.74249 -16349110.32749  21122286.2604   21122292.3124
  21556195.586   -10709804.71949  -8314852.08949  21556197.2664   21556203.3064
  19991349.881   -20115957.11949 -15369705.61649  19991351.1584   19991355.5854
 96  7 13  3 49 29.9920000  0  6 14 15 25 21 29  1
  20516080.384   -16734555.51949 -13028506.07649  20516082.2264   20516087.3814
  18560857.111   -26637433.26349 -20170706.43749  18560858.2614   18560863.2824
  18721441.127   -25753079.08149 -19793648.71649  18721442.5764   18721446.8124
  21138158.173   -20934001.97449 -16284113.39849  21138158.3394   21138164.3704
  21540703.947   -10791211.94249  -8378286.23149  21540705.6704   21540712.3924
  20004737.036   -20045608.81049 -15314888.75349  20004738.0404   20004742.3884
 96  7 13  3 49 59.9920000  0  6 14 15 25 21 29  1
  20500076.370   -16818656.73949 -13094039.46849  20500077.5054   20500083.1444
  18558518.403   -26649723.69249 -20180283.39349  18558519.6424   18558524.7184
  18715136.530   -25786208.89749 -19819464.15349  18715138.1034   18715142.1114
  21154069.178   -20850389.26049 -16218960.66049  21154069.6434   21154074.5594
  21525243.194   -10872461.88849  -8441597.81549  21525245.4964   21525250.8084
  20018146.818   -19975141.60449 -15259979.23949  20018147.6164   20018151.9214
 96  7 13  3 50 29.9920000  0  6 14 15 25 21 29  1
  20484082.776   -16902702.33449 -13159529.51049  20484084.0094   20484089.8214
  18556299.796   -26661384.92949 -20189370.07449  18556300.6434   18556305.8794
  18708929.590   -25818828.05049 -19844881.66849  18708931.1384   18708935.0074
  21170020.328   -20766561.15049 -16153640.07149  21170021.9224   21170027.9774
  21509812.337   -10953547.26049  -8504781.16149  21509814.2234   21509820.6714
  20031582.489   -19904535.10749 -15204961.18949  20031583.6594   20031587.6364
 96  7 13  3 50 59.9920000  0  6 14 15 25 21 29  1
  20468101.102   -16986685.07349 -13224970.57349  20468102.7074   20468107.6394
  18554201.166   -26672411.03749 -20197961.84449  18554202.4474   18554207.2854
  18702820.896   -25850929.33249 -19869895.64849  18702822.2074   18702826.1304
  21186012.176   -20682528.54949 -16088160.14549  21186013.1394   21186018.3294
  21494419.082   -11034442.12649  -8567816.05049  21494420.2594   21494427.2414
  20045046.192   -19833780.87849 -15149828.01649  20045047.3574   20045051.8864
 96  7 13  3 51 29.9920000  0  6 14 15 25 21 29  1
  20452132.218   -17070603.68049 -13290361.65949  20452133.6384   20452139.0194
  18552223.251   -26682805.84249 -20206061.69849  18552224.5124   18552229.5124
  18696811.027   -25882511.62949 -19894505.22249  18696812.6714   18696816.1904
  21202039.424   -20598303.38949 -16022530.18549  21202040.8984   21202046.0864
  21479059.812   -11115154.37249  -8630708.63949  21479061.7594   21479068.5354
  20058536.250   -19762890.32249 -15094588.62549  20058537.3544   20058542.3184
 96  7 13  3 51 59.9920000  0  6 14 15 25 21 29  1
  20436178.390   -17154440.89749 -13355689.33049  20436179.9844   20436185.3454
  18550365.406   -26692567.99549 -20213668.57449  18550366.5744   18550371.6684
  18690899.415   -25913575.75349 -19918711.02149  18690901.4134   18690905.0654
  21218108.643   -20513858.44049 -15956728.93149  21218109.9084   21218114.5064
  21463733.081   -11195699.56949  -8693471.07049  21463734.9984   21463740.6314
  20072051.421   -19691864.82449 -15039244.07749  20072052.9874   20072057.5034
 96  7 13  3 52 29.9920000  0  6 14 15 25 21 29  1
  20420243.944   -17238175.90249 -13420937.35449  20420245.5734   20420251.2624
  18548626.279   -26701707.62449 -20220790.36749  18548627.3614   18548632.4724
  18685084.361   -25944136.08849 -19942524.25349  18685085.6544   18685089.5214
  21234219.480   -20429192.76349 -15890755.68649  21234220.5294   21234226.3174
  21448437.856   -11276076.78249  -8756102.60849  21448439.2144   21448444.7354
  20085588.881   -19620727.49049 -14983812.38249  20085590.1304   20085594.2954
 96  7 13  3 52 59.9920000  0  6 14 15 25 21 29  1
  20404335.279   -17321781.13149 -13486084.25549  20404335.9404   20404341.6714
  18547006.662   -26710217.74849 -20227421.64149  18547007.8964   18547012.9384
  18679366.368   -25974183.62649 -19965937.90349  18679368.0244   18679371.9324
  21250375.847   -20344290.85949 -15824598.38449  21250376.6994   21250382.4204
  21433174.208   -11356286.25349  -8818603.43249  21433175.0844   21433181.3054
  20099146.167   -19549483.64449 -14928297.69849  20099147.4994   20099152.2784
 96  7 13  3 53 29.9920000  0  6 14 15 25 21 29  1
  20388450.047   -17405256.55249 -13551130.02049  20388451.7924   20388456.8374
  18545508.269   -26718092.09249 -20233557.49949  18545509.4274   18545514.6644
  18673747.158   -26003712.58149 -19988947.46249  18673748.4854   18673752.2964
  21266580.118   -20259138.58549 -15758245.97749  21266581.0804   21266586.3204
  21417940.889   -11436337.18249  -8880980.73149  21417943.3774   21417948.7964
  20112723.054   -19478136.37649 -14872702.42049  20112724.5254   20112728.8524
 96  7 13  3 53 59.9920000  0  6 14 15 25 21 29  1
  20372588.186   -17488609.10449 -13616080.03749  20372589.8534   20372595.2684
  18544130.683   -26725331.09449 -20239198.28449  18544131.9704   18544136.7454
  18668229.151   -26032711.33649 -20011543.87249  18668230.3224   18668233.9734
  21282829.814   -20173746.03349 -15691706.34049  21282831.6404   21282836.8704
  21402737.680   -11516230.61849  -8943235.31449  21402738.5994   21402744.8854
  20126321.433   -19406677.18249 -14817019.93549  20126323.1044   20126327.0614
 96  7 13  3 54 29.9920000  0  6 14 15 25 21 29  1
  20356746.842   -17571857.74549 -13680949.08849  20356748.1244   20356753.1904
  18542873.160   -26731939.48849 -20244347.68749  18542874.3244   18542879.4774
  18662813.356   -26061169.95549 -20033719.39849  18662814.9904   18662818.4774
  21299118.191   -20088151.63649 -15625009.44049  21299119.1814   21299124.9104
  21387563.728   -11595968.58549  -9005368.73649  21387565.3714   21387571.1574
  20139939.091   -19335115.01649 -14761257.20449  20139940.5234   20139945.3044
